<?xml version="1.0" encoding="UTF-8" standalone="no" ?>
<gpx xmlns="http://www.topografix.com/GPX/1/1" xmlns:xsi="http://www.w3.org/2001/XMLSchema-instance" xsi:schemaLocation="http://www.topografix.com/GPX/1/1 http://www.topografix.com/GPX/1/1/gpx.xsd" version="1.1" creator="VisuGPX - https://www.visugpx.com">
  <metadata>
    <name>2020-10-29 - Les Crêtes des Piochs</name>
    <desc><![CDATA[Très belle dernière rando avant le 2ème confinement...]]></desc>
  </metadata>
  <trk>
    <name><![CDATA[2020-10-29 - Les Crêtes des Piochs]]></name>
    <trkseg>
      <trkpt lat="43.74138" lon="3.5022">
        <ele>455.1953125</ele>
        <time>2020-10-29T08:02:16Z</time>
      </trkpt>
      <trkpt lat="43.74138" lon="3.5022">
        <ele>455.203125</ele>
        <time>2020-10-29T08:02:17Z</time>
      </trkpt>
      <trkpt lat="43.74138" lon="3.5022">
        <ele>455.28515625</ele>
        <time>2020-10-29T08:02:20Z</time>
      </trkpt>
      <trkpt lat="43.74138" lon="3.50219">
        <ele>455.3125</ele>
        <time>2020-10-29T08:02:21Z</time>
      </trkpt>
      <trkpt lat="43.74138" lon="3.50219">
        <ele>455.67578125</ele>
        <time>2020-10-29T08:02:31Z</time>
      </trkpt>
      <trkpt lat="43.74142" lon="3.50218">
        <ele>456.734375</ele>
        <time>2020-10-29T08:02:48Z</time>
      </trkpt>
      <trkpt lat="43.74144" lon="3.50225">
        <ele>456.296875</ele>
        <time>2020-10-29T08:02:59Z</time>
      </trkpt>
      <trkpt lat="43.74142" lon="3.5024">
        <ele>454.7109375</ele>
        <time>2020-10-29T08:03:13Z</time>
      </trkpt>
      <trkpt lat="43.74142" lon="3.50254">
        <ele>454.1328125</ele>
        <time>2020-10-29T08:03:25Z</time>
      </trkpt>
      <trkpt lat="43.74142" lon="3.5026">
        <ele>453.9609375</ele>
        <time>2020-10-29T08:03:29Z</time>
      </trkpt>
      <trkpt lat="43.74146" lon="3.50281">
        <ele>454.08203125</ele>
        <time>2020-10-29T08:03:45Z</time>
      </trkpt>
      <trkpt lat="43.74155" lon="3.50306">
        <ele>454.9375</ele>
        <time>2020-10-29T08:04:04Z</time>
      </trkpt>
      <trkpt lat="43.74162" lon="3.50321">
        <ele>455.75</ele>
        <time>2020-10-29T08:04:19Z</time>
      </trkpt>
      <trkpt lat="43.74164" lon="3.50324">
        <ele>455.9609375</ele>
        <time>2020-10-29T08:04:23Z</time>
      </trkpt>
      <trkpt lat="43.74165" lon="3.50326">
        <ele>456.08984375</ele>
        <time>2020-10-29T08:04:25Z</time>
      </trkpt>
      <trkpt lat="43.74175" lon="3.50335">
        <ele>456.96484375</ele>
        <time>2020-10-29T08:04:39Z</time>
      </trkpt>
      <trkpt lat="43.74182" lon="3.50335">
        <ele>457.58984375</ele>
        <time>2020-10-29T08:04:47Z</time>
      </trkpt>
      <trkpt lat="43.74197" lon="3.50329">
        <ele>459.6640625</ele>
        <time>2020-10-29T08:05:01Z</time>
      </trkpt>
      <trkpt lat="43.74212" lon="3.5032">
        <ele>462.5546875</ele>
        <time>2020-10-29T08:05:16Z</time>
      </trkpt>
      <trkpt lat="43.74226" lon="3.50329">
        <ele>462.75</ele>
        <time>2020-10-29T08:05:31Z</time>
      </trkpt>
      <trkpt lat="43.74237" lon="3.50343">
        <ele>461.4609375</ele>
        <time>2020-10-29T08:05:45Z</time>
      </trkpt>
      <trkpt lat="43.74249" lon="3.50357">
        <ele>460.203125</ele>
        <time>2020-10-29T08:05:58Z</time>
      </trkpt>
      <trkpt lat="43.74262" lon="3.50375">
        <ele>457.5625</ele>
        <time>2020-10-29T08:06:13Z</time>
      </trkpt>
      <trkpt lat="43.74276" lon="3.50388">
        <ele>456.08984375</ele>
        <time>2020-10-29T08:06:27Z</time>
      </trkpt>
      <trkpt lat="43.7429" lon="3.50402">
        <ele>455.91015625</ele>
        <time>2020-10-29T08:06:41Z</time>
      </trkpt>
      <trkpt lat="43.74301" lon="3.50419">
        <ele>454.625</ele>
        <time>2020-10-29T08:06:56Z</time>
      </trkpt>
      <trkpt lat="43.74311" lon="3.50432">
        <ele>453.921875</ele>
        <time>2020-10-29T08:07:07Z</time>
      </trkpt>
      <trkpt lat="43.74327" lon="3.50447">
        <ele>453.84765625</ele>
        <time>2020-10-29T08:07:22Z</time>
      </trkpt>
      <trkpt lat="43.74342" lon="3.50457">
        <ele>454.76953125</ele>
        <time>2020-10-29T08:07:35Z</time>
      </trkpt>
      <trkpt lat="43.74358" lon="3.50469">
        <ele>455.8828125</ele>
        <time>2020-10-29T08:07:49Z</time>
      </trkpt>
      <trkpt lat="43.74372" lon="3.50484">
        <ele>455.80078125</ele>
        <time>2020-10-29T08:08:03Z</time>
      </trkpt>
      <trkpt lat="43.74377" lon="3.50487">
        <ele>456.3515625</ele>
        <time>2020-10-29T08:08:07Z</time>
      </trkpt>
      <trkpt lat="43.74388" lon="3.5049">
        <ele>458.73046875</ele>
        <time>2020-10-29T08:08:15Z</time>
      </trkpt>
      <trkpt lat="43.74392" lon="3.50493">
        <ele>459.0546875</ele>
        <time>2020-10-29T08:08:19Z</time>
      </trkpt>
      <trkpt lat="43.74396" lon="3.50494">
        <ele>459.6015625</ele>
        <time>2020-10-29T08:08:22Z</time>
      </trkpt>
      <trkpt lat="43.74405" lon="3.50495">
        <ele>461.96484375</ele>
        <time>2020-10-29T08:08:29Z</time>
      </trkpt>
      <trkpt lat="43.74413" lon="3.50498">
        <ele>463.16015625</ele>
        <time>2020-10-29T08:08:35Z</time>
      </trkpt>
      <trkpt lat="43.7442" lon="3.50513">
        <ele>460.83203125</ele>
        <time>2020-10-29T08:08:44Z</time>
      </trkpt>
      <trkpt lat="43.74424" lon="3.50525">
        <ele>459</ele>
        <time>2020-10-29T08:08:52Z</time>
      </trkpt>
      <trkpt lat="43.74427" lon="3.50541">
        <ele>455.72265625</ele>
        <time>2020-10-29T08:09:02Z</time>
      </trkpt>
      <trkpt lat="43.7443" lon="3.50553">
        <ele>453.7734375</ele>
        <time>2020-10-29T08:09:10Z</time>
      </trkpt>
      <trkpt lat="43.74433" lon="3.50569">
        <ele>450.9921875</ele>
        <time>2020-10-29T08:09:18Z</time>
      </trkpt>
      <trkpt lat="43.74436" lon="3.50581">
        <ele>450.3125</ele>
        <time>2020-10-29T08:09:26Z</time>
      </trkpt>
      <trkpt lat="43.74439" lon="3.50593">
        <ele>449.61328125</ele>
        <time>2020-10-29T08:09:33Z</time>
      </trkpt>
      <trkpt lat="43.74443" lon="3.50604">
        <ele>449.32421875</ele>
        <time>2020-10-29T08:09:40Z</time>
      </trkpt>
      <trkpt lat="43.74445" lon="3.50618">
        <ele>447.91796875</ele>
        <time>2020-10-29T08:09:48Z</time>
      </trkpt>
      <trkpt lat="43.74449" lon="3.50632">
        <ele>447.75</ele>
        <time>2020-10-29T08:09:56Z</time>
      </trkpt>
      <trkpt lat="43.74453" lon="3.50638">
        <ele>448.25</ele>
        <time>2020-10-29T08:10:01Z</time>
      </trkpt>
      <trkpt lat="43.74458" lon="3.50647">
        <ele>448.62890625</ele>
        <time>2020-10-29T08:10:08Z</time>
      </trkpt>
      <trkpt lat="43.74464" lon="3.50658">
        <ele>449.2265625</ele>
        <time>2020-10-29T08:10:16Z</time>
      </trkpt>
      <trkpt lat="43.74474" lon="3.50668">
        <ele>451.13671875</ele>
        <time>2020-10-29T08:10:26Z</time>
      </trkpt>
      <trkpt lat="43.74483" lon="3.50676">
        <ele>452.89453125</ele>
        <time>2020-10-29T08:10:35Z</time>
      </trkpt>
      <trkpt lat="43.7449" lon="3.50681">
        <ele>454.17578125</ele>
        <time>2020-10-29T08:10:42Z</time>
      </trkpt>
      <trkpt lat="43.74498" lon="3.50686">
        <ele>456.01171875</ele>
        <time>2020-10-29T08:10:49Z</time>
      </trkpt>
      <trkpt lat="43.745" lon="3.50686">
        <ele>456.3203125</ele>
        <time>2020-10-29T08:10:50Z</time>
      </trkpt>
      <trkpt lat="43.74507" lon="3.5069">
        <ele>456.98046875</ele>
        <time>2020-10-29T08:10:56Z</time>
      </trkpt>
      <trkpt lat="43.74518" lon="3.50693">
        <ele>457.72265625</ele>
        <time>2020-10-29T08:11:04Z</time>
      </trkpt>
      <trkpt lat="43.74527" lon="3.50698">
        <ele>458.0625</ele>
        <time>2020-10-29T08:11:12Z</time>
      </trkpt>
      <trkpt lat="43.74536" lon="3.50698">
        <ele>459.12890625</ele>
        <time>2020-10-29T08:11:18Z</time>
      </trkpt>
      <trkpt lat="43.74547" lon="3.50703">
        <ele>459.79296875</ele>
        <time>2020-10-29T08:11:28Z</time>
      </trkpt>
      <trkpt lat="43.74553" lon="3.50704">
        <ele>460.2109375</ele>
        <time>2020-10-29T08:11:36Z</time>
      </trkpt>
      <trkpt lat="43.74558" lon="3.50704">
        <ele>461.18359375</ele>
        <time>2020-10-29T08:11:49Z</time>
      </trkpt>
      <trkpt lat="43.7456" lon="3.50704">
        <ele>461.71484375</ele>
        <time>2020-10-29T08:12:01Z</time>
      </trkpt>
      <trkpt lat="43.74563" lon="3.50701">
        <ele>463.1015625</ele>
        <time>2020-10-29T08:12:17Z</time>
      </trkpt>
      <trkpt lat="43.74564" lon="3.50703">
        <ele>462.78515625</ele>
        <time>2020-10-29T08:12:32Z</time>
      </trkpt>
      <trkpt lat="43.74566" lon="3.507">
        <ele>463.75390625</ele>
        <time>2020-10-29T08:12:50Z</time>
      </trkpt>
      <trkpt lat="43.74561" lon="3.50694">
        <ele>463.91015625</ele>
        <time>2020-10-29T08:13:02Z</time>
      </trkpt>
      <trkpt lat="43.74564" lon="3.50691">
        <ele>465.4296875</ele>
        <time>2020-10-29T08:13:11Z</time>
      </trkpt>
      <trkpt lat="43.74571" lon="3.50691">
        <ele>467.09765625</ele>
        <time>2020-10-29T08:13:24Z</time>
      </trkpt>
      <trkpt lat="43.7457" lon="3.50681">
        <ele>469.1171875</ele>
        <time>2020-10-29T08:13:37Z</time>
      </trkpt>
      <trkpt lat="43.74569" lon="3.50674">
        <ele>470.4921875</ele>
        <time>2020-10-29T08:13:52Z</time>
      </trkpt>
      <trkpt lat="43.74575" lon="3.50672">
        <ele>472.328125</ele>
        <time>2020-10-29T08:14:01Z</time>
      </trkpt>
      <trkpt lat="43.74574" lon="3.50663">
        <ele>474.11328125</ele>
        <time>2020-10-29T08:14:11Z</time>
      </trkpt>
      <trkpt lat="43.74576" lon="3.50658">
        <ele>475.875</ele>
        <time>2020-10-29T08:14:21Z</time>
      </trkpt>
      <trkpt lat="43.74576" lon="3.50649">
        <ele>477.71484375</ele>
        <time>2020-10-29T08:14:31Z</time>
      </trkpt>
      <trkpt lat="43.7458" lon="3.50649">
        <ele>478.71875</ele>
        <time>2020-10-29T08:14:40Z</time>
      </trkpt>
      <trkpt lat="43.74587" lon="3.50655">
        <ele>479.07421875</ele>
        <time>2020-10-29T08:14:55Z</time>
      </trkpt>
      <trkpt lat="43.74593" lon="3.50662">
        <ele>479.19140625</ele>
        <time>2020-10-29T08:15:10Z</time>
      </trkpt>
      <trkpt lat="43.74598" lon="3.50662">
        <ele>480.23828125</ele>
        <time>2020-10-29T08:15:19Z</time>
      </trkpt>
      <trkpt lat="43.746" lon="3.50652">
        <ele>483.2421875</ele>
        <time>2020-10-29T08:15:33Z</time>
      </trkpt>
      <trkpt lat="43.746" lon="3.50646">
        <ele>484.625</ele>
        <time>2020-10-29T08:15:43Z</time>
      </trkpt>
      <trkpt lat="43.74599" lon="3.50644">
        <ele>484.91796875</ele>
        <time>2020-10-29T08:15:47Z</time>
      </trkpt>
      <trkpt lat="43.74604" lon="3.50642">
        <ele>486.484375</ele>
        <time>2020-10-29T08:15:58Z</time>
      </trkpt>
      <trkpt lat="43.74611" lon="3.50647">
        <ele>487.36328125</ele>
        <time>2020-10-29T08:16:14Z</time>
      </trkpt>
      <trkpt lat="43.74619" lon="3.50651">
        <ele>489.21484375</ele>
        <time>2020-10-29T08:16:28Z</time>
      </trkpt>
      <trkpt lat="43.74626" lon="3.50648">
        <ele>492.5859375</ele>
        <time>2020-10-29T08:16:40Z</time>
      </trkpt>
      <trkpt lat="43.74625" lon="3.50639">
        <ele>494.34375</ele>
        <time>2020-10-29T08:16:53Z</time>
      </trkpt>
      <trkpt lat="43.74619" lon="3.50625">
        <ele>495.40625</ele>
        <time>2020-10-29T08:17:09Z</time>
      </trkpt>
      <trkpt lat="43.74616" lon="3.50618">
        <ele>495.87890625</ele>
        <time>2020-10-29T08:17:22Z</time>
      </trkpt>
      <trkpt lat="43.74609" lon="3.5061">
        <ele>495.58203125</ele>
        <time>2020-10-29T08:17:36Z</time>
      </trkpt>
      <trkpt lat="43.74606" lon="3.50599">
        <ele>498.0546875</ele>
        <time>2020-10-29T08:17:50Z</time>
      </trkpt>
      <trkpt lat="43.74603" lon="3.50588">
        <ele>500</ele>
        <time>2020-10-29T08:18:04Z</time>
      </trkpt>
      <trkpt lat="43.74602" lon="3.5058">
        <ele>502.1875</ele>
        <time>2020-10-29T08:18:14Z</time>
      </trkpt>
      <trkpt lat="43.74603" lon="3.50568">
        <ele>505.953125</ele>
        <time>2020-10-29T08:18:29Z</time>
      </trkpt>
      <trkpt lat="43.74607" lon="3.50554">
        <ele>511.1640625</ele>
        <time>2020-10-29T08:18:45Z</time>
      </trkpt>
      <trkpt lat="43.74601" lon="3.50543">
        <ele>513.6953125</ele>
        <time>2020-10-29T08:18:57Z</time>
      </trkpt>
      <trkpt lat="43.74596" lon="3.50533">
        <ele>515.82421875</ele>
        <time>2020-10-29T08:19:11Z</time>
      </trkpt>
      <trkpt lat="43.746" lon="3.50532">
        <ele>517.27734375</ele>
        <time>2020-10-29T08:19:21Z</time>
      </trkpt>
      <trkpt lat="43.74608" lon="3.50536">
        <ele>517.52734375</ele>
        <time>2020-10-29T08:19:35Z</time>
      </trkpt>
      <trkpt lat="43.74611" lon="3.5054">
        <ele>516.890625</ele>
        <time>2020-10-29T08:19:44Z</time>
      </trkpt>
      <trkpt lat="43.74616" lon="3.50553">
        <ele>513.8359375</ele>
        <time>2020-10-29T08:19:56Z</time>
      </trkpt>
      <trkpt lat="43.74617" lon="3.50558">
        <ele>512.6953125</ele>
        <time>2020-10-29T08:20:00Z</time>
      </trkpt>
      <trkpt lat="43.74622" lon="3.50574">
        <ele>509.828125</ele>
        <time>2020-10-29T08:20:13Z</time>
      </trkpt>
      <trkpt lat="43.74629" lon="3.50584">
        <ele>509.5234375</ele>
        <time>2020-10-29T08:20:27Z</time>
      </trkpt>
      <trkpt lat="43.74635" lon="3.50592">
        <ele>510.078125</ele>
        <time>2020-10-29T08:20:38Z</time>
      </trkpt>
      <trkpt lat="43.74647" lon="3.50604">
        <ele>511.62109375</ele>
        <time>2020-10-29T08:20:54Z</time>
      </trkpt>
      <trkpt lat="43.74656" lon="3.50612">
        <ele>513.78125</ele>
        <time>2020-10-29T08:21:07Z</time>
      </trkpt>
      <trkpt lat="43.74665" lon="3.50618">
        <ele>516.2109375</ele>
        <time>2020-10-29T08:21:21Z</time>
      </trkpt>
      <trkpt lat="43.74668" lon="3.50621">
        <ele>517.0390625</ele>
        <time>2020-10-29T08:21:32Z</time>
      </trkpt>
      <trkpt lat="43.7467" lon="3.50619">
        <ele>517.984375</ele>
        <time>2020-10-29T08:21:46Z</time>
      </trkpt>
      <trkpt lat="43.7467" lon="3.50619">
        <ele>518.18359375</ele>
        <time>2020-10-29T08:21:49Z</time>
      </trkpt>
      <trkpt lat="43.74679" lon="3.50624">
        <ele>520.74609375</ele>
        <time>2020-10-29T08:22:02Z</time>
      </trkpt>
      <trkpt lat="43.74684" lon="3.50627">
        <ele>522.453125</ele>
        <time>2020-10-29T08:22:11Z</time>
      </trkpt>
      <trkpt lat="43.74685" lon="3.50629">
        <ele>522.296875</ele>
        <time>2020-10-29T08:22:29Z</time>
      </trkpt>
      <trkpt lat="43.74687" lon="3.5063">
        <ele>522.8515625</ele>
        <time>2020-10-29T08:22:46Z</time>
      </trkpt>
      <trkpt lat="43.74687" lon="3.50632">
        <ele>522.25390625</ele>
        <time>2020-10-29T08:22:59Z</time>
      </trkpt>
      <trkpt lat="43.74686" lon="3.50633">
        <ele>521.484375</ele>
        <time>2020-10-29T08:23:14Z</time>
      </trkpt>
      <trkpt lat="43.74689" lon="3.5064">
        <ele>520.765625</ele>
        <time>2020-10-29T08:23:26Z</time>
      </trkpt>
      <trkpt lat="43.74698" lon="3.50646">
        <ele>523.140625</ele>
        <time>2020-10-29T08:23:39Z</time>
      </trkpt>
      <trkpt lat="43.74701" lon="3.50647">
        <ele>524.1171875</ele>
        <time>2020-10-29T08:23:43Z</time>
      </trkpt>
      <trkpt lat="43.74711" lon="3.50649">
        <ele>527.703125</ele>
        <time>2020-10-29T08:23:57Z</time>
      </trkpt>
      <trkpt lat="43.7472" lon="3.50652">
        <ele>530.484375</ele>
        <time>2020-10-29T08:24:10Z</time>
      </trkpt>
      <trkpt lat="43.74724" lon="3.50655">
        <ele>531.41015625</ele>
        <time>2020-10-29T08:24:19Z</time>
      </trkpt>
      <trkpt lat="43.74728" lon="3.50658">
        <ele>532.171875</ele>
        <time>2020-10-29T08:24:28Z</time>
      </trkpt>
      <trkpt lat="43.74733" lon="3.50661">
        <ele>533.359375</ele>
        <time>2020-10-29T08:24:40Z</time>
      </trkpt>
      <trkpt lat="43.74742" lon="3.50665">
        <ele>535.5078125</ele>
        <time>2020-10-29T08:24:51Z</time>
      </trkpt>
      <trkpt lat="43.74743" lon="3.50665">
        <ele>535.92578125</ele>
        <time>2020-10-29T08:24:52Z</time>
      </trkpt>
      <trkpt lat="43.74752" lon="3.5067">
        <ele>537.98046875</ele>
        <time>2020-10-29T08:25:05Z</time>
      </trkpt>
      <trkpt lat="43.74761" lon="3.50674">
        <ele>540.51171875</ele>
        <time>2020-10-29T08:25:18Z</time>
      </trkpt>
      <trkpt lat="43.74772" lon="3.50676">
        <ele>543.99609375</ele>
        <time>2020-10-29T08:25:33Z</time>
      </trkpt>
      <trkpt lat="43.7478" lon="3.50684">
        <ele>544.27734375</ele>
        <time>2020-10-29T08:25:46Z</time>
      </trkpt>
      <trkpt lat="43.7479" lon="3.50699">
        <ele>543.2421875</ele>
        <time>2020-10-29T08:26:04Z</time>
      </trkpt>
      <trkpt lat="43.74801" lon="3.50714">
        <ele>543.05859375</ele>
        <time>2020-10-29T08:26:20Z</time>
      </trkpt>
      <trkpt lat="43.74806" lon="3.50721">
        <ele>543.19140625</ele>
        <time>2020-10-29T08:26:31Z</time>
      </trkpt>
      <trkpt lat="43.74807" lon="3.50714">
        <ele>546.421875</ele>
        <time>2020-10-29T08:26:44Z</time>
      </trkpt>
      <trkpt lat="43.74807" lon="3.50709">
        <ele>547.875</ele>
        <time>2020-10-29T08:26:51Z</time>
      </trkpt>
      <trkpt lat="43.74813" lon="3.50717">
        <ele>547.85546875</ele>
        <time>2020-10-29T08:27:05Z</time>
      </trkpt>
      <trkpt lat="43.74821" lon="3.50727">
        <ele>549.41796875</ele>
        <time>2020-10-29T08:27:20Z</time>
      </trkpt>
      <trkpt lat="43.74828" lon="3.50734">
        <ele>550.828125</ele>
        <time>2020-10-29T08:27:33Z</time>
      </trkpt>
      <trkpt lat="43.74837" lon="3.50741">
        <ele>553.625</ele>
        <time>2020-10-29T08:27:47Z</time>
      </trkpt>
      <trkpt lat="43.74847" lon="3.50747">
        <ele>556.2578125</ele>
        <time>2020-10-29T08:28:02Z</time>
      </trkpt>
      <trkpt lat="43.74857" lon="3.50754">
        <ele>558.90625</ele>
        <time>2020-10-29T08:28:17Z</time>
      </trkpt>
      <trkpt lat="43.74863" lon="3.50753">
        <ele>562.66015625</ele>
        <time>2020-10-29T08:28:31Z</time>
      </trkpt>
      <trkpt lat="43.74861" lon="3.50745">
        <ele>563.75</ele>
        <time>2020-10-29T08:28:45Z</time>
      </trkpt>
      <trkpt lat="43.7486" lon="3.50737">
        <ele>565.6875</ele>
        <time>2020-10-29T08:28:53Z</time>
      </trkpt>
      <trkpt lat="43.74857" lon="3.50727">
        <ele>567.203125</ele>
        <time>2020-10-29T08:29:06Z</time>
      </trkpt>
      <trkpt lat="43.74853" lon="3.50725">
        <ele>566.21484375</ele>
        <time>2020-10-29T08:29:14Z</time>
      </trkpt>
      <trkpt lat="43.74858" lon="3.50728">
        <ele>567.625</ele>
        <time>2020-10-29T08:29:25Z</time>
      </trkpt>
      <trkpt lat="43.74862" lon="3.50731">
        <ele>569.0234375</ele>
        <time>2020-10-29T08:29:32Z</time>
      </trkpt>
      <trkpt lat="43.74869" lon="3.50734">
        <ele>571.6328125</ele>
        <time>2020-10-29T08:29:44Z</time>
      </trkpt>
      <trkpt lat="43.7488" lon="3.50735">
        <ele>576.4140625</ele>
        <time>2020-10-29T08:29:59Z</time>
      </trkpt>
      <trkpt lat="43.74888" lon="3.50737">
        <ele>579.72265625</ele>
        <time>2020-10-29T08:30:12Z</time>
      </trkpt>
      <trkpt lat="43.74895" lon="3.50736">
        <ele>582.78125</ele>
        <time>2020-10-29T08:30:21Z</time>
      </trkpt>
      <trkpt lat="43.74907" lon="3.50738">
        <ele>586.42578125</ele>
        <time>2020-10-29T08:30:36Z</time>
      </trkpt>
      <trkpt lat="43.74915" lon="3.50738">
        <ele>589.47265625</ele>
        <time>2020-10-29T08:30:47Z</time>
      </trkpt>
      <trkpt lat="43.74926" lon="3.50745">
        <ele>591.140625</ele>
        <time>2020-10-29T08:30:59Z</time>
      </trkpt>
      <trkpt lat="43.74932" lon="3.50743">
        <ele>594.140625</ele>
        <time>2020-10-29T08:31:09Z</time>
      </trkpt>
      <trkpt lat="43.74932" lon="3.50737">
        <ele>595.90625</ele>
        <time>2020-10-29T08:31:20Z</time>
      </trkpt>
      <trkpt lat="43.74932" lon="3.50734">
        <ele>597.265625</ele>
        <time>2020-10-29T08:31:28Z</time>
      </trkpt>
      <trkpt lat="43.7494" lon="3.50736">
        <ele>599.0078125</ele>
        <time>2020-10-29T08:31:42Z</time>
      </trkpt>
      <trkpt lat="43.74946" lon="3.50743">
        <ele>598.8984375</ele>
        <time>2020-10-29T08:31:55Z</time>
      </trkpt>
      <trkpt lat="43.7495" lon="3.50748">
        <ele>599.1328125</ele>
        <time>2020-10-29T08:32:02Z</time>
      </trkpt>
      <trkpt lat="43.74956" lon="3.50754">
        <ele>599.74609375</ele>
        <time>2020-10-29T08:32:13Z</time>
      </trkpt>
      <trkpt lat="43.74963" lon="3.50763">
        <ele>600.1171875</ele>
        <time>2020-10-29T08:32:25Z</time>
      </trkpt>
      <trkpt lat="43.74968" lon="3.50768">
        <ele>600.45703125</ele>
        <time>2020-10-29T08:32:35Z</time>
      </trkpt>
      <trkpt lat="43.74978" lon="3.5077">
        <ele>604.328125</ele>
        <time>2020-10-29T08:32:45Z</time>
      </trkpt>
      <trkpt lat="43.74984" lon="3.50776">
        <ele>605.21875</ele>
        <time>2020-10-29T08:32:55Z</time>
      </trkpt>
      <trkpt lat="43.74988" lon="3.50782">
        <ele>605.16015625</ele>
        <time>2020-10-29T08:33:07Z</time>
      </trkpt>
      <trkpt lat="43.74994" lon="3.50789">
        <ele>606.04296875</ele>
        <time>2020-10-29T08:33:15Z</time>
      </trkpt>
      <trkpt lat="43.75005" lon="3.50798">
        <ele>608.30859375</ele>
        <time>2020-10-29T08:33:28Z</time>
      </trkpt>
      <trkpt lat="43.75011" lon="3.50802">
        <ele>609.7265625</ele>
        <time>2020-10-29T08:33:36Z</time>
      </trkpt>
      <trkpt lat="43.75014" lon="3.50807">
        <ele>609.54296875</ele>
        <time>2020-10-29T08:33:45Z</time>
      </trkpt>
      <trkpt lat="43.75015" lon="3.50808">
        <ele>609.63671875</ele>
        <time>2020-10-29T08:33:54Z</time>
      </trkpt>
      <trkpt lat="43.75019" lon="3.50812">
        <ele>610.2421875</ele>
        <time>2020-10-29T08:34:10Z</time>
      </trkpt>
      <trkpt lat="43.7502" lon="3.50814">
        <ele>610.18359375</ele>
        <time>2020-10-29T08:34:19Z</time>
      </trkpt>
      <trkpt lat="43.75028" lon="3.50822">
        <ele>611.27734375</ele>
        <time>2020-10-29T08:34:30Z</time>
      </trkpt>
      <trkpt lat="43.75029" lon="3.50822">
        <ele>611.53515625</ele>
        <time>2020-10-29T08:34:31Z</time>
      </trkpt>
      <trkpt lat="43.75038" lon="3.50829">
        <ele>613.05078125</ele>
        <time>2020-10-29T08:34:41Z</time>
      </trkpt>
      <trkpt lat="43.75039" lon="3.50831">
        <ele>613.08984375</ele>
        <time>2020-10-29T08:34:43Z</time>
      </trkpt>
      <trkpt lat="43.75048" lon="3.50838">
        <ele>614.66015625</ele>
        <time>2020-10-29T08:34:53Z</time>
      </trkpt>
      <trkpt lat="43.75057" lon="3.50845">
        <ele>615.89453125</ele>
        <time>2020-10-29T08:35:03Z</time>
      </trkpt>
      <trkpt lat="43.75065" lon="3.50852">
        <ele>616.8125</ele>
        <time>2020-10-29T08:35:13Z</time>
      </trkpt>
      <trkpt lat="43.75072" lon="3.50858">
        <ele>617.953125</ele>
        <time>2020-10-29T08:35:22Z</time>
      </trkpt>
      <trkpt lat="43.75081" lon="3.50866">
        <ele>618.8828125</ele>
        <time>2020-10-29T08:35:33Z</time>
      </trkpt>
      <trkpt lat="43.75089" lon="3.50872">
        <ele>619.8671875</ele>
        <time>2020-10-29T08:35:43Z</time>
      </trkpt>
      <trkpt lat="43.75096" lon="3.50877">
        <ele>620.80078125</ele>
        <time>2020-10-29T08:35:52Z</time>
      </trkpt>
      <trkpt lat="43.75105" lon="3.50883">
        <ele>622.2109375</ele>
        <time>2020-10-29T08:36:02Z</time>
      </trkpt>
      <trkpt lat="43.75114" lon="3.50891">
        <ele>622.75</ele>
        <time>2020-10-29T08:36:13Z</time>
      </trkpt>
      <trkpt lat="43.75122" lon="3.509">
        <ele>622.42578125</ele>
        <time>2020-10-29T08:36:23Z</time>
      </trkpt>
      <trkpt lat="43.75131" lon="3.50906">
        <ele>623.01953125</ele>
        <time>2020-10-29T08:36:35Z</time>
      </trkpt>
      <trkpt lat="43.75132" lon="3.50907">
        <ele>623.3046875</ele>
        <time>2020-10-29T08:36:44Z</time>
      </trkpt>
      <trkpt lat="43.75132" lon="3.50907">
        <ele>623.25</ele>
        <time>2020-10-29T08:37:07Z</time>
      </trkpt>
      <trkpt lat="43.75132" lon="3.50906">
        <ele>623.45703125</ele>
        <time>2020-10-29T08:37:27Z</time>
      </trkpt>
      <trkpt lat="43.75132" lon="3.50906">
        <ele>623.640625</ele>
        <time>2020-10-29T08:37:53Z</time>
      </trkpt>
      <trkpt lat="43.75133" lon="3.50907">
        <ele>623.59765625</ele>
        <time>2020-10-29T08:38:08Z</time>
      </trkpt>
      <trkpt lat="43.75133" lon="3.50906">
        <ele>623.75</ele>
        <time>2020-10-29T08:38:35Z</time>
      </trkpt>
      <trkpt lat="43.75133" lon="3.50906">
        <ele>623.59765625</ele>
        <time>2020-10-29T08:39:01Z</time>
      </trkpt>
      <trkpt lat="43.75132" lon="3.50907">
        <ele>623.28515625</ele>
        <time>2020-10-29T08:39:17Z</time>
      </trkpt>
      <trkpt lat="43.75132" lon="3.50908">
        <ele>622.9765625</ele>
        <time>2020-10-29T08:39:48Z</time>
      </trkpt>
      <trkpt lat="43.75133" lon="3.50908">
        <ele>622.8515625</ele>
        <time>2020-10-29T08:40:09Z</time>
      </trkpt>
      <trkpt lat="43.75133" lon="3.50908">
        <ele>623.0703125</ele>
        <time>2020-10-29T08:40:27Z</time>
      </trkpt>
      <trkpt lat="43.75136" lon="3.5091">
        <ele>623.48046875</ele>
        <time>2020-10-29T08:40:36Z</time>
      </trkpt>
      <trkpt lat="43.75135" lon="3.50909">
        <ele>623.53515625</ele>
        <time>2020-10-29T08:40:51Z</time>
      </trkpt>
      <trkpt lat="43.75135" lon="3.50908">
        <ele>623.640625</ele>
        <time>2020-10-29T08:41:05Z</time>
      </trkpt>
      <trkpt lat="43.75134" lon="3.50908">
        <ele>623.546875</ele>
        <time>2020-10-29T08:41:27Z</time>
      </trkpt>
      <trkpt lat="43.75134" lon="3.50908">
        <ele>623.484375</ele>
        <time>2020-10-29T08:41:46Z</time>
      </trkpt>
      <trkpt lat="43.75135" lon="3.50908">
        <ele>623.5546875</ele>
        <time>2020-10-29T08:42:21Z</time>
      </trkpt>
      <trkpt lat="43.75135" lon="3.50908">
        <ele>623.83984375</ele>
        <time>2020-10-29T08:42:54Z</time>
      </trkpt>
      <trkpt lat="43.75135" lon="3.50908">
        <ele>623.85546875</ele>
        <time>2020-10-29T08:43:22Z</time>
      </trkpt>
      <trkpt lat="43.7514" lon="3.50912">
        <ele>623.9140625</ele>
        <time>2020-10-29T08:43:30Z</time>
      </trkpt>
      <trkpt lat="43.75145" lon="3.50917">
        <ele>623.62109375</ele>
        <time>2020-10-29T08:43:37Z</time>
      </trkpt>
      <trkpt lat="43.75154" lon="3.50921">
        <ele>625.24609375</ele>
        <time>2020-10-29T08:43:46Z</time>
      </trkpt>
      <trkpt lat="43.75166" lon="3.50922">
        <ele>628.50390625</ele>
        <time>2020-10-29T08:43:57Z</time>
      </trkpt>
      <trkpt lat="43.75177" lon="3.5093">
        <ele>628.00390625</ele>
        <time>2020-10-29T08:44:08Z</time>
      </trkpt>
      <trkpt lat="43.75184" lon="3.50936">
        <ele>626.87109375</ele>
        <time>2020-10-29T08:44:17Z</time>
      </trkpt>
      <trkpt lat="43.75194" lon="3.50938">
        <ele>628.09765625</ele>
        <time>2020-10-29T08:44:26Z</time>
      </trkpt>
      <trkpt lat="43.75205" lon="3.50936">
        <ele>631.30078125</ele>
        <time>2020-10-29T08:44:37Z</time>
      </trkpt>
      <trkpt lat="43.75215" lon="3.5093">
        <ele>635.08984375</ele>
        <time>2020-10-29T08:44:47Z</time>
      </trkpt>
      <trkpt lat="43.75226" lon="3.50923">
        <ele>639.01953125</ele>
        <time>2020-10-29T08:44:59Z</time>
      </trkpt>
      <trkpt lat="43.75234" lon="3.50916">
        <ele>640.8046875</ele>
        <time>2020-10-29T08:45:08Z</time>
      </trkpt>
      <trkpt lat="43.7524" lon="3.50909">
        <ele>642.2890625</ele>
        <time>2020-10-29T08:45:15Z</time>
      </trkpt>
      <trkpt lat="43.75242" lon="3.50907">
        <ele>642.9921875</ele>
        <time>2020-10-29T08:45:18Z</time>
      </trkpt>
      <trkpt lat="43.7525" lon="3.50898">
        <ele>644.76171875</ele>
        <time>2020-10-29T08:45:29Z</time>
      </trkpt>
      <trkpt lat="43.75259" lon="3.5089">
        <ele>646.10546875</ele>
        <time>2020-10-29T08:45:40Z</time>
      </trkpt>
      <trkpt lat="43.75269" lon="3.50881">
        <ele>647.69140625</ele>
        <time>2020-10-29T08:45:52Z</time>
      </trkpt>
      <trkpt lat="43.75277" lon="3.50869">
        <ele>649.88671875</ele>
        <time>2020-10-29T08:46:03Z</time>
      </trkpt>
      <trkpt lat="43.75277" lon="3.50868">
        <ele>650.1015625</ele>
        <time>2020-10-29T08:46:04Z</time>
      </trkpt>
      <trkpt lat="43.75281" lon="3.50857">
        <ele>651.7734375</ele>
        <time>2020-10-29T08:46:14Z</time>
      </trkpt>
      <trkpt lat="43.75286" lon="3.50848">
        <ele>652.2421875</ele>
        <time>2020-10-29T08:46:24Z</time>
      </trkpt>
      <trkpt lat="43.75289" lon="3.50838">
        <ele>653.859375</ele>
        <time>2020-10-29T08:46:34Z</time>
      </trkpt>
      <trkpt lat="43.75291" lon="3.50829">
        <ele>654.56640625</ele>
        <time>2020-10-29T08:46:43Z</time>
      </trkpt>
      <trkpt lat="43.75294" lon="3.5082">
        <ele>655.51171875</ele>
        <time>2020-10-29T08:46:51Z</time>
      </trkpt>
      <trkpt lat="43.75296" lon="3.50807">
        <ele>657.265625</ele>
        <time>2020-10-29T08:47:02Z</time>
      </trkpt>
      <trkpt lat="43.75298" lon="3.50793">
        <ele>659.06640625</ele>
        <time>2020-10-29T08:47:13Z</time>
      </trkpt>
      <trkpt lat="43.75298" lon="3.50792">
        <ele>659.26953125</ele>
        <time>2020-10-29T08:47:14Z</time>
      </trkpt>
      <trkpt lat="43.75298" lon="3.50783">
        <ele>660.92578125</ele>
        <time>2020-10-29T08:47:22Z</time>
      </trkpt>
      <trkpt lat="43.75298" lon="3.50778">
        <ele>661.55078125</ele>
        <time>2020-10-29T08:47:26Z</time>
      </trkpt>
      <trkpt lat="43.75298" lon="3.50777">
        <ele>661.7421875</ele>
        <time>2020-10-29T08:47:27Z</time>
      </trkpt>
      <trkpt lat="43.75298" lon="3.50771">
        <ele>662.51171875</ele>
        <time>2020-10-29T08:47:31Z</time>
      </trkpt>
      <trkpt lat="43.75298" lon="3.50767">
        <ele>663.0859375</ele>
        <time>2020-10-29T08:47:34Z</time>
      </trkpt>
      <trkpt lat="43.75298" lon="3.50761">
        <ele>664.125</ele>
        <time>2020-10-29T08:47:38Z</time>
      </trkpt>
      <trkpt lat="43.75296" lon="3.50748">
        <ele>666.8203125</ele>
        <time>2020-10-29T08:47:49Z</time>
      </trkpt>
      <trkpt lat="43.75295" lon="3.50734">
        <ele>669.7109375</ele>
        <time>2020-10-29T08:48:00Z</time>
      </trkpt>
      <trkpt lat="43.75293" lon="3.50724">
        <ele>671.671875</ele>
        <time>2020-10-29T08:48:09Z</time>
      </trkpt>
      <trkpt lat="43.75295" lon="3.50716">
        <ele>671.87890625</ele>
        <time>2020-10-29T08:48:17Z</time>
      </trkpt>
      <trkpt lat="43.75294" lon="3.50706">
        <ele>673.46875</ele>
        <time>2020-10-29T08:48:27Z</time>
      </trkpt>
      <trkpt lat="43.75294" lon="3.50696">
        <ele>674.8984375</ele>
        <time>2020-10-29T08:48:36Z</time>
      </trkpt>
      <trkpt lat="43.75293" lon="3.50684">
        <ele>676.90234375</ele>
        <time>2020-10-29T08:48:46Z</time>
      </trkpt>
      <trkpt lat="43.75295" lon="3.50671">
        <ele>677.51171875</ele>
        <time>2020-10-29T08:48:56Z</time>
      </trkpt>
      <trkpt lat="43.75302" lon="3.50658">
        <ele>677.29296875</ele>
        <time>2020-10-29T08:49:07Z</time>
      </trkpt>
      <trkpt lat="43.75307" lon="3.50647">
        <ele>677.04296875</ele>
        <time>2020-10-29T08:49:17Z</time>
      </trkpt>
      <trkpt lat="43.75312" lon="3.50634">
        <ele>677.05859375</ele>
        <time>2020-10-29T08:49:28Z</time>
      </trkpt>
      <trkpt lat="43.75315" lon="3.50626">
        <ele>677.19921875</ele>
        <time>2020-10-29T08:49:35Z</time>
      </trkpt>
      <trkpt lat="43.75319" lon="3.50611">
        <ele>678.06640625</ele>
        <time>2020-10-29T08:49:46Z</time>
      </trkpt>
      <trkpt lat="43.75322" lon="3.506">
        <ele>678.734375</ele>
        <time>2020-10-29T08:49:56Z</time>
      </trkpt>
      <trkpt lat="43.75324" lon="3.50591">
        <ele>679.44921875</ele>
        <time>2020-10-29T08:50:02Z</time>
      </trkpt>
      <trkpt lat="43.75324" lon="3.5059">
        <ele>679.515625</ele>
        <time>2020-10-29T08:50:03Z</time>
      </trkpt>
      <trkpt lat="43.75328" lon="3.50576">
        <ele>680.51953125</ele>
        <time>2020-10-29T08:50:15Z</time>
      </trkpt>
      <trkpt lat="43.75331" lon="3.50568">
        <ele>680.49609375</ele>
        <time>2020-10-29T08:50:24Z</time>
      </trkpt>
      <trkpt lat="43.75332" lon="3.50565">
        <ele>680.68359375</ele>
        <time>2020-10-29T08:50:26Z</time>
      </trkpt>
      <trkpt lat="43.75337" lon="3.50552">
        <ele>680.578125</ele>
        <time>2020-10-29T08:50:36Z</time>
      </trkpt>
      <trkpt lat="43.75338" lon="3.50546">
        <ele>680.87109375</ele>
        <time>2020-10-29T08:50:40Z</time>
      </trkpt>
      <trkpt lat="43.7534" lon="3.50538">
        <ele>681.40234375</ele>
        <time>2020-10-29T08:50:45Z</time>
      </trkpt>
      <trkpt lat="43.75342" lon="3.50522">
        <ele>683.02734375</ele>
        <time>2020-10-29T08:50:56Z</time>
      </trkpt>
      <trkpt lat="43.75345" lon="3.50507">
        <ele>684.375</ele>
        <time>2020-10-29T08:51:07Z</time>
      </trkpt>
      <trkpt lat="43.75349" lon="3.50493">
        <ele>686.4140625</ele>
        <time>2020-10-29T08:51:18Z</time>
      </trkpt>
      <trkpt lat="43.75356" lon="3.50483">
        <ele>686.76953125</ele>
        <time>2020-10-29T08:51:29Z</time>
      </trkpt>
      <trkpt lat="43.75357" lon="3.50474">
        <ele>688.73046875</ele>
        <time>2020-10-29T08:51:38Z</time>
      </trkpt>
      <trkpt lat="43.75361" lon="3.50463">
        <ele>690.35546875</ele>
        <time>2020-10-29T08:51:49Z</time>
      </trkpt>
      <trkpt lat="43.75363" lon="3.50457">
        <ele>691.15234375</ele>
        <time>2020-10-29T08:51:55Z</time>
      </trkpt>
      <trkpt lat="43.75368" lon="3.5045">
        <ele>691.66015625</ele>
        <time>2020-10-29T08:52:04Z</time>
      </trkpt>
      <trkpt lat="43.75374" lon="3.5044">
        <ele>692.44921875</ele>
        <time>2020-10-29T08:52:15Z</time>
      </trkpt>
      <trkpt lat="43.7538" lon="3.50431">
        <ele>692.88671875</ele>
        <time>2020-10-29T08:52:24Z</time>
      </trkpt>
      <trkpt lat="43.75387" lon="3.5042">
        <ele>693.51953125</ele>
        <time>2020-10-29T08:52:35Z</time>
      </trkpt>
      <trkpt lat="43.75393" lon="3.50406">
        <ele>695.46484375</ele>
        <time>2020-10-29T08:52:48Z</time>
      </trkpt>
      <trkpt lat="43.75401" lon="3.50395">
        <ele>696.64453125</ele>
        <time>2020-10-29T08:52:59Z</time>
      </trkpt>
      <trkpt lat="43.75409" lon="3.50383">
        <ele>697.46875</ele>
        <time>2020-10-29T08:53:11Z</time>
      </trkpt>
      <trkpt lat="43.75417" lon="3.50372">
        <ele>698.08203125</ele>
        <time>2020-10-29T08:53:23Z</time>
      </trkpt>
      <trkpt lat="43.7542" lon="3.50367">
        <ele>698.13671875</ele>
        <time>2020-10-29T08:53:28Z</time>
      </trkpt>
      <trkpt lat="43.75428" lon="3.50358">
        <ele>698.23828125</ele>
        <time>2020-10-29T08:53:38Z</time>
      </trkpt>
      <trkpt lat="43.75435" lon="3.50353">
        <ele>697.609375</ele>
        <time>2020-10-29T08:53:46Z</time>
      </trkpt>
      <trkpt lat="43.75438" lon="3.50344">
        <ele>698.3828125</ele>
        <time>2020-10-29T08:53:53Z</time>
      </trkpt>
      <trkpt lat="43.75446" lon="3.50333">
        <ele>698.75390625</ele>
        <time>2020-10-29T08:54:03Z</time>
      </trkpt>
      <trkpt lat="43.75457" lon="3.5033">
        <ele>699.62890625</ele>
        <time>2020-10-29T08:54:14Z</time>
      </trkpt>
      <trkpt lat="43.75461" lon="3.50327">
        <ele>700.27734375</ele>
        <time>2020-10-29T08:54:20Z</time>
      </trkpt>
      <trkpt lat="43.75467" lon="3.50313">
        <ele>702.2734375</ele>
        <time>2020-10-29T08:54:31Z</time>
      </trkpt>
      <trkpt lat="43.75473" lon="3.50303">
        <ele>703.4609375</ele>
        <time>2020-10-29T08:54:42Z</time>
      </trkpt>
      <trkpt lat="43.75473" lon="3.50298">
        <ele>704.01953125</ele>
        <time>2020-10-29T08:54:46Z</time>
      </trkpt>
      <trkpt lat="43.75476" lon="3.50281">
        <ele>705.86328125</ele>
        <time>2020-10-29T08:54:59Z</time>
      </trkpt>
      <trkpt lat="43.75475" lon="3.50264">
        <ele>707.640625</ele>
        <time>2020-10-29T08:55:10Z</time>
      </trkpt>
      <trkpt lat="43.75476" lon="3.50251">
        <ele>708.9375</ele>
        <time>2020-10-29T08:55:20Z</time>
      </trkpt>
      <trkpt lat="43.75477" lon="3.5024">
        <ele>710.02734375</ele>
        <time>2020-10-29T08:55:30Z</time>
      </trkpt>
      <trkpt lat="43.75479" lon="3.5023">
        <ele>710.80859375</ele>
        <time>2020-10-29T08:55:40Z</time>
      </trkpt>
      <trkpt lat="43.75482" lon="3.50223">
        <ele>711.1328125</ele>
        <time>2020-10-29T08:55:47Z</time>
      </trkpt>
      <trkpt lat="43.75484" lon="3.50215">
        <ele>711.6015625</ele>
        <time>2020-10-29T08:55:55Z</time>
      </trkpt>
      <trkpt lat="43.75484" lon="3.50205">
        <ele>712.53125</ele>
        <time>2020-10-29T08:56:04Z</time>
      </trkpt>
      <trkpt lat="43.7548" lon="3.5019">
        <ele>714.23046875</ele>
        <time>2020-10-29T08:56:15Z</time>
      </trkpt>
      <trkpt lat="43.75479" lon="3.50175">
        <ele>715.63671875</ele>
        <time>2020-10-29T08:56:26Z</time>
      </trkpt>
      <trkpt lat="43.75484" lon="3.50166">
        <ele>716.375</ele>
        <time>2020-10-29T08:56:35Z</time>
      </trkpt>
      <trkpt lat="43.75492" lon="3.5016">
        <ele>716.72265625</ele>
        <time>2020-10-29T08:56:46Z</time>
      </trkpt>
      <trkpt lat="43.75496" lon="3.50149">
        <ele>717.984375</ele>
        <time>2020-10-29T08:56:58Z</time>
      </trkpt>
      <trkpt lat="43.75496" lon="3.50147">
        <ele>718.21875</ele>
        <time>2020-10-29T08:57:00Z</time>
      </trkpt>
      <trkpt lat="43.75498" lon="3.5014">
        <ele>719.203125</ele>
        <time>2020-10-29T08:57:08Z</time>
      </trkpt>
      <trkpt lat="43.75498" lon="3.50135">
        <ele>719.91015625</ele>
        <time>2020-10-29T08:57:12Z</time>
      </trkpt>
      <trkpt lat="43.75493" lon="3.50123">
        <ele>721.640625</ele>
        <time>2020-10-29T08:57:23Z</time>
      </trkpt>
      <trkpt lat="43.7549" lon="3.50104">
        <ele>723.57421875</ele>
        <time>2020-10-29T08:57:36Z</time>
      </trkpt>
      <trkpt lat="43.75486" lon="3.50091">
        <ele>725.02734375</ele>
        <time>2020-10-29T08:57:47Z</time>
      </trkpt>
      <trkpt lat="43.75486" lon="3.50086">
        <ele>725.515625</ele>
        <time>2020-10-29T08:57:51Z</time>
      </trkpt>
      <trkpt lat="43.75487" lon="3.50084">
        <ele>725.7265625</ele>
        <time>2020-10-29T08:57:53Z</time>
      </trkpt>
      <trkpt lat="43.75493" lon="3.50078">
        <ele>726.13671875</ele>
        <time>2020-10-29T08:58:00Z</time>
      </trkpt>
      <trkpt lat="43.75502" lon="3.50071">
        <ele>726.5</ele>
        <time>2020-10-29T08:58:11Z</time>
      </trkpt>
      <trkpt lat="43.75512" lon="3.50065">
        <ele>727.3671875</ele>
        <time>2020-10-29T08:58:22Z</time>
      </trkpt>
      <trkpt lat="43.75525" lon="3.50068">
        <ele>727.7109375</ele>
        <time>2020-10-29T08:58:34Z</time>
      </trkpt>
      <trkpt lat="43.75532" lon="3.50064">
        <ele>728.10546875</ele>
        <time>2020-10-29T08:58:42Z</time>
      </trkpt>
      <trkpt lat="43.75535" lon="3.50059">
        <ele>728.05859375</ele>
        <time>2020-10-29T08:58:50Z</time>
      </trkpt>
      <trkpt lat="43.7554" lon="3.50059">
        <ele>728.1484375</ele>
        <time>2020-10-29T08:58:55Z</time>
      </trkpt>
      <trkpt lat="43.75541" lon="3.5006">
        <ele>728.23046875</ele>
        <time>2020-10-29T08:59:01Z</time>
      </trkpt>
      <trkpt lat="43.75541" lon="3.50061">
        <ele>728.27734375</ele>
        <time>2020-10-29T08:59:13Z</time>
      </trkpt>
      <trkpt lat="43.75542" lon="3.50062">
        <ele>728.33984375</ele>
        <time>2020-10-29T08:59:23Z</time>
      </trkpt>
      <trkpt lat="43.75543" lon="3.50065">
        <ele>728.5234375</ele>
        <time>2020-10-29T08:59:31Z</time>
      </trkpt>
      <trkpt lat="43.75541" lon="3.50064">
        <ele>728.43359375</ele>
        <time>2020-10-29T08:59:38Z</time>
      </trkpt>
      <trkpt lat="43.75541" lon="3.50062">
        <ele>728.328125</ele>
        <time>2020-10-29T08:59:48Z</time>
      </trkpt>
      <trkpt lat="43.75541" lon="3.50062">
        <ele>728.3125</ele>
        <time>2020-10-29T09:00:05Z</time>
      </trkpt>
      <trkpt lat="43.75541" lon="3.50061">
        <ele>728.296875</ele>
        <time>2020-10-29T09:00:27Z</time>
      </trkpt>
      <trkpt lat="43.75541" lon="3.50062">
        <ele>728.328125</ele>
        <time>2020-10-29T09:00:39Z</time>
      </trkpt>
      <trkpt lat="43.75541" lon="3.50062">
        <ele>728.3359375</ele>
        <time>2020-10-29T09:00:48Z</time>
      </trkpt>
      <trkpt lat="43.75541" lon="3.50063">
        <ele>728.3828125</ele>
        <time>2020-10-29T09:00:58Z</time>
      </trkpt>
      <trkpt lat="43.75541" lon="3.50063">
        <ele>728.390625</ele>
        <time>2020-10-29T09:01:07Z</time>
      </trkpt>
      <trkpt lat="43.75541" lon="3.50062">
        <ele>728.328125</ele>
        <time>2020-10-29T09:01:33Z</time>
      </trkpt>
      <trkpt lat="43.75541" lon="3.50061">
        <ele>728.31640625</ele>
        <time>2020-10-29T09:01:44Z</time>
      </trkpt>
      <trkpt lat="43.75541" lon="3.50061">
        <ele>728.29296875</ele>
        <time>2020-10-29T09:02:20Z</time>
      </trkpt>
      <trkpt lat="43.75541" lon="3.50062">
        <ele>728.3203125</ele>
        <time>2020-10-29T09:02:42Z</time>
      </trkpt>
      <trkpt lat="43.75541" lon="3.50062">
        <ele>728.328125</ele>
        <time>2020-10-29T09:03:14Z</time>
      </trkpt>
      <trkpt lat="43.75542" lon="3.50061">
        <ele>728.328125</ele>
        <time>2020-10-29T09:03:44Z</time>
      </trkpt>
      <trkpt lat="43.75541" lon="3.50061">
        <ele>728.30859375</ele>
        <time>2020-10-29T09:04:22Z</time>
      </trkpt>
      <trkpt lat="43.75542" lon="3.50061">
        <ele>728.3125</ele>
        <time>2020-10-29T09:04:36Z</time>
      </trkpt>
      <trkpt lat="43.75542" lon="3.50062">
        <ele>728.35546875</ele>
        <time>2020-10-29T09:04:46Z</time>
      </trkpt>
      <trkpt lat="43.75542" lon="3.50062">
        <ele>728.375</ele>
        <time>2020-10-29T09:04:52Z</time>
      </trkpt>
      <trkpt lat="43.75542" lon="3.50063">
        <ele>728.40234375</ele>
        <time>2020-10-29T09:05:09Z</time>
      </trkpt>
      <trkpt lat="43.75541" lon="3.50063">
        <ele>728.39453125</ele>
        <time>2020-10-29T09:05:26Z</time>
      </trkpt>
      <trkpt lat="43.75541" lon="3.50063">
        <ele>728.390625</ele>
        <time>2020-10-29T09:05:49Z</time>
      </trkpt>
      <trkpt lat="43.75541" lon="3.50063">
        <ele>728.37890625</ele>
        <time>2020-10-29T09:06:12Z</time>
      </trkpt>
      <trkpt lat="43.75541" lon="3.50063">
        <ele>728.375</ele>
        <time>2020-10-29T09:06:31Z</time>
      </trkpt>
      <trkpt lat="43.75541" lon="3.50063">
        <ele>728.36328125</ele>
        <time>2020-10-29T09:06:51Z</time>
      </trkpt>
      <trkpt lat="43.75541" lon="3.50063">
        <ele>728.40625</ele>
        <time>2020-10-29T09:07:08Z</time>
      </trkpt>
      <trkpt lat="43.7554" lon="3.50062">
        <ele>728.30859375</ele>
        <time>2020-10-29T09:07:20Z</time>
      </trkpt>
      <trkpt lat="43.75541" lon="3.50061">
        <ele>728.296875</ele>
        <time>2020-10-29T09:07:26Z</time>
      </trkpt>
      <trkpt lat="43.75541" lon="3.50062">
        <ele>728.31640625</ele>
        <time>2020-10-29T09:07:37Z</time>
      </trkpt>
      <trkpt lat="43.75542" lon="3.50062">
        <ele>728.390625</ele>
        <time>2020-10-29T09:07:40Z</time>
      </trkpt>
      <trkpt lat="43.75547" lon="3.5007">
        <ele>728.609375</ele>
        <time>2020-10-29T09:07:48Z</time>
      </trkpt>
      <trkpt lat="43.75557" lon="3.50077">
        <ele>729.08984375</ele>
        <time>2020-10-29T09:07:59Z</time>
      </trkpt>
      <trkpt lat="43.75567" lon="3.50084">
        <ele>730.0625</ele>
        <time>2020-10-29T09:08:11Z</time>
      </trkpt>
      <trkpt lat="43.75576" lon="3.50088">
        <ele>731.0546875</ele>
        <time>2020-10-29T09:08:22Z</time>
      </trkpt>
      <trkpt lat="43.75584" lon="3.50085">
        <ele>731.74609375</ele>
        <time>2020-10-29T09:08:31Z</time>
      </trkpt>
      <trkpt lat="43.75595" lon="3.50083">
        <ele>732.75390625</ele>
        <time>2020-10-29T09:08:43Z</time>
      </trkpt>
      <trkpt lat="43.75607" lon="3.50085">
        <ele>733.9921875</ele>
        <time>2020-10-29T09:08:55Z</time>
      </trkpt>
      <trkpt lat="43.75618" lon="3.50084">
        <ele>734.8984375</ele>
        <time>2020-10-29T09:09:07Z</time>
      </trkpt>
      <trkpt lat="43.75633" lon="3.50081">
        <ele>735.83203125</ele>
        <time>2020-10-29T09:09:21Z</time>
      </trkpt>
      <trkpt lat="43.75647" lon="3.50075">
        <ele>736.37890625</ele>
        <time>2020-10-29T09:09:34Z</time>
      </trkpt>
      <trkpt lat="43.75655" lon="3.50079">
        <ele>737.3984375</ele>
        <time>2020-10-29T09:09:43Z</time>
      </trkpt>
      <trkpt lat="43.75652" lon="3.50093">
        <ele>738.359375</ele>
        <time>2020-10-29T09:09:53Z</time>
      </trkpt>
      <trkpt lat="43.75646" lon="3.5011">
        <ele>739.25</ele>
        <time>2020-10-29T09:10:05Z</time>
      </trkpt>
      <trkpt lat="43.75643" lon="3.50126">
        <ele>739.98046875</ele>
        <time>2020-10-29T09:10:16Z</time>
      </trkpt>
      <trkpt lat="43.75643" lon="3.50141">
        <ele>740.49609375</ele>
        <time>2020-10-29T09:10:27Z</time>
      </trkpt>
      <trkpt lat="43.75643" lon="3.50143">
        <ele>740.56640625</ele>
        <time>2020-10-29T09:10:34Z</time>
      </trkpt>
      <trkpt lat="43.75644" lon="3.50157">
        <ele>741.04296875</ele>
        <time>2020-10-29T09:10:43Z</time>
      </trkpt>
      <trkpt lat="43.75643" lon="3.50178">
        <ele>741.5390625</ele>
        <time>2020-10-29T09:10:56Z</time>
      </trkpt>
      <trkpt lat="43.75645" lon="3.50193">
        <ele>741.99609375</ele>
        <time>2020-10-29T09:11:07Z</time>
      </trkpt>
      <trkpt lat="43.75653" lon="3.50194">
        <ele>743.421875</ele>
        <time>2020-10-29T09:11:16Z</time>
      </trkpt>
      <trkpt lat="43.75666" lon="3.50189">
        <ele>745.32421875</ele>
        <time>2020-10-29T09:11:27Z</time>
      </trkpt>
      <trkpt lat="43.75677" lon="3.5019">
        <ele>745.68359375</ele>
        <time>2020-10-29T09:11:36Z</time>
      </trkpt>
      <trkpt lat="43.7568" lon="3.5019">
        <ele>745.73046875</ele>
        <time>2020-10-29T09:11:38Z</time>
      </trkpt>
      <trkpt lat="43.75684" lon="3.5019">
        <ele>745.83984375</ele>
        <time>2020-10-29T09:11:42Z</time>
      </trkpt>
      <trkpt lat="43.75687" lon="3.5019">
        <ele>745.8984375</ele>
        <time>2020-10-29T09:11:44Z</time>
      </trkpt>
      <trkpt lat="43.75689" lon="3.5019">
        <ele>745.9609375</ele>
        <time>2020-10-29T09:11:46Z</time>
      </trkpt>
      <trkpt lat="43.75707" lon="3.50189">
        <ele>746.2109375</ele>
        <time>2020-10-29T09:12:01Z</time>
      </trkpt>
      <trkpt lat="43.75708" lon="3.50189">
        <ele>746.2109375</ele>
        <time>2020-10-29T09:12:02Z</time>
      </trkpt>
      <trkpt lat="43.75725" lon="3.50187">
        <ele>746.2265625</ele>
        <time>2020-10-29T09:12:15Z</time>
      </trkpt>
      <trkpt lat="43.7574" lon="3.50187">
        <ele>746.59765625</ele>
        <time>2020-10-29T09:12:27Z</time>
      </trkpt>
      <trkpt lat="43.75755" lon="3.50193">
        <ele>747.46484375</ele>
        <time>2020-10-29T09:12:40Z</time>
      </trkpt>
      <trkpt lat="43.75769" lon="3.50197">
        <ele>748.1640625</ele>
        <time>2020-10-29T09:12:53Z</time>
      </trkpt>
      <trkpt lat="43.75776" lon="3.50206">
        <ele>749.22265625</ele>
        <time>2020-10-29T09:13:02Z</time>
      </trkpt>
      <trkpt lat="43.7578" lon="3.50221">
        <ele>750.99609375</ele>
        <time>2020-10-29T09:13:13Z</time>
      </trkpt>
      <trkpt lat="43.75784" lon="3.50225">
        <ele>751.640625</ele>
        <time>2020-10-29T09:13:18Z</time>
      </trkpt>
      <trkpt lat="43.75795" lon="3.50223">
        <ele>752.1796875</ele>
        <time>2020-10-29T09:13:29Z</time>
      </trkpt>
      <trkpt lat="43.75808" lon="3.50224">
        <ele>752.984375</ele>
        <time>2020-10-29T09:13:40Z</time>
      </trkpt>
      <trkpt lat="43.75819" lon="3.50234">
        <ele>754.4375</ele>
        <time>2020-10-29T09:13:53Z</time>
      </trkpt>
      <trkpt lat="43.75824" lon="3.50236">
        <ele>754.9140625</ele>
        <time>2020-10-29T09:13:59Z</time>
      </trkpt>
      <trkpt lat="43.75826" lon="3.50235">
        <ele>754.98828125</ele>
        <time>2020-10-29T09:14:02Z</time>
      </trkpt>
      <trkpt lat="43.75839" lon="3.50237">
        <ele>755.99609375</ele>
        <time>2020-10-29T09:14:14Z</time>
      </trkpt>
      <trkpt lat="43.75844" lon="3.50245">
        <ele>757.0703125</ele>
        <time>2020-10-29T09:14:22Z</time>
      </trkpt>
      <trkpt lat="43.75846" lon="3.50249">
        <ele>757.5625</ele>
        <time>2020-10-29T09:14:26Z</time>
      </trkpt>
      <trkpt lat="43.75847" lon="3.50249">
        <ele>757.671875</ele>
        <time>2020-10-29T09:14:27Z</time>
      </trkpt>
      <trkpt lat="43.75861" lon="3.50256">
        <ele>759.23828125</ele>
        <time>2020-10-29T09:14:41Z</time>
      </trkpt>
      <trkpt lat="43.75871" lon="3.50266">
        <ele>760.66015625</ele>
        <time>2020-10-29T09:14:53Z</time>
      </trkpt>
      <trkpt lat="43.75882" lon="3.50267">
        <ele>761.48046875</ele>
        <time>2020-10-29T09:15:05Z</time>
      </trkpt>
      <trkpt lat="43.7589" lon="3.50266">
        <ele>761.97265625</ele>
        <time>2020-10-29T09:15:13Z</time>
      </trkpt>
      <trkpt lat="43.75902" lon="3.50273">
        <ele>763.77734375</ele>
        <time>2020-10-29T09:15:25Z</time>
      </trkpt>
      <trkpt lat="43.75913" lon="3.50285">
        <ele>765.45703125</ele>
        <time>2020-10-29T09:15:37Z</time>
      </trkpt>
      <trkpt lat="43.75914" lon="3.50288">
        <ele>765.56640625</ele>
        <time>2020-10-29T09:15:39Z</time>
      </trkpt>
      <trkpt lat="43.7592" lon="3.50302">
        <ele>765.74609375</ele>
        <time>2020-10-29T09:15:50Z</time>
      </trkpt>
      <trkpt lat="43.75932" lon="3.5032">
        <ele>766.05078125</ele>
        <time>2020-10-29T09:16:06Z</time>
      </trkpt>
      <trkpt lat="43.75935" lon="3.50338">
        <ele>765.5390625</ele>
        <time>2020-10-29T09:16:19Z</time>
      </trkpt>
      <trkpt lat="43.75934" lon="3.50352">
        <ele>764.10546875</ele>
        <time>2020-10-29T09:16:32Z</time>
      </trkpt>
      <trkpt lat="43.75936" lon="3.50362">
        <ele>763.23046875</ele>
        <time>2020-10-29T09:16:39Z</time>
      </trkpt>
      <trkpt lat="43.75943" lon="3.50376">
        <ele>762.2578125</ele>
        <time>2020-10-29T09:16:50Z</time>
      </trkpt>
      <trkpt lat="43.75948" lon="3.50386">
        <ele>761.67578125</ele>
        <time>2020-10-29T09:17:01Z</time>
      </trkpt>
      <trkpt lat="43.75952" lon="3.50393">
        <ele>761.625</ele>
        <time>2020-10-29T09:17:12Z</time>
      </trkpt>
      <trkpt lat="43.75952" lon="3.50392">
        <ele>761.703125</ele>
        <time>2020-10-29T09:17:26Z</time>
      </trkpt>
      <trkpt lat="43.75952" lon="3.50392">
        <ele>761.69140625</ele>
        <time>2020-10-29T09:17:27Z</time>
      </trkpt>
      <trkpt lat="43.75952" lon="3.50392">
        <ele>761.671875</ele>
        <time>2020-10-29T09:17:29Z</time>
      </trkpt>
      <trkpt lat="43.75952" lon="3.50392">
        <ele>761.5703125</ele>
        <time>2020-10-29T09:17:36Z</time>
      </trkpt>
      <trkpt lat="43.75951" lon="3.50392">
        <ele>761.55859375</ele>
        <time>2020-10-29T09:17:37Z</time>
      </trkpt>
      <trkpt lat="43.75951" lon="3.50391">
        <ele>761.58984375</ele>
        <time>2020-10-29T09:17:49Z</time>
      </trkpt>
      <trkpt lat="43.75953" lon="3.50392">
        <ele>761.6953125</ele>
        <time>2020-10-29T09:17:52Z</time>
      </trkpt>
      <trkpt lat="43.75961" lon="3.50399">
        <ele>762.1875</ele>
        <time>2020-10-29T09:18:00Z</time>
      </trkpt>
      <trkpt lat="43.75977" lon="3.5041">
        <ele>762.95703125</ele>
        <time>2020-10-29T09:18:15Z</time>
      </trkpt>
      <trkpt lat="43.75985" lon="3.5042">
        <ele>762.80859375</ele>
        <time>2020-10-29T09:18:24Z</time>
      </trkpt>
      <trkpt lat="43.75996" lon="3.50431">
        <ele>763.1875</ele>
        <time>2020-10-29T09:18:36Z</time>
      </trkpt>
      <trkpt lat="43.76003" lon="3.5044">
        <ele>763.23046875</ele>
        <time>2020-10-29T09:18:46Z</time>
      </trkpt>
      <trkpt lat="43.76002" lon="3.50441">
        <ele>763.03515625</ele>
        <time>2020-10-29T09:18:52Z</time>
      </trkpt>
      <trkpt lat="43.76005" lon="3.50446">
        <ele>763.2578125</ele>
        <time>2020-10-29T09:19:00Z</time>
      </trkpt>
      <trkpt lat="43.76007" lon="3.50449">
        <ele>763.3984375</ele>
        <time>2020-10-29T09:19:03Z</time>
      </trkpt>
      <trkpt lat="43.76008" lon="3.50454">
        <ele>763.0546875</ele>
        <time>2020-10-29T09:19:13Z</time>
      </trkpt>
      <trkpt lat="43.76008" lon="3.50454">
        <ele>763.05859375</ele>
        <time>2020-10-29T09:19:20Z</time>
      </trkpt>
      <trkpt lat="43.76008" lon="3.50455">
        <ele>762.81640625</ele>
        <time>2020-10-29T09:19:32Z</time>
      </trkpt>
      <trkpt lat="43.76006" lon="3.50455">
        <ele>762.4375</ele>
        <time>2020-10-29T09:19:41Z</time>
      </trkpt>
      <trkpt lat="43.76006" lon="3.50454">
        <ele>762.5234375</ele>
        <time>2020-10-29T09:19:56Z</time>
      </trkpt>
      <trkpt lat="43.76006" lon="3.50454">
        <ele>762.4921875</ele>
        <time>2020-10-29T09:20:15Z</time>
      </trkpt>
      <trkpt lat="43.76006" lon="3.50454">
        <ele>762.4609375</ele>
        <time>2020-10-29T09:20:28Z</time>
      </trkpt>
      <trkpt lat="43.76007" lon="3.50455">
        <ele>762.62890625</ele>
        <time>2020-10-29T09:20:39Z</time>
      </trkpt>
      <trkpt lat="43.7601" lon="3.50457">
        <ele>763.10546875</ele>
        <time>2020-10-29T09:20:43Z</time>
      </trkpt>
      <trkpt lat="43.76011" lon="3.50459">
        <ele>763.21875</ele>
        <time>2020-10-29T09:20:45Z</time>
      </trkpt>
      <trkpt lat="43.76017" lon="3.50477">
        <ele>762.29296875</ele>
        <time>2020-10-29T09:20:58Z</time>
      </trkpt>
      <trkpt lat="43.76021" lon="3.50491">
        <ele>761.54296875</ele>
        <time>2020-10-29T09:21:09Z</time>
      </trkpt>
      <trkpt lat="43.76029" lon="3.50503">
        <ele>761.49609375</ele>
        <time>2020-10-29T09:21:21Z</time>
      </trkpt>
      <trkpt lat="43.76034" lon="3.50515">
        <ele>760.90625</ele>
        <time>2020-10-29T09:21:33Z</time>
      </trkpt>
      <trkpt lat="43.76036" lon="3.50521">
        <ele>760.26171875</ele>
        <time>2020-10-29T09:21:38Z</time>
      </trkpt>
      <trkpt lat="43.76042" lon="3.50534">
        <ele>759.484375</ele>
        <time>2020-10-29T09:21:50Z</time>
      </trkpt>
      <trkpt lat="43.76048" lon="3.50548">
        <ele>758.2890625</ele>
        <time>2020-10-29T09:22:03Z</time>
      </trkpt>
      <trkpt lat="43.7605" lon="3.50559">
        <ele>756.93359375</ele>
        <time>2020-10-29T09:22:14Z</time>
      </trkpt>
      <trkpt lat="43.76053" lon="3.50562">
        <ele>756.9453125</ele>
        <time>2020-10-29T09:22:18Z</time>
      </trkpt>
      <trkpt lat="43.76059" lon="3.50574">
        <ele>756.0625</ele>
        <time>2020-10-29T09:22:29Z</time>
      </trkpt>
      <trkpt lat="43.76065" lon="3.50585">
        <ele>755.2421875</ele>
        <time>2020-10-29T09:22:40Z</time>
      </trkpt>
      <trkpt lat="43.76073" lon="3.50597">
        <ele>754.53515625</ele>
        <time>2020-10-29T09:22:51Z</time>
      </trkpt>
      <trkpt lat="43.76082" lon="3.50602">
        <ele>754.60546875</ele>
        <time>2020-10-29T09:23:00Z</time>
      </trkpt>
      <trkpt lat="43.76089" lon="3.50609">
        <ele>754.17578125</ele>
        <time>2020-10-29T09:23:09Z</time>
      </trkpt>
      <trkpt lat="43.76098" lon="3.50613">
        <ele>754.19921875</ele>
        <time>2020-10-29T09:23:19Z</time>
      </trkpt>
      <trkpt lat="43.76106" lon="3.50617">
        <ele>754.06640625</ele>
        <time>2020-10-29T09:23:29Z</time>
      </trkpt>
      <trkpt lat="43.76118" lon="3.50619">
        <ele>754.6953125</ele>
        <time>2020-10-29T09:23:40Z</time>
      </trkpt>
      <trkpt lat="43.76131" lon="3.50621">
        <ele>755.625</ele>
        <time>2020-10-29T09:23:55Z</time>
      </trkpt>
      <trkpt lat="43.76137" lon="3.50621">
        <ele>755.96484375</ele>
        <time>2020-10-29T09:24:01Z</time>
      </trkpt>
      <trkpt lat="43.76145" lon="3.5062">
        <ele>756.9765625</ele>
        <time>2020-10-29T09:24:11Z</time>
      </trkpt>
      <trkpt lat="43.76152" lon="3.50621">
        <ele>757.42578125</ele>
        <time>2020-10-29T09:24:20Z</time>
      </trkpt>
      <trkpt lat="43.76162" lon="3.50627">
        <ele>757.01171875</ele>
        <time>2020-10-29T09:24:33Z</time>
      </trkpt>
      <trkpt lat="43.76167" lon="3.50625">
        <ele>757.8125</ele>
        <time>2020-10-29T09:24:40Z</time>
      </trkpt>
      <trkpt lat="43.76175" lon="3.50626">
        <ele>758.66796875</ele>
        <time>2020-10-29T09:24:51Z</time>
      </trkpt>
      <trkpt lat="43.76183" lon="3.5063">
        <ele>758.54296875</ele>
        <time>2020-10-29T09:25:01Z</time>
      </trkpt>
      <trkpt lat="43.76193" lon="3.50641">
        <ele>757.6796875</ele>
        <time>2020-10-29T09:25:15Z</time>
      </trkpt>
      <trkpt lat="43.762" lon="3.50645">
        <ele>757.66015625</ele>
        <time>2020-10-29T09:25:24Z</time>
      </trkpt>
      <trkpt lat="43.76208" lon="3.50648">
        <ele>758.140625</ele>
        <time>2020-10-29T09:25:34Z</time>
      </trkpt>
      <trkpt lat="43.76216" lon="3.50649">
        <ele>758.97265625</ele>
        <time>2020-10-29T09:25:44Z</time>
      </trkpt>
      <trkpt lat="43.76225" lon="3.50649">
        <ele>760.12890625</ele>
        <time>2020-10-29T09:25:55Z</time>
      </trkpt>
      <trkpt lat="43.76233" lon="3.50646">
        <ele>761.46875</ele>
        <time>2020-10-29T09:26:05Z</time>
      </trkpt>
      <trkpt lat="43.76237" lon="3.50637">
        <ele>763.39453125</ele>
        <time>2020-10-29T09:26:15Z</time>
      </trkpt>
      <trkpt lat="43.76243" lon="3.50638">
        <ele>763.859375</ele>
        <time>2020-10-29T09:26:23Z</time>
      </trkpt>
      <trkpt lat="43.76251" lon="3.50642">
        <ele>764.2578125</ele>
        <time>2020-10-29T09:26:32Z</time>
      </trkpt>
      <trkpt lat="43.76261" lon="3.50647">
        <ele>764.61328125</ele>
        <time>2020-10-29T09:26:43Z</time>
      </trkpt>
      <trkpt lat="43.76268" lon="3.50662">
        <ele>763.40625</ele>
        <time>2020-10-29T09:26:57Z</time>
      </trkpt>
      <trkpt lat="43.76272" lon="3.5067">
        <ele>762.8828125</ele>
        <time>2020-10-29T09:27:07Z</time>
      </trkpt>
      <trkpt lat="43.76278" lon="3.50671">
        <ele>763.5234375</ele>
        <time>2020-10-29T09:27:16Z</time>
      </trkpt>
      <trkpt lat="43.76283" lon="3.50675">
        <ele>763.92578125</ele>
        <time>2020-10-29T09:27:26Z</time>
      </trkpt>
      <trkpt lat="43.76289" lon="3.50683">
        <ele>763.8125</ele>
        <time>2020-10-29T09:27:36Z</time>
      </trkpt>
      <trkpt lat="43.76293" lon="3.50693">
        <ele>763.51171875</ele>
        <time>2020-10-29T09:27:46Z</time>
      </trkpt>
      <trkpt lat="43.76298" lon="3.50703">
        <ele>763.23828125</ele>
        <time>2020-10-29T09:27:56Z</time>
      </trkpt>
      <trkpt lat="43.76303" lon="3.50708">
        <ele>763.6796875</ele>
        <time>2020-10-29T09:28:04Z</time>
      </trkpt>
      <trkpt lat="43.76307" lon="3.50713">
        <ele>763.9296875</ele>
        <time>2020-10-29T09:28:12Z</time>
      </trkpt>
      <trkpt lat="43.76312" lon="3.50715">
        <ele>764.84375</ele>
        <time>2020-10-29T09:28:21Z</time>
      </trkpt>
      <trkpt lat="43.76316" lon="3.50722">
        <ele>765.03125</ele>
        <time>2020-10-29T09:28:31Z</time>
      </trkpt>
      <trkpt lat="43.76322" lon="3.50735">
        <ele>764.90625</ele>
        <time>2020-10-29T09:28:43Z</time>
      </trkpt>
      <trkpt lat="43.76331" lon="3.50749">
        <ele>765.1640625</ele>
        <time>2020-10-29T09:28:57Z</time>
      </trkpt>
      <trkpt lat="43.76339" lon="3.50755">
        <ele>765.49609375</ele>
        <time>2020-10-29T09:29:08Z</time>
      </trkpt>
      <trkpt lat="43.76348" lon="3.50761">
        <ele>765.7734375</ele>
        <time>2020-10-29T09:29:20Z</time>
      </trkpt>
      <trkpt lat="43.76355" lon="3.50766">
        <ele>766.1953125</ele>
        <time>2020-10-29T09:29:31Z</time>
      </trkpt>
      <trkpt lat="43.7636" lon="3.50771">
        <ele>766.48828125</ele>
        <time>2020-10-29T09:29:40Z</time>
      </trkpt>
      <trkpt lat="43.76364" lon="3.50779">
        <ele>766.4296875</ele>
        <time>2020-10-29T09:29:49Z</time>
      </trkpt>
      <trkpt lat="43.76368" lon="3.50783">
        <ele>766.84375</ele>
        <time>2020-10-29T09:29:57Z</time>
      </trkpt>
      <trkpt lat="43.76373" lon="3.50786">
        <ele>767.3515625</ele>
        <time>2020-10-29T09:30:05Z</time>
      </trkpt>
      <trkpt lat="43.76378" lon="3.50792">
        <ele>767.96875</ele>
        <time>2020-10-29T09:30:15Z</time>
      </trkpt>
      <trkpt lat="43.76383" lon="3.50797">
        <ele>768.5546875</ele>
        <time>2020-10-29T09:30:24Z</time>
      </trkpt>
      <trkpt lat="43.76384" lon="3.50797">
        <ele>768.77734375</ele>
        <time>2020-10-29T09:30:26Z</time>
      </trkpt>
      <trkpt lat="43.76391" lon="3.50804">
        <ele>769.41796875</ele>
        <time>2020-10-29T09:30:37Z</time>
      </trkpt>
      <trkpt lat="43.76399" lon="3.50813">
        <ele>769.39453125</ele>
        <time>2020-10-29T09:30:48Z</time>
      </trkpt>
      <trkpt lat="43.76405" lon="3.50822">
        <ele>769.39453125</ele>
        <time>2020-10-29T09:30:59Z</time>
      </trkpt>
      <trkpt lat="43.76408" lon="3.50824">
        <ele>769.45703125</ele>
        <time>2020-10-29T09:31:03Z</time>
      </trkpt>
      <trkpt lat="43.76413" lon="3.50827">
        <ele>769.5859375</ele>
        <time>2020-10-29T09:31:08Z</time>
      </trkpt>
      <trkpt lat="43.76417" lon="3.50835">
        <ele>769.6171875</ele>
        <time>2020-10-29T09:31:17Z</time>
      </trkpt>
      <trkpt lat="43.76421" lon="3.50843">
        <ele>769.61328125</ele>
        <time>2020-10-29T09:31:28Z</time>
      </trkpt>
      <trkpt lat="43.76427" lon="3.50848">
        <ele>769.5390625</ele>
        <time>2020-10-29T09:31:38Z</time>
      </trkpt>
      <trkpt lat="43.76431" lon="3.50856">
        <ele>769.28125</ele>
        <time>2020-10-29T09:31:47Z</time>
      </trkpt>
      <trkpt lat="43.76437" lon="3.5086">
        <ele>769.421875</ele>
        <time>2020-10-29T09:31:57Z</time>
      </trkpt>
      <trkpt lat="43.7644" lon="3.50868">
        <ele>769.16015625</ele>
        <time>2020-10-29T09:32:07Z</time>
      </trkpt>
      <trkpt lat="43.7644" lon="3.50869">
        <ele>769.16015625</ele>
        <time>2020-10-29T09:32:08Z</time>
      </trkpt>
      <trkpt lat="43.76446" lon="3.50878">
        <ele>768.96875</ele>
        <time>2020-10-29T09:32:19Z</time>
      </trkpt>
      <trkpt lat="43.76449" lon="3.50881">
        <ele>768.71875</ele>
        <time>2020-10-29T09:32:28Z</time>
      </trkpt>
      <trkpt lat="43.76449" lon="3.50881">
        <ele>768.72265625</ele>
        <time>2020-10-29T09:32:36Z</time>
      </trkpt>
      <trkpt lat="43.76449" lon="3.50887">
        <ele>768.453125</ele>
        <time>2020-10-29T09:32:40Z</time>
      </trkpt>
      <trkpt lat="43.76449" lon="3.50896">
        <ele>768.05859375</ele>
        <time>2020-10-29T09:32:47Z</time>
      </trkpt>
      <trkpt lat="43.76452" lon="3.50909">
        <ele>767.015625</ele>
        <time>2020-10-29T09:32:59Z</time>
      </trkpt>
      <trkpt lat="43.76452" lon="3.50922">
        <ele>765.8515625</ele>
        <time>2020-10-29T09:33:10Z</time>
      </trkpt>
      <trkpt lat="43.76455" lon="3.50927">
        <ele>765.68359375</ele>
        <time>2020-10-29T09:33:18Z</time>
      </trkpt>
      <trkpt lat="43.76459" lon="3.50936">
        <ele>765.46484375</ele>
        <time>2020-10-29T09:33:28Z</time>
      </trkpt>
      <trkpt lat="43.76459" lon="3.50941">
        <ele>765.140625</ele>
        <time>2020-10-29T09:33:36Z</time>
      </trkpt>
      <trkpt lat="43.76459" lon="3.50941">
        <ele>765.05078125</ele>
        <time>2020-10-29T09:33:53Z</time>
      </trkpt>
      <trkpt lat="43.76458" lon="3.50945">
        <ele>764.703125</ele>
        <time>2020-10-29T09:34:00Z</time>
      </trkpt>
      <trkpt lat="43.76459" lon="3.50948">
        <ele>764.734375</ele>
        <time>2020-10-29T09:34:15Z</time>
      </trkpt>
      <trkpt lat="43.76463" lon="3.50955">
        <ele>764.83984375</ele>
        <time>2020-10-29T09:34:24Z</time>
      </trkpt>
      <trkpt lat="43.76465" lon="3.50957">
        <ele>764.9375</ele>
        <time>2020-10-29T09:34:27Z</time>
      </trkpt>
      <trkpt lat="43.76471" lon="3.50958">
        <ele>765.7734375</ele>
        <time>2020-10-29T09:34:35Z</time>
      </trkpt>
      <trkpt lat="43.76476" lon="3.50957">
        <ele>766.65625</ele>
        <time>2020-10-29T09:34:41Z</time>
      </trkpt>
      <trkpt lat="43.76483" lon="3.50959">
        <ele>767.57421875</ele>
        <time>2020-10-29T09:34:50Z</time>
      </trkpt>
      <trkpt lat="43.76489" lon="3.50965">
        <ele>767.9375</ele>
        <time>2020-10-29T09:34:59Z</time>
      </trkpt>
      <trkpt lat="43.76492" lon="3.50972">
        <ele>767.5546875</ele>
        <time>2020-10-29T09:35:07Z</time>
      </trkpt>
      <trkpt lat="43.76496" lon="3.50977">
        <ele>767.69921875</ele>
        <time>2020-10-29T09:35:13Z</time>
      </trkpt>
      <trkpt lat="43.76503" lon="3.50983">
        <ele>767.59375</ele>
        <time>2020-10-29T09:35:25Z</time>
      </trkpt>
      <trkpt lat="43.76504" lon="3.50985">
        <ele>767.359375</ele>
        <time>2020-10-29T09:35:36Z</time>
      </trkpt>
      <trkpt lat="43.76505" lon="3.50986">
        <ele>767.17578125</ele>
        <time>2020-10-29T09:35:45Z</time>
      </trkpt>
      <trkpt lat="43.76509" lon="3.50992">
        <ele>766.46484375</ele>
        <time>2020-10-29T09:35:54Z</time>
      </trkpt>
      <trkpt lat="43.76509" lon="3.50992">
        <ele>766.40234375</ele>
        <time>2020-10-29T09:35:55Z</time>
      </trkpt>
      <trkpt lat="43.76515" lon="3.50996">
        <ele>765.9296875</ele>
        <time>2020-10-29T09:36:04Z</time>
      </trkpt>
      <trkpt lat="43.76521" lon="3.51001">
        <ele>765.46484375</ele>
        <time>2020-10-29T09:36:15Z</time>
      </trkpt>
      <trkpt lat="43.76528" lon="3.51008">
        <ele>765.0390625</ele>
        <time>2020-10-29T09:36:26Z</time>
      </trkpt>
      <trkpt lat="43.76531" lon="3.51014">
        <ele>764.1171875</ele>
        <time>2020-10-29T09:36:35Z</time>
      </trkpt>
      <trkpt lat="43.76532" lon="3.51014">
        <ele>763.98046875</ele>
        <time>2020-10-29T09:36:36Z</time>
      </trkpt>
      <trkpt lat="43.76537" lon="3.51024">
        <ele>762.44921875</ele>
        <time>2020-10-29T09:36:46Z</time>
      </trkpt>
      <trkpt lat="43.76543" lon="3.51029">
        <ele>761.7734375</ele>
        <time>2020-10-29T09:36:56Z</time>
      </trkpt>
      <trkpt lat="43.76544" lon="3.51031">
        <ele>761.5390625</ele>
        <time>2020-10-29T09:36:59Z</time>
      </trkpt>
      <trkpt lat="43.76546" lon="3.51036">
        <ele>760.703125</ele>
        <time>2020-10-29T09:37:09Z</time>
      </trkpt>
      <trkpt lat="43.76549" lon="3.51044">
        <ele>759.5703125</ele>
        <time>2020-10-29T09:37:18Z</time>
      </trkpt>
      <trkpt lat="43.76551" lon="3.51056">
        <ele>757.91015625</ele>
        <time>2020-10-29T09:37:30Z</time>
      </trkpt>
      <trkpt lat="43.76551" lon="3.51057">
        <ele>757.79296875</ele>
        <time>2020-10-29T09:37:31Z</time>
      </trkpt>
      <trkpt lat="43.76555" lon="3.51065">
        <ele>756.6796875</ele>
        <time>2020-10-29T09:37:41Z</time>
      </trkpt>
      <trkpt lat="43.76558" lon="3.51074">
        <ele>754.828125</ele>
        <time>2020-10-29T09:37:52Z</time>
      </trkpt>
      <trkpt lat="43.76563" lon="3.51078">
        <ele>753.75390625</ele>
        <time>2020-10-29T09:38:02Z</time>
      </trkpt>
      <trkpt lat="43.76563" lon="3.51079">
        <ele>753.5234375</ele>
        <time>2020-10-29T09:38:04Z</time>
      </trkpt>
      <trkpt lat="43.76564" lon="3.51079">
        <ele>753.421875</ele>
        <time>2020-10-29T09:38:05Z</time>
      </trkpt>
      <trkpt lat="43.76568" lon="3.51085">
        <ele>752.06640625</ele>
        <time>2020-10-29T09:38:16Z</time>
      </trkpt>
      <trkpt lat="43.76574" lon="3.5109">
        <ele>750.81640625</ele>
        <time>2020-10-29T09:38:28Z</time>
      </trkpt>
      <trkpt lat="43.76583" lon="3.51094">
        <ele>749.55078125</ele>
        <time>2020-10-29T09:38:40Z</time>
      </trkpt>
      <trkpt lat="43.76592" lon="3.51102">
        <ele>747.76171875</ele>
        <time>2020-10-29T09:38:52Z</time>
      </trkpt>
      <trkpt lat="43.76595" lon="3.51109">
        <ele>746.4765625</ele>
        <time>2020-10-29T09:38:58Z</time>
      </trkpt>
      <trkpt lat="43.76601" lon="3.51122">
        <ele>744.03125</ele>
        <time>2020-10-29T09:39:09Z</time>
      </trkpt>
      <trkpt lat="43.76611" lon="3.51135">
        <ele>741.97265625</ele>
        <time>2020-10-29T09:39:21Z</time>
      </trkpt>
      <trkpt lat="43.76618" lon="3.51149">
        <ele>739.94921875</ele>
        <time>2020-10-29T09:39:33Z</time>
      </trkpt>
      <trkpt lat="43.76624" lon="3.51164">
        <ele>737.98828125</ele>
        <time>2020-10-29T09:39:45Z</time>
      </trkpt>
      <trkpt lat="43.76629" lon="3.51174">
        <ele>736.76171875</ele>
        <time>2020-10-29T09:39:55Z</time>
      </trkpt>
      <trkpt lat="43.76636" lon="3.51183">
        <ele>736.1484375</ele>
        <time>2020-10-29T09:40:05Z</time>
      </trkpt>
      <trkpt lat="43.76637" lon="3.51184">
        <ele>736.12890625</ele>
        <time>2020-10-29T09:40:06Z</time>
      </trkpt>
      <trkpt lat="43.76645" lon="3.51182">
        <ele>736.1015625</ele>
        <time>2020-10-29T09:40:14Z</time>
      </trkpt>
      <trkpt lat="43.7665" lon="3.5118">
        <ele>736.1171875</ele>
        <time>2020-10-29T09:40:20Z</time>
      </trkpt>
      <trkpt lat="43.76662" lon="3.51186">
        <ele>735.83984375</ele>
        <time>2020-10-29T09:40:33Z</time>
      </trkpt>
      <trkpt lat="43.76669" lon="3.51188">
        <ele>735.46484375</ele>
        <time>2020-10-29T09:40:42Z</time>
      </trkpt>
      <trkpt lat="43.76677" lon="3.51195">
        <ele>734.3359375</ele>
        <time>2020-10-29T09:40:52Z</time>
      </trkpt>
      <trkpt lat="43.76683" lon="3.51206">
        <ele>733.42578125</ele>
        <time>2020-10-29T09:41:02Z</time>
      </trkpt>
      <trkpt lat="43.7669" lon="3.51214">
        <ele>732.55859375</ele>
        <time>2020-10-29T09:41:11Z</time>
      </trkpt>
      <trkpt lat="43.76691" lon="3.51223">
        <ele>732.35546875</ele>
        <time>2020-10-29T09:41:19Z</time>
      </trkpt>
      <trkpt lat="43.76688" lon="3.51236">
        <ele>732.6875</ele>
        <time>2020-10-29T09:41:30Z</time>
      </trkpt>
      <trkpt lat="43.76685" lon="3.51245">
        <ele>732.8671875</ele>
        <time>2020-10-29T09:41:40Z</time>
      </trkpt>
      <trkpt lat="43.76683" lon="3.51256">
        <ele>732.9140625</ele>
        <time>2020-10-29T09:41:50Z</time>
      </trkpt>
      <trkpt lat="43.76683" lon="3.51265">
        <ele>732.79296875</ele>
        <time>2020-10-29T09:42:01Z</time>
      </trkpt>
      <trkpt lat="43.76683" lon="3.51272">
        <ele>732.68359375</ele>
        <time>2020-10-29T09:42:07Z</time>
      </trkpt>
      <trkpt lat="43.76686" lon="3.5128">
        <ele>732.29296875</ele>
        <time>2020-10-29T09:42:17Z</time>
      </trkpt>
      <trkpt lat="43.76687" lon="3.51281">
        <ele>732.234375</ele>
        <time>2020-10-29T09:42:18Z</time>
      </trkpt>
      <trkpt lat="43.7669" lon="3.51285">
        <ele>731.9453125</ele>
        <time>2020-10-29T09:42:22Z</time>
      </trkpt>
      <trkpt lat="43.76693" lon="3.51288">
        <ele>731.5234375</ele>
        <time>2020-10-29T09:42:26Z</time>
      </trkpt>
      <trkpt lat="43.76704" lon="3.51295">
        <ele>730.2890625</ele>
        <time>2020-10-29T09:42:39Z</time>
      </trkpt>
      <trkpt lat="43.76717" lon="3.51299">
        <ele>729.32421875</ele>
        <time>2020-10-29T09:42:52Z</time>
      </trkpt>
      <trkpt lat="43.76724" lon="3.51305">
        <ele>728.859375</ele>
        <time>2020-10-29T09:43:01Z</time>
      </trkpt>
      <trkpt lat="43.76735" lon="3.51313">
        <ele>728.42578125</ele>
        <time>2020-10-29T09:43:13Z</time>
      </trkpt>
      <trkpt lat="43.76741" lon="3.51316">
        <ele>728.265625</ele>
        <time>2020-10-29T09:43:21Z</time>
      </trkpt>
      <trkpt lat="43.76748" lon="3.5132">
        <ele>728.18359375</ele>
        <time>2020-10-29T09:43:30Z</time>
      </trkpt>
      <trkpt lat="43.76749" lon="3.5132">
        <ele>728.1796875</ele>
        <time>2020-10-29T09:43:32Z</time>
      </trkpt>
      <trkpt lat="43.76757" lon="3.51325">
        <ele>728.359375</ele>
        <time>2020-10-29T09:43:41Z</time>
      </trkpt>
      <trkpt lat="43.76763" lon="3.51333">
        <ele>728.984375</ele>
        <time>2020-10-29T09:43:51Z</time>
      </trkpt>
      <trkpt lat="43.76772" lon="3.5134">
        <ele>729.71484375</ele>
        <time>2020-10-29T09:44:01Z</time>
      </trkpt>
      <trkpt lat="43.76779" lon="3.51344">
        <ele>729.93359375</ele>
        <time>2020-10-29T09:44:11Z</time>
      </trkpt>
      <trkpt lat="43.76787" lon="3.51349">
        <ele>729.60546875</ele>
        <time>2020-10-29T09:44:21Z</time>
      </trkpt>
      <trkpt lat="43.76795" lon="3.51355">
        <ele>729.4609375</ele>
        <time>2020-10-29T09:44:31Z</time>
      </trkpt>
      <trkpt lat="43.76796" lon="3.51357">
        <ele>729.46484375</ele>
        <time>2020-10-29T09:44:34Z</time>
      </trkpt>
      <trkpt lat="43.76804" lon="3.51365">
        <ele>729.6015625</ele>
        <time>2020-10-29T09:44:44Z</time>
      </trkpt>
      <trkpt lat="43.76805" lon="3.51367">
        <ele>729.6484375</ele>
        <time>2020-10-29T09:44:46Z</time>
      </trkpt>
      <trkpt lat="43.76811" lon="3.51375">
        <ele>730.0390625</ele>
        <time>2020-10-29T09:44:55Z</time>
      </trkpt>
      <trkpt lat="43.76816" lon="3.51383">
        <ele>730.484375</ele>
        <time>2020-10-29T09:45:05Z</time>
      </trkpt>
      <trkpt lat="43.76819" lon="3.51383">
        <ele>730.578125</ele>
        <time>2020-10-29T09:45:09Z</time>
      </trkpt>
      <trkpt lat="43.7682" lon="3.51383">
        <ele>730.58984375</ele>
        <time>2020-10-29T09:45:10Z</time>
      </trkpt>
      <trkpt lat="43.76827" lon="3.51389">
        <ele>731.10546875</ele>
        <time>2020-10-29T09:45:19Z</time>
      </trkpt>
      <trkpt lat="43.76834" lon="3.51399">
        <ele>731.828125</ele>
        <time>2020-10-29T09:45:30Z</time>
      </trkpt>
      <trkpt lat="43.76838" lon="3.51409">
        <ele>730.953125</ele>
        <time>2020-10-29T09:45:40Z</time>
      </trkpt>
      <trkpt lat="43.7684" lon="3.51418">
        <ele>730.3984375</ele>
        <time>2020-10-29T09:45:50Z</time>
      </trkpt>
      <trkpt lat="43.76842" lon="3.51425">
        <ele>730.03515625</ele>
        <time>2020-10-29T09:45:58Z</time>
      </trkpt>
      <trkpt lat="43.76845" lon="3.5143">
        <ele>729.6953125</ele>
        <time>2020-10-29T09:46:05Z</time>
      </trkpt>
      <trkpt lat="43.76844" lon="3.5144">
        <ele>729.609375</ele>
        <time>2020-10-29T09:46:14Z</time>
      </trkpt>
      <trkpt lat="43.76843" lon="3.51443">
        <ele>729.62890625</ele>
        <time>2020-10-29T09:46:16Z</time>
      </trkpt>
      <trkpt lat="43.76843" lon="3.51449">
        <ele>729.51171875</ele>
        <time>2020-10-29T09:46:20Z</time>
      </trkpt>
      <trkpt lat="43.76843" lon="3.51452">
        <ele>729.48828125</ele>
        <time>2020-10-29T09:46:22Z</time>
      </trkpt>
      <trkpt lat="43.76841" lon="3.51467">
        <ele>729.3046875</ele>
        <time>2020-10-29T09:46:34Z</time>
      </trkpt>
      <trkpt lat="43.76836" lon="3.5148">
        <ele>729.046875</ele>
        <time>2020-10-29T09:46:45Z</time>
      </trkpt>
      <trkpt lat="43.76835" lon="3.51484">
        <ele>728.8828125</ele>
        <time>2020-10-29T09:46:49Z</time>
      </trkpt>
      <trkpt lat="43.7684" lon="3.51497">
        <ele>728.6953125</ele>
        <time>2020-10-29T09:46:59Z</time>
      </trkpt>
      <trkpt lat="43.76842" lon="3.515">
        <ele>728.7421875</ele>
        <time>2020-10-29T09:47:02Z</time>
      </trkpt>
      <trkpt lat="43.76844" lon="3.51509">
        <ele>728.74609375</ele>
        <time>2020-10-29T09:47:11Z</time>
      </trkpt>
      <trkpt lat="43.76846" lon="3.51523">
        <ele>728.8046875</ele>
        <time>2020-10-29T09:47:23Z</time>
      </trkpt>
      <trkpt lat="43.76848" lon="3.51526">
        <ele>728.9140625</ele>
        <time>2020-10-29T09:47:26Z</time>
      </trkpt>
      <trkpt lat="43.76852" lon="3.51536">
        <ele>729.171875</ele>
        <time>2020-10-29T09:47:35Z</time>
      </trkpt>
      <trkpt lat="43.76854" lon="3.51543">
        <ele>729.359375</ele>
        <time>2020-10-29T09:47:41Z</time>
      </trkpt>
      <trkpt lat="43.76856" lon="3.51553">
        <ele>729.54296875</ele>
        <time>2020-10-29T09:47:49Z</time>
      </trkpt>
      <trkpt lat="43.76857" lon="3.51554">
        <ele>729.59765625</ele>
        <time>2020-10-29T09:47:50Z</time>
      </trkpt>
      <trkpt lat="43.76859" lon="3.51556">
        <ele>729.75</ele>
        <time>2020-10-29T09:47:52Z</time>
      </trkpt>
      <trkpt lat="43.76862" lon="3.51564">
        <ele>730.1796875</ele>
        <time>2020-10-29T09:47:59Z</time>
      </trkpt>
      <trkpt lat="43.76872" lon="3.51573">
        <ele>731.88671875</ele>
        <time>2020-10-29T09:48:11Z</time>
      </trkpt>
      <trkpt lat="43.76882" lon="3.5158">
        <ele>733.3984375</ele>
        <time>2020-10-29T09:48:22Z</time>
      </trkpt>
      <trkpt lat="43.7689" lon="3.51584">
        <ele>734.4765625</ele>
        <time>2020-10-29T09:48:33Z</time>
      </trkpt>
      <trkpt lat="43.76898" lon="3.51587">
        <ele>734.62109375</ele>
        <time>2020-10-29T09:48:44Z</time>
      </trkpt>
      <trkpt lat="43.76904" lon="3.51591">
        <ele>734.94921875</ele>
        <time>2020-10-29T09:48:54Z</time>
      </trkpt>
      <trkpt lat="43.76905" lon="3.51594">
        <ele>735.25390625</ele>
        <time>2020-10-29T09:48:58Z</time>
      </trkpt>
      <trkpt lat="43.76909" lon="3.516">
        <ele>735.890625</ele>
        <time>2020-10-29T09:49:08Z</time>
      </trkpt>
      <trkpt lat="43.76913" lon="3.51604">
        <ele>736.30078125</ele>
        <time>2020-10-29T09:49:18Z</time>
      </trkpt>
      <trkpt lat="43.76914" lon="3.51609">
        <ele>736.8359375</ele>
        <time>2020-10-29T09:49:26Z</time>
      </trkpt>
      <trkpt lat="43.76917" lon="3.51612">
        <ele>737.28125</ele>
        <time>2020-10-29T09:49:32Z</time>
      </trkpt>
      <trkpt lat="43.76924" lon="3.51618">
        <ele>738.1640625</ele>
        <time>2020-10-29T09:49:43Z</time>
      </trkpt>
      <trkpt lat="43.76925" lon="3.51621">
        <ele>738.7265625</ele>
        <time>2020-10-29T09:49:47Z</time>
      </trkpt>
      <trkpt lat="43.76926" lon="3.51626">
        <ele>739.671875</ele>
        <time>2020-10-29T09:49:57Z</time>
      </trkpt>
      <trkpt lat="43.76926" lon="3.51634">
        <ele>741.06640625</ele>
        <time>2020-10-29T09:50:06Z</time>
      </trkpt>
      <trkpt lat="43.76928" lon="3.51641">
        <ele>742.5546875</ele>
        <time>2020-10-29T09:50:15Z</time>
      </trkpt>
      <trkpt lat="43.76934" lon="3.51646">
        <ele>743.8359375</ele>
        <time>2020-10-29T09:50:26Z</time>
      </trkpt>
      <trkpt lat="43.76935" lon="3.51652">
        <ele>744.9765625</ele>
        <time>2020-10-29T09:50:34Z</time>
      </trkpt>
      <trkpt lat="43.76938" lon="3.51657">
        <ele>746.0234375</ele>
        <time>2020-10-29T09:50:43Z</time>
      </trkpt>
      <trkpt lat="43.76941" lon="3.51662">
        <ele>747.3515625</ele>
        <time>2020-10-29T09:50:52Z</time>
      </trkpt>
      <trkpt lat="43.76941" lon="3.51665">
        <ele>747.921875</ele>
        <time>2020-10-29T09:51:01Z</time>
      </trkpt>
      <trkpt lat="43.76941" lon="3.51665">
        <ele>747.87109375</ele>
        <time>2020-10-29T09:51:13Z</time>
      </trkpt>
      <trkpt lat="43.76943" lon="3.51667">
        <ele>748.48046875</ele>
        <time>2020-10-29T09:51:21Z</time>
      </trkpt>
      <trkpt lat="43.7694" lon="3.51667">
        <ele>748.2578125</ele>
        <time>2020-10-29T09:51:28Z</time>
      </trkpt>
      <trkpt lat="43.76936" lon="3.51671">
        <ele>748.7421875</ele>
        <time>2020-10-29T09:51:35Z</time>
      </trkpt>
      <trkpt lat="43.76935" lon="3.51672">
        <ele>748.90234375</ele>
        <time>2020-10-29T09:51:43Z</time>
      </trkpt>
      <trkpt lat="43.76936" lon="3.51673">
        <ele>748.9765625</ele>
        <time>2020-10-29T09:52:07Z</time>
      </trkpt>
      <trkpt lat="43.76936" lon="3.51672">
        <ele>748.91796875</ele>
        <time>2020-10-29T09:52:29Z</time>
      </trkpt>
      <trkpt lat="43.76939" lon="3.51668">
        <ele>748.37109375</ele>
        <time>2020-10-29T09:52:37Z</time>
      </trkpt>
      <trkpt lat="43.76939" lon="3.51668">
        <ele>748.30078125</ele>
        <time>2020-10-29T09:52:38Z</time>
      </trkpt>
      <trkpt lat="43.76941" lon="3.51667">
        <ele>748.1640625</ele>
        <time>2020-10-29T09:52:41Z</time>
      </trkpt>
      <trkpt lat="43.76944" lon="3.5167">
        <ele>749.0703125</ele>
        <time>2020-10-29T09:52:48Z</time>
      </trkpt>
      <trkpt lat="43.76945" lon="3.5167">
        <ele>749.07421875</ele>
        <time>2020-10-29T09:52:52Z</time>
      </trkpt>
      <trkpt lat="43.7695" lon="3.51673">
        <ele>749.3984375</ele>
        <time>2020-10-29T09:52:58Z</time>
      </trkpt>
      <trkpt lat="43.76954" lon="3.51676">
        <ele>749.765625</ele>
        <time>2020-10-29T09:53:06Z</time>
      </trkpt>
      <trkpt lat="43.76955" lon="3.51675">
        <ele>749.67578125</ele>
        <time>2020-10-29T09:53:08Z</time>
      </trkpt>
      <trkpt lat="43.76957" lon="3.51675">
        <ele>749.578125</ele>
        <time>2020-10-29T09:53:11Z</time>
      </trkpt>
      <trkpt lat="43.76958" lon="3.51675">
        <ele>749.5546875</ele>
        <time>2020-10-29T09:53:13Z</time>
      </trkpt>
      <trkpt lat="43.76959" lon="3.51675">
        <ele>749.52734375</ele>
        <time>2020-10-29T09:53:14Z</time>
      </trkpt>
      <trkpt lat="43.7697" lon="3.51684">
        <ele>749.625</ele>
        <time>2020-10-29T09:53:26Z</time>
      </trkpt>
      <trkpt lat="43.76972" lon="3.51689">
        <ele>749.7890625</ele>
        <time>2020-10-29T09:53:34Z</time>
      </trkpt>
      <trkpt lat="43.76973" lon="3.5169">
        <ele>749.80859375</ele>
        <time>2020-10-29T09:53:39Z</time>
      </trkpt>
      <trkpt lat="43.76974" lon="3.51697">
        <ele>750.09375</ele>
        <time>2020-10-29T09:53:47Z</time>
      </trkpt>
      <trkpt lat="43.76974" lon="3.51705">
        <ele>750.4609375</ele>
        <time>2020-10-29T09:53:57Z</time>
      </trkpt>
      <trkpt lat="43.76973" lon="3.51712">
        <ele>750.9453125</ele>
        <time>2020-10-29T09:54:06Z</time>
      </trkpt>
      <trkpt lat="43.76971" lon="3.51718">
        <ele>751.421875</ele>
        <time>2020-10-29T09:54:16Z</time>
      </trkpt>
      <trkpt lat="43.76969" lon="3.51724">
        <ele>751.9609375</ele>
        <time>2020-10-29T09:54:25Z</time>
      </trkpt>
      <trkpt lat="43.76968" lon="3.51729">
        <ele>752.38671875</ele>
        <time>2020-10-29T09:54:34Z</time>
      </trkpt>
      <trkpt lat="43.76966" lon="3.51737">
        <ele>751.734375</ele>
        <time>2020-10-29T09:54:45Z</time>
      </trkpt>
      <trkpt lat="43.76964" lon="3.51745">
        <ele>750.7265625</ele>
        <time>2020-10-29T09:54:54Z</time>
      </trkpt>
      <trkpt lat="43.76964" lon="3.51753">
        <ele>749.7578125</ele>
        <time>2020-10-29T09:55:04Z</time>
      </trkpt>
      <trkpt lat="43.76968" lon="3.51756">
        <ele>748.89453125</ele>
        <time>2020-10-29T09:55:13Z</time>
      </trkpt>
      <trkpt lat="43.76973" lon="3.51756">
        <ele>748.34765625</ele>
        <time>2020-10-29T09:55:23Z</time>
      </trkpt>
      <trkpt lat="43.76973" lon="3.51761">
        <ele>747.6640625</ele>
        <time>2020-10-29T09:55:31Z</time>
      </trkpt>
      <trkpt lat="43.76978" lon="3.51763">
        <ele>746.95703125</ele>
        <time>2020-10-29T09:55:41Z</time>
      </trkpt>
      <trkpt lat="43.7698" lon="3.51766">
        <ele>746.33984375</ele>
        <time>2020-10-29T09:55:50Z</time>
      </trkpt>
      <trkpt lat="43.76981" lon="3.51772">
        <ele>745.5859375</ele>
        <time>2020-10-29T09:55:59Z</time>
      </trkpt>
      <trkpt lat="43.76981" lon="3.51773">
        <ele>745.3984375</ele>
        <time>2020-10-29T09:56:00Z</time>
      </trkpt>
      <trkpt lat="43.76983" lon="3.51783">
        <ele>743.9375</ele>
        <time>2020-10-29T09:56:10Z</time>
      </trkpt>
      <trkpt lat="43.76985" lon="3.51789">
        <ele>742.6640625</ele>
        <time>2020-10-29T09:56:19Z</time>
      </trkpt>
      <trkpt lat="43.76991" lon="3.51797">
        <ele>740.3984375</ele>
        <time>2020-10-29T09:56:29Z</time>
      </trkpt>
      <trkpt lat="43.76997" lon="3.51806">
        <ele>738.140625</ele>
        <time>2020-10-29T09:56:39Z</time>
      </trkpt>
      <trkpt lat="43.76999" lon="3.51808">
        <ele>737.6640625</ele>
        <time>2020-10-29T09:56:41Z</time>
      </trkpt>
      <trkpt lat="43.77008" lon="3.51818">
        <ele>734.875</ele>
        <time>2020-10-29T09:56:52Z</time>
      </trkpt>
      <trkpt lat="43.77014" lon="3.51815">
        <ele>734.60546875</ele>
        <time>2020-10-29T09:57:02Z</time>
      </trkpt>
      <trkpt lat="43.77015" lon="3.51815">
        <ele>734.45703125</ele>
        <time>2020-10-29T09:57:04Z</time>
      </trkpt>
      <trkpt lat="43.77021" lon="3.51819">
        <ele>733.4140625</ele>
        <time>2020-10-29T09:57:13Z</time>
      </trkpt>
      <trkpt lat="43.77024" lon="3.51823">
        <ele>732.796875</ele>
        <time>2020-10-29T09:57:20Z</time>
      </trkpt>
      <trkpt lat="43.77025" lon="3.51825">
        <ele>732.4453125</ele>
        <time>2020-10-29T09:57:25Z</time>
      </trkpt>
      <trkpt lat="43.77027" lon="3.5183">
        <ele>731.91015625</ele>
        <time>2020-10-29T09:57:33Z</time>
      </trkpt>
      <trkpt lat="43.77027" lon="3.51839">
        <ele>731.203125</ele>
        <time>2020-10-29T09:57:41Z</time>
      </trkpt>
      <trkpt lat="43.77027" lon="3.51843">
        <ele>730.7578125</ele>
        <time>2020-10-29T09:57:45Z</time>
      </trkpt>
      <trkpt lat="43.77031" lon="3.51858">
        <ele>729.2578125</ele>
        <time>2020-10-29T09:57:57Z</time>
      </trkpt>
      <trkpt lat="43.77035" lon="3.51865">
        <ele>728.81640625</ele>
        <time>2020-10-29T09:58:05Z</time>
      </trkpt>
      <trkpt lat="43.7704" lon="3.51868">
        <ele>729.1015625</ele>
        <time>2020-10-29T09:58:14Z</time>
      </trkpt>
      <trkpt lat="43.77045" lon="3.51872">
        <ele>729.28125</ele>
        <time>2020-10-29T09:58:23Z</time>
      </trkpt>
      <trkpt lat="43.77048" lon="3.51876">
        <ele>729.5</ele>
        <time>2020-10-29T09:58:30Z</time>
      </trkpt>
      <trkpt lat="43.77049" lon="3.51876">
        <ele>729.58203125</ele>
        <time>2020-10-29T09:58:31Z</time>
      </trkpt>
      <trkpt lat="43.77052" lon="3.51883">
        <ele>729.80859375</ele>
        <time>2020-10-29T09:58:40Z</time>
      </trkpt>
      <trkpt lat="43.77053" lon="3.51889">
        <ele>729.8125</ele>
        <time>2020-10-29T09:58:48Z</time>
      </trkpt>
      <trkpt lat="43.77057" lon="3.51893">
        <ele>730.15625</ele>
        <time>2020-10-29T09:58:55Z</time>
      </trkpt>
      <trkpt lat="43.77062" lon="3.51901">
        <ele>730.12890625</ele>
        <time>2020-10-29T09:59:04Z</time>
      </trkpt>
      <trkpt lat="43.77065" lon="3.51903">
        <ele>730.171875</ele>
        <time>2020-10-29T09:59:09Z</time>
      </trkpt>
      <trkpt lat="43.77071" lon="3.51904">
        <ele>730.5625</ele>
        <time>2020-10-29T09:59:19Z</time>
      </trkpt>
      <trkpt lat="43.77077" lon="3.51902">
        <ele>731.16015625</ele>
        <time>2020-10-29T09:59:27Z</time>
      </trkpt>
      <trkpt lat="43.77082" lon="3.51898">
        <ele>731.79296875</ele>
        <time>2020-10-29T09:59:36Z</time>
      </trkpt>
      <trkpt lat="43.77088" lon="3.51893">
        <ele>732.10546875</ele>
        <time>2020-10-29T09:59:45Z</time>
      </trkpt>
      <trkpt lat="43.77093" lon="3.51888">
        <ele>732.10546875</ele>
        <time>2020-10-29T09:59:53Z</time>
      </trkpt>
      <trkpt lat="43.77097" lon="3.51881">
        <ele>731.8359375</ele>
        <time>2020-10-29T10:00:00Z</time>
      </trkpt>
      <trkpt lat="43.77105" lon="3.51877">
        <ele>731.72265625</ele>
        <time>2020-10-29T10:00:09Z</time>
      </trkpt>
      <trkpt lat="43.77112" lon="3.51876">
        <ele>731.59375</ele>
        <time>2020-10-29T10:00:17Z</time>
      </trkpt>
      <trkpt lat="43.77119" lon="3.51876">
        <ele>731.07421875</ele>
        <time>2020-10-29T10:00:23Z</time>
      </trkpt>
      <trkpt lat="43.77125" lon="3.51879">
        <ele>730.75390625</ele>
        <time>2020-10-29T10:00:32Z</time>
      </trkpt>
      <trkpt lat="43.77131" lon="3.51878">
        <ele>730.1484375</ele>
        <time>2020-10-29T10:00:40Z</time>
      </trkpt>
      <trkpt lat="43.77139" lon="3.5188">
        <ele>729.68359375</ele>
        <time>2020-10-29T10:00:50Z</time>
      </trkpt>
      <trkpt lat="43.77139" lon="3.51881">
        <ele>729.7421875</ele>
        <time>2020-10-29T10:00:51Z</time>
      </trkpt>
      <trkpt lat="43.77145" lon="3.51882">
        <ele>729.3046875</ele>
        <time>2020-10-29T10:00:59Z</time>
      </trkpt>
      <trkpt lat="43.77153" lon="3.51883">
        <ele>728.72265625</ele>
        <time>2020-10-29T10:01:09Z</time>
      </trkpt>
      <trkpt lat="43.77159" lon="3.51881">
        <ele>727.96484375</ele>
        <time>2020-10-29T10:01:17Z</time>
      </trkpt>
      <trkpt lat="43.77162" lon="3.51882">
        <ele>727.828125</ele>
        <time>2020-10-29T10:01:21Z</time>
      </trkpt>
      <trkpt lat="43.77167" lon="3.51884">
        <ele>727.59375</ele>
        <time>2020-10-29T10:01:26Z</time>
      </trkpt>
      <trkpt lat="43.77169" lon="3.51886">
        <ele>727.62890625</ele>
        <time>2020-10-29T10:01:29Z</time>
      </trkpt>
      <trkpt lat="43.77179" lon="3.51888">
        <ele>726.87109375</ele>
        <time>2020-10-29T10:01:39Z</time>
      </trkpt>
      <trkpt lat="43.77187" lon="3.51888">
        <ele>726.1875</ele>
        <time>2020-10-29T10:01:49Z</time>
      </trkpt>
      <trkpt lat="43.77191" lon="3.51888">
        <ele>725.8046875</ele>
        <time>2020-10-29T10:01:54Z</time>
      </trkpt>
      <trkpt lat="43.77194" lon="3.51888">
        <ele>725.5703125</ele>
        <time>2020-10-29T10:01:57Z</time>
      </trkpt>
      <trkpt lat="43.77201" lon="3.51888">
        <ele>724.9296875</ele>
        <time>2020-10-29T10:02:06Z</time>
      </trkpt>
      <trkpt lat="43.77203" lon="3.5189">
        <ele>725.0078125</ele>
        <time>2020-10-29T10:02:15Z</time>
      </trkpt>
      <trkpt lat="43.77204" lon="3.51893">
        <ele>725.21875</ele>
        <time>2020-10-29T10:02:22Z</time>
      </trkpt>
      <trkpt lat="43.77204" lon="3.51893">
        <ele>725.23828125</ele>
        <time>2020-10-29T10:02:26Z</time>
      </trkpt>
      <trkpt lat="43.77207" lon="3.51894">
        <ele>725.0859375</ele>
        <time>2020-10-29T10:02:36Z</time>
      </trkpt>
      <trkpt lat="43.7721" lon="3.51893">
        <ele>724.69921875</ele>
        <time>2020-10-29T10:02:45Z</time>
      </trkpt>
      <trkpt lat="43.77209" lon="3.51893">
        <ele>724.6953125</ele>
        <time>2020-10-29T10:02:59Z</time>
      </trkpt>
      <trkpt lat="43.77209" lon="3.51893">
        <ele>724.73046875</ele>
        <time>2020-10-29T10:03:19Z</time>
      </trkpt>
      <trkpt lat="43.77209" lon="3.51893">
        <ele>724.734375</ele>
        <time>2020-10-29T10:03:36Z</time>
      </trkpt>
      <trkpt lat="43.77209" lon="3.51892">
        <ele>724.62109375</ele>
        <time>2020-10-29T10:03:58Z</time>
      </trkpt>
      <trkpt lat="43.77209" lon="3.51892">
        <ele>724.65234375</ele>
        <time>2020-10-29T10:04:16Z</time>
      </trkpt>
      <trkpt lat="43.77209" lon="3.51891">
        <ele>724.60546875</ele>
        <time>2020-10-29T10:04:38Z</time>
      </trkpt>
      <trkpt lat="43.77209" lon="3.51891">
        <ele>724.59375</ele>
        <time>2020-10-29T10:04:53Z</time>
      </trkpt>
      <trkpt lat="43.77209" lon="3.51894">
        <ele>724.8203125</ele>
        <time>2020-10-29T10:05:05Z</time>
      </trkpt>
      <trkpt lat="43.77209" lon="3.51894">
        <ele>724.88671875</ele>
        <time>2020-10-29T10:05:23Z</time>
      </trkpt>
      <trkpt lat="43.7721" lon="3.51895">
        <ele>724.921875</ele>
        <time>2020-10-29T10:05:46Z</time>
      </trkpt>
      <trkpt lat="43.77212" lon="3.51901">
        <ele>724.77734375</ele>
        <time>2020-10-29T10:05:53Z</time>
      </trkpt>
      <trkpt lat="43.77212" lon="3.51902">
        <ele>724.73828125</ele>
        <time>2020-10-29T10:05:54Z</time>
      </trkpt>
      <trkpt lat="43.77213" lon="3.51905">
        <ele>724.62890625</ele>
        <time>2020-10-29T10:05:56Z</time>
      </trkpt>
      <trkpt lat="43.77217" lon="3.5192">
        <ele>723.95703125</ele>
        <time>2020-10-29T10:06:08Z</time>
      </trkpt>
      <trkpt lat="43.7722" lon="3.5193">
        <ele>723.4921875</ele>
        <time>2020-10-29T10:06:18Z</time>
      </trkpt>
      <trkpt lat="43.77221" lon="3.51937">
        <ele>723.3125</ele>
        <time>2020-10-29T10:06:24Z</time>
      </trkpt>
      <trkpt lat="43.77225" lon="3.51947">
        <ele>723.58203125</ele>
        <time>2020-10-29T10:06:33Z</time>
      </trkpt>
      <trkpt lat="43.77227" lon="3.51953">
        <ele>723.5859375</ele>
        <time>2020-10-29T10:06:38Z</time>
      </trkpt>
      <trkpt lat="43.77231" lon="3.51961">
        <ele>722.91015625</ele>
        <time>2020-10-29T10:06:46Z</time>
      </trkpt>
      <trkpt lat="43.77235" lon="3.51969">
        <ele>722.42578125</ele>
        <time>2020-10-29T10:06:54Z</time>
      </trkpt>
      <trkpt lat="43.77238" lon="3.51972">
        <ele>722.2734375</ele>
        <time>2020-10-29T10:06:58Z</time>
      </trkpt>
      <trkpt lat="43.77238" lon="3.51973">
        <ele>722.28515625</ele>
        <time>2020-10-29T10:06:59Z</time>
      </trkpt>
      <trkpt lat="43.77245" lon="3.51976">
        <ele>722.8828125</ele>
        <time>2020-10-29T10:07:07Z</time>
      </trkpt>
      <trkpt lat="43.77252" lon="3.5198">
        <ele>723.4140625</ele>
        <time>2020-10-29T10:07:16Z</time>
      </trkpt>
      <trkpt lat="43.77259" lon="3.51985">
        <ele>723.69921875</ele>
        <time>2020-10-29T10:07:26Z</time>
      </trkpt>
      <trkpt lat="43.77266" lon="3.5199">
        <ele>724.0859375</ele>
        <time>2020-10-29T10:07:35Z</time>
      </trkpt>
      <trkpt lat="43.77272" lon="3.51995">
        <ele>724.15625</ele>
        <time>2020-10-29T10:07:44Z</time>
      </trkpt>
      <trkpt lat="43.77272" lon="3.52002">
        <ele>723.16796875</ele>
        <time>2020-10-29T10:07:52Z</time>
      </trkpt>
      <trkpt lat="43.77272" lon="3.52012">
        <ele>721.3515625</ele>
        <time>2020-10-29T10:08:03Z</time>
      </trkpt>
      <trkpt lat="43.77272" lon="3.52022">
        <ele>719.51953125</ele>
        <time>2020-10-29T10:08:14Z</time>
      </trkpt>
      <trkpt lat="43.77272" lon="3.52025">
        <ele>718.98046875</ele>
        <time>2020-10-29T10:08:17Z</time>
      </trkpt>
      <trkpt lat="43.77266" lon="3.52026">
        <ele>717.65625</ele>
        <time>2020-10-29T10:08:26Z</time>
      </trkpt>
      <trkpt lat="43.77264" lon="3.52032">
        <ele>716.10546875</ele>
        <time>2020-10-29T10:08:35Z</time>
      </trkpt>
      <trkpt lat="43.77262" lon="3.52037">
        <ele>714.71875</ele>
        <time>2020-10-29T10:08:43Z</time>
      </trkpt>
      <trkpt lat="43.7726" lon="3.52045">
        <ele>712.84375</ele>
        <time>2020-10-29T10:08:52Z</time>
      </trkpt>
      <trkpt lat="43.77258" lon="3.52052">
        <ele>711.0625</ele>
        <time>2020-10-29T10:09:01Z</time>
      </trkpt>
      <trkpt lat="43.77253" lon="3.52056">
        <ele>709.11328125</ele>
        <time>2020-10-29T10:09:12Z</time>
      </trkpt>
      <trkpt lat="43.77247" lon="3.52057">
        <ele>707.8671875</ele>
        <time>2020-10-29T10:09:22Z</time>
      </trkpt>
      <trkpt lat="43.77243" lon="3.52059">
        <ele>706.3828125</ele>
        <time>2020-10-29T10:09:31Z</time>
      </trkpt>
      <trkpt lat="43.77238" lon="3.52061">
        <ele>705.09375</ele>
        <time>2020-10-29T10:09:41Z</time>
      </trkpt>
      <trkpt lat="43.77234" lon="3.52066">
        <ele>703.2578125</ele>
        <time>2020-10-29T10:09:52Z</time>
      </trkpt>
      <trkpt lat="43.77232" lon="3.52069">
        <ele>702.23828125</ele>
        <time>2020-10-29T10:10:01Z</time>
      </trkpt>
      <trkpt lat="43.77229" lon="3.52077">
        <ele>700.5625</ele>
        <time>2020-10-29T10:10:11Z</time>
      </trkpt>
      <trkpt lat="43.77226" lon="3.52085">
        <ele>698.79296875</ele>
        <time>2020-10-29T10:10:20Z</time>
      </trkpt>
      <trkpt lat="43.77225" lon="3.52095">
        <ele>697.10546875</ele>
        <time>2020-10-29T10:10:29Z</time>
      </trkpt>
      <trkpt lat="43.77227" lon="3.52104">
        <ele>696.25390625</ele>
        <time>2020-10-29T10:10:37Z</time>
      </trkpt>
      <trkpt lat="43.77226" lon="3.52112">
        <ele>695.0859375</ele>
        <time>2020-10-29T10:10:46Z</time>
      </trkpt>
      <trkpt lat="43.77225" lon="3.52117">
        <ele>694.01953125</ele>
        <time>2020-10-29T10:10:54Z</time>
      </trkpt>
      <trkpt lat="43.77225" lon="3.52126">
        <ele>693.421875</ele>
        <time>2020-10-29T10:11:03Z</time>
      </trkpt>
      <trkpt lat="43.77223" lon="3.52133">
        <ele>692.6796875</ele>
        <time>2020-10-29T10:11:10Z</time>
      </trkpt>
      <trkpt lat="43.7722" lon="3.52137">
        <ele>691.90625</ele>
        <time>2020-10-29T10:11:14Z</time>
      </trkpt>
      <trkpt lat="43.77214" lon="3.52147">
        <ele>690.0390625</ele>
        <time>2020-10-29T10:11:24Z</time>
      </trkpt>
      <trkpt lat="43.77209" lon="3.52153">
        <ele>688.3984375</ele>
        <time>2020-10-29T10:11:33Z</time>
      </trkpt>
      <trkpt lat="43.77205" lon="3.52162">
        <ele>686.92578125</ele>
        <time>2020-10-29T10:11:42Z</time>
      </trkpt>
      <trkpt lat="43.772" lon="3.52169">
        <ele>685.140625</ele>
        <time>2020-10-29T10:11:51Z</time>
      </trkpt>
      <trkpt lat="43.77197" lon="3.52174">
        <ele>683.8046875</ele>
        <time>2020-10-29T10:12:00Z</time>
      </trkpt>
      <trkpt lat="43.77196" lon="3.52181">
        <ele>682.7734375</ele>
        <time>2020-10-29T10:12:11Z</time>
      </trkpt>
      <trkpt lat="43.77201" lon="3.52187">
        <ele>683.69921875</ele>
        <time>2020-10-29T10:12:21Z</time>
      </trkpt>
      <trkpt lat="43.77205" lon="3.52191">
        <ele>684.23828125</ele>
        <time>2020-10-29T10:12:30Z</time>
      </trkpt>
      <trkpt lat="43.77205" lon="3.52197">
        <ele>683.53515625</ele>
        <time>2020-10-29T10:12:37Z</time>
      </trkpt>
      <trkpt lat="43.77206" lon="3.52203">
        <ele>683.08203125</ele>
        <time>2020-10-29T10:12:48Z</time>
      </trkpt>
      <trkpt lat="43.77209" lon="3.52205">
        <ele>683.69140625</ele>
        <time>2020-10-29T10:12:56Z</time>
      </trkpt>
      <trkpt lat="43.77212" lon="3.52212">
        <ele>683.41015625</ele>
        <time>2020-10-29T10:13:04Z</time>
      </trkpt>
      <trkpt lat="43.77216" lon="3.52218">
        <ele>683.48828125</ele>
        <time>2020-10-29T10:13:13Z</time>
      </trkpt>
      <trkpt lat="43.7722" lon="3.52224">
        <ele>683.5390625</ele>
        <time>2020-10-29T10:13:23Z</time>
      </trkpt>
      <trkpt lat="43.77221" lon="3.52229">
        <ele>682.94140625</ele>
        <time>2020-10-29T10:13:31Z</time>
      </trkpt>
      <trkpt lat="43.77224" lon="3.52234">
        <ele>682.46484375</ele>
        <time>2020-10-29T10:13:39Z</time>
      </trkpt>
      <trkpt lat="43.77227" lon="3.52237">
        <ele>682.05859375</ele>
        <time>2020-10-29T10:13:45Z</time>
      </trkpt>
      <trkpt lat="43.7723" lon="3.52243">
        <ele>680.91796875</ele>
        <time>2020-10-29T10:13:54Z</time>
      </trkpt>
      <trkpt lat="43.77233" lon="3.5225">
        <ele>679.640625</ele>
        <time>2020-10-29T10:14:05Z</time>
      </trkpt>
      <trkpt lat="43.77238" lon="3.52256">
        <ele>678.94140625</ele>
        <time>2020-10-29T10:14:16Z</time>
      </trkpt>
      <trkpt lat="43.77244" lon="3.52257">
        <ele>679.16015625</ele>
        <time>2020-10-29T10:14:26Z</time>
      </trkpt>
      <trkpt lat="43.77251" lon="3.52257">
        <ele>679.9453125</ele>
        <time>2020-10-29T10:14:36Z</time>
      </trkpt>
      <trkpt lat="43.77258" lon="3.52261">
        <ele>679.828125</ele>
        <time>2020-10-29T10:14:47Z</time>
      </trkpt>
      <trkpt lat="43.77263" lon="3.52266">
        <ele>679.17578125</ele>
        <time>2020-10-29T10:14:58Z</time>
      </trkpt>
      <trkpt lat="43.7727" lon="3.52274">
        <ele>677.6171875</ele>
        <time>2020-10-29T10:15:11Z</time>
      </trkpt>
      <trkpt lat="43.77277" lon="3.52281">
        <ele>676.34375</ele>
        <time>2020-10-29T10:15:22Z</time>
      </trkpt>
      <trkpt lat="43.77282" lon="3.52286">
        <ele>675.26171875</ele>
        <time>2020-10-29T10:15:31Z</time>
      </trkpt>
      <trkpt lat="43.77287" lon="3.5229">
        <ele>674.33984375</ele>
        <time>2020-10-29T10:15:39Z</time>
      </trkpt>
      <trkpt lat="43.77293" lon="3.52294">
        <ele>673.625</ele>
        <time>2020-10-29T10:15:49Z</time>
      </trkpt>
      <trkpt lat="43.77297" lon="3.52296">
        <ele>673.4765625</ele>
        <time>2020-10-29T10:15:57Z</time>
      </trkpt>
      <trkpt lat="43.77301" lon="3.52302">
        <ele>672.046875</ele>
        <time>2020-10-29T10:16:07Z</time>
      </trkpt>
      <trkpt lat="43.77301" lon="3.52313">
        <ele>668.875</ele>
        <time>2020-10-29T10:16:18Z</time>
      </trkpt>
      <trkpt lat="43.773" lon="3.52324">
        <ele>665.52734375</ele>
        <time>2020-10-29T10:16:28Z</time>
      </trkpt>
      <trkpt lat="43.77301" lon="3.52336">
        <ele>662.23046875</ele>
        <time>2020-10-29T10:16:39Z</time>
      </trkpt>
      <trkpt lat="43.77299" lon="3.52343">
        <ele>660.109375</ele>
        <time>2020-10-29T10:16:49Z</time>
      </trkpt>
      <trkpt lat="43.77302" lon="3.52349">
        <ele>659.015625</ele>
        <time>2020-10-29T10:16:57Z</time>
      </trkpt>
      <trkpt lat="43.77302" lon="3.5235">
        <ele>658.859375</ele>
        <time>2020-10-29T10:16:58Z</time>
      </trkpt>
      <trkpt lat="43.77303" lon="3.52353">
        <ele>658.28515625</ele>
        <time>2020-10-29T10:17:01Z</time>
      </trkpt>
      <trkpt lat="43.77305" lon="3.52361">
        <ele>656.75</ele>
        <time>2020-10-29T10:17:10Z</time>
      </trkpt>
      <trkpt lat="43.77306" lon="3.52368">
        <ele>655.6015625</ele>
        <time>2020-10-29T10:17:19Z</time>
      </trkpt>
      <trkpt lat="43.77306" lon="3.5237">
        <ele>655.23828125</ele>
        <time>2020-10-29T10:17:29Z</time>
      </trkpt>
      <trkpt lat="43.77307" lon="3.52371">
        <ele>655.05078125</ele>
        <time>2020-10-29T10:17:40Z</time>
      </trkpt>
      <trkpt lat="43.77307" lon="3.52376">
        <ele>653.9609375</ele>
        <time>2020-10-29T10:17:50Z</time>
      </trkpt>
      <trkpt lat="43.77307" lon="3.52376">
        <ele>653.9375</ele>
        <time>2020-10-29T10:18:00Z</time>
      </trkpt>
      <trkpt lat="43.77307" lon="3.52376">
        <ele>653.91015625</ele>
        <time>2020-10-29T10:18:21Z</time>
      </trkpt>
      <trkpt lat="43.77308" lon="3.5238">
        <ele>653.3125</ele>
        <time>2020-10-29T10:18:34Z</time>
      </trkpt>
      <trkpt lat="43.77312" lon="3.52392">
        <ele>651.6953125</ele>
        <time>2020-10-29T10:18:48Z</time>
      </trkpt>
      <trkpt lat="43.77316" lon="3.52398">
        <ele>651.609375</ele>
        <time>2020-10-29T10:18:57Z</time>
      </trkpt>
      <trkpt lat="43.7732" lon="3.52404">
        <ele>651.296875</ele>
        <time>2020-10-29T10:19:06Z</time>
      </trkpt>
      <trkpt lat="43.77325" lon="3.52412">
        <ele>650.80859375</ele>
        <time>2020-10-29T10:19:17Z</time>
      </trkpt>
      <trkpt lat="43.77329" lon="3.52417">
        <ele>650.57421875</ele>
        <time>2020-10-29T10:19:26Z</time>
      </trkpt>
      <trkpt lat="43.77332" lon="3.52425">
        <ele>649.6015625</ele>
        <time>2020-10-29T10:19:36Z</time>
      </trkpt>
      <trkpt lat="43.77333" lon="3.52433">
        <ele>648.015625</ele>
        <time>2020-10-29T10:19:45Z</time>
      </trkpt>
      <trkpt lat="43.77334" lon="3.52438">
        <ele>647.30078125</ele>
        <time>2020-10-29T10:19:57Z</time>
      </trkpt>
      <trkpt lat="43.77336" lon="3.52438">
        <ele>647.62109375</ele>
        <time>2020-10-29T10:20:18Z</time>
      </trkpt>
      <trkpt lat="43.77336" lon="3.52437">
        <ele>647.76171875</ele>
        <time>2020-10-29T10:20:32Z</time>
      </trkpt>
      <trkpt lat="43.77335" lon="3.52438">
        <ele>647.578125</ele>
        <time>2020-10-29T10:20:45Z</time>
      </trkpt>
      <trkpt lat="43.77334" lon="3.52439">
        <ele>647.06640625</ele>
        <time>2020-10-29T10:21:07Z</time>
      </trkpt>
      <trkpt lat="43.77334" lon="3.52439">
        <ele>647.03515625</ele>
        <time>2020-10-29T10:21:37Z</time>
      </trkpt>
      <trkpt lat="43.77333" lon="3.52441">
        <ele>646.2265625</ele>
        <time>2020-10-29T10:22:11Z</time>
      </trkpt>
      <trkpt lat="43.77332" lon="3.52444">
        <ele>645.54296875</ele>
        <time>2020-10-29T10:22:21Z</time>
      </trkpt>
      <trkpt lat="43.7733" lon="3.5245">
        <ele>644.01171875</ele>
        <time>2020-10-29T10:22:32Z</time>
      </trkpt>
      <trkpt lat="43.77329" lon="3.52459">
        <ele>642.68359375</ele>
        <time>2020-10-29T10:22:44Z</time>
      </trkpt>
      <trkpt lat="43.77327" lon="3.52469">
        <ele>641.1484375</ele>
        <time>2020-10-29T10:22:56Z</time>
      </trkpt>
      <trkpt lat="43.77323" lon="3.5248">
        <ele>639.125</ele>
        <time>2020-10-29T10:23:06Z</time>
      </trkpt>
      <trkpt lat="43.77319" lon="3.52489">
        <ele>637.20703125</ele>
        <time>2020-10-29T10:23:16Z</time>
      </trkpt>
      <trkpt lat="43.77316" lon="3.52498">
        <ele>635.5703125</ele>
        <time>2020-10-29T10:23:25Z</time>
      </trkpt>
      <trkpt lat="43.77315" lon="3.52511">
        <ele>633.8984375</ele>
        <time>2020-10-29T10:23:35Z</time>
      </trkpt>
      <trkpt lat="43.77311" lon="3.52523">
        <ele>632.3046875</ele>
        <time>2020-10-29T10:23:46Z</time>
      </trkpt>
      <trkpt lat="43.77309" lon="3.52536">
        <ele>631.0625</ele>
        <time>2020-10-29T10:23:57Z</time>
      </trkpt>
      <trkpt lat="43.77309" lon="3.52546">
        <ele>630.29296875</ele>
        <time>2020-10-29T10:24:07Z</time>
      </trkpt>
      <trkpt lat="43.77307" lon="3.52553">
        <ele>628.86328125</ele>
        <time>2020-10-29T10:24:15Z</time>
      </trkpt>
      <trkpt lat="43.77305" lon="3.52565">
        <ele>627.4140625</ele>
        <time>2020-10-29T10:24:25Z</time>
      </trkpt>
      <trkpt lat="43.77305" lon="3.52574">
        <ele>626.80859375</ele>
        <time>2020-10-29T10:24:35Z</time>
      </trkpt>
      <trkpt lat="43.77304" lon="3.52584">
        <ele>625.828125</ele>
        <time>2020-10-29T10:24:45Z</time>
      </trkpt>
      <trkpt lat="43.77304" lon="3.52593">
        <ele>625.56640625</ele>
        <time>2020-10-29T10:24:54Z</time>
      </trkpt>
      <trkpt lat="43.77306" lon="3.52598">
        <ele>626.484375</ele>
        <time>2020-10-29T10:25:03Z</time>
      </trkpt>
      <trkpt lat="43.77308" lon="3.52607">
        <ele>627.03515625</ele>
        <time>2020-10-29T10:25:13Z</time>
      </trkpt>
      <trkpt lat="43.77309" lon="3.52615">
        <ele>627.18359375</ele>
        <time>2020-10-29T10:25:22Z</time>
      </trkpt>
      <trkpt lat="43.7731" lon="3.52623">
        <ele>626.828125</ele>
        <time>2020-10-29T10:25:30Z</time>
      </trkpt>
      <trkpt lat="43.77314" lon="3.52628">
        <ele>627.75390625</ele>
        <time>2020-10-29T10:25:36Z</time>
      </trkpt>
      <trkpt lat="43.77317" lon="3.52636">
        <ele>628.08984375</ele>
        <time>2020-10-29T10:25:45Z</time>
      </trkpt>
      <trkpt lat="43.77319" lon="3.52644">
        <ele>627.92578125</ele>
        <time>2020-10-29T10:25:54Z</time>
      </trkpt>
      <trkpt lat="43.77325" lon="3.52651">
        <ele>628.90625</ele>
        <time>2020-10-29T10:26:04Z</time>
      </trkpt>
      <trkpt lat="43.77329" lon="3.5266">
        <ele>629.28125</ele>
        <time>2020-10-29T10:26:16Z</time>
      </trkpt>
      <trkpt lat="43.77333" lon="3.52667">
        <ele>629.453125</ele>
        <time>2020-10-29T10:26:26Z</time>
      </trkpt>
      <trkpt lat="43.77339" lon="3.52673">
        <ele>629.57421875</ele>
        <time>2020-10-29T10:26:39Z</time>
      </trkpt>
      <trkpt lat="43.77344" lon="3.5268">
        <ele>628.6484375</ele>
        <time>2020-10-29T10:26:50Z</time>
      </trkpt>
      <trkpt lat="43.77349" lon="3.52682">
        <ele>628.9296875</ele>
        <time>2020-10-29T10:26:58Z</time>
      </trkpt>
      <trkpt lat="43.77355" lon="3.52688">
        <ele>628.26171875</ele>
        <time>2020-10-29T10:27:08Z</time>
      </trkpt>
      <trkpt lat="43.77359" lon="3.52694">
        <ele>627.1015625</ele>
        <time>2020-10-29T10:27:19Z</time>
      </trkpt>
      <trkpt lat="43.77364" lon="3.52698">
        <ele>626.7421875</ele>
        <time>2020-10-29T10:27:28Z</time>
      </trkpt>
      <trkpt lat="43.7737" lon="3.52702">
        <ele>626.42578125</ele>
        <time>2020-10-29T10:27:39Z</time>
      </trkpt>
      <trkpt lat="43.77374" lon="3.52707">
        <ele>625.61328125</ele>
        <time>2020-10-29T10:27:49Z</time>
      </trkpt>
      <trkpt lat="43.7738" lon="3.52711">
        <ele>625.34375</ele>
        <time>2020-10-29T10:28:00Z</time>
      </trkpt>
      <trkpt lat="43.77387" lon="3.52715">
        <ele>625.11328125</ele>
        <time>2020-10-29T10:28:11Z</time>
      </trkpt>
      <trkpt lat="43.77393" lon="3.52718">
        <ele>624.48828125</ele>
        <time>2020-10-29T10:28:20Z</time>
      </trkpt>
      <trkpt lat="43.77399" lon="3.52722">
        <ele>623.74609375</ele>
        <time>2020-10-29T10:28:28Z</time>
      </trkpt>
      <trkpt lat="43.77405" lon="3.52728">
        <ele>622.13671875</ele>
        <time>2020-10-29T10:28:37Z</time>
      </trkpt>
      <trkpt lat="43.7741" lon="3.52736">
        <ele>619.81640625</ele>
        <time>2020-10-29T10:28:48Z</time>
      </trkpt>
      <trkpt lat="43.77414" lon="3.52743">
        <ele>617.9765625</ele>
        <time>2020-10-29T10:28:59Z</time>
      </trkpt>
      <trkpt lat="43.77415" lon="3.52746">
        <ele>617.3359375</ele>
        <time>2020-10-29T10:29:03Z</time>
      </trkpt>
      <trkpt lat="43.77422" lon="3.52749">
        <ele>616.8984375</ele>
        <time>2020-10-29T10:29:13Z</time>
      </trkpt>
      <trkpt lat="43.77428" lon="3.52754">
        <ele>616.265625</ele>
        <time>2020-10-29T10:29:22Z</time>
      </trkpt>
      <trkpt lat="43.77431" lon="3.52764">
        <ele>613.51171875</ele>
        <time>2020-10-29T10:29:32Z</time>
      </trkpt>
      <trkpt lat="43.77435" lon="3.52769">
        <ele>612.58203125</ele>
        <time>2020-10-29T10:29:40Z</time>
      </trkpt>
      <trkpt lat="43.77439" lon="3.52778">
        <ele>610.45703125</ele>
        <time>2020-10-29T10:29:51Z</time>
      </trkpt>
      <trkpt lat="43.77443" lon="3.52785">
        <ele>608.79296875</ele>
        <time>2020-10-29T10:30:01Z</time>
      </trkpt>
      <trkpt lat="43.77449" lon="3.52793">
        <ele>608.04296875</ele>
        <time>2020-10-29T10:30:12Z</time>
      </trkpt>
      <trkpt lat="43.77454" lon="3.52802">
        <ele>606.73046875</ele>
        <time>2020-10-29T10:30:23Z</time>
      </trkpt>
      <trkpt lat="43.77457" lon="3.52808">
        <ele>605.6875</ele>
        <time>2020-10-29T10:30:33Z</time>
      </trkpt>
      <trkpt lat="43.77459" lon="3.52815">
        <ele>604.46484375</ele>
        <time>2020-10-29T10:30:43Z</time>
      </trkpt>
      <trkpt lat="43.7746" lon="3.52822">
        <ele>602.76171875</ele>
        <time>2020-10-29T10:30:54Z</time>
      </trkpt>
      <trkpt lat="43.77459" lon="3.52826">
        <ele>601.26953125</ele>
        <time>2020-10-29T10:31:03Z</time>
      </trkpt>
      <trkpt lat="43.77465" lon="3.52833">
        <ele>600.640625</ele>
        <time>2020-10-29T10:31:13Z</time>
      </trkpt>
      <trkpt lat="43.77467" lon="3.52834">
        <ele>600.546875</ele>
        <time>2020-10-29T10:31:22Z</time>
      </trkpt>
      <trkpt lat="43.77467" lon="3.52835">
        <ele>600.33984375</ele>
        <time>2020-10-29T10:31:38Z</time>
      </trkpt>
      <trkpt lat="43.77467" lon="3.52835">
        <ele>600.234375</ele>
        <time>2020-10-29T10:32:00Z</time>
      </trkpt>
      <trkpt lat="43.77472" lon="3.52838">
        <ele>600.375</ele>
        <time>2020-10-29T10:32:08Z</time>
      </trkpt>
      <trkpt lat="43.77476" lon="3.52838">
        <ele>600.88671875</ele>
        <time>2020-10-29T10:32:14Z</time>
      </trkpt>
      <trkpt lat="43.77481" lon="3.52843">
        <ele>600.22265625</ele>
        <time>2020-10-29T10:32:26Z</time>
      </trkpt>
      <trkpt lat="43.77491" lon="3.52847">
        <ele>600.875</ele>
        <time>2020-10-29T10:32:40Z</time>
      </trkpt>
      <trkpt lat="43.77498" lon="3.52852">
        <ele>600.5390625</ele>
        <time>2020-10-29T10:32:54Z</time>
      </trkpt>
      <trkpt lat="43.77505" lon="3.52856">
        <ele>599.64453125</ele>
        <time>2020-10-29T10:33:05Z</time>
      </trkpt>
      <trkpt lat="43.77509" lon="3.52864">
        <ele>597.6484375</ele>
        <time>2020-10-29T10:33:17Z</time>
      </trkpt>
      <trkpt lat="43.7751" lon="3.52871">
        <ele>595.73828125</ele>
        <time>2020-10-29T10:33:27Z</time>
      </trkpt>
      <trkpt lat="43.77506" lon="3.5288">
        <ele>593.08984375</ele>
        <time>2020-10-29T10:33:38Z</time>
      </trkpt>
      <trkpt lat="43.77499" lon="3.52886">
        <ele>590.9921875</ele>
        <time>2020-10-29T10:33:50Z</time>
      </trkpt>
      <trkpt lat="43.77501" lon="3.52893">
        <ele>588.90234375</ele>
        <time>2020-10-29T10:34:00Z</time>
      </trkpt>
      <trkpt lat="43.77502" lon="3.52901">
        <ele>586.94140625</ele>
        <time>2020-10-29T10:34:11Z</time>
      </trkpt>
      <trkpt lat="43.77508" lon="3.52908">
        <ele>585.53125</ele>
        <time>2020-10-29T10:34:24Z</time>
      </trkpt>
      <trkpt lat="43.77512" lon="3.52915">
        <ele>584.12109375</ele>
        <time>2020-10-29T10:34:33Z</time>
      </trkpt>
      <trkpt lat="43.77519" lon="3.52919">
        <ele>583.578125</ele>
        <time>2020-10-29T10:34:43Z</time>
      </trkpt>
      <trkpt lat="43.77524" lon="3.52921">
        <ele>583.515625</ele>
        <time>2020-10-29T10:34:51Z</time>
      </trkpt>
      <trkpt lat="43.77533" lon="3.52925">
        <ele>583.0625</ele>
        <time>2020-10-29T10:35:04Z</time>
      </trkpt>
      <trkpt lat="43.77534" lon="3.52934">
        <ele>581.2421875</ele>
        <time>2020-10-29T10:35:14Z</time>
      </trkpt>
      <trkpt lat="43.77535" lon="3.5294">
        <ele>579.91796875</ele>
        <time>2020-10-29T10:35:24Z</time>
      </trkpt>
      <trkpt lat="43.77539" lon="3.52954">
        <ele>577.234375</ele>
        <time>2020-10-29T10:35:37Z</time>
      </trkpt>
      <trkpt lat="43.7754" lon="3.5296">
        <ele>576.3203125</ele>
        <time>2020-10-29T10:35:43Z</time>
      </trkpt>
      <trkpt lat="43.7754" lon="3.52961">
        <ele>576.16015625</ele>
        <time>2020-10-29T10:35:44Z</time>
      </trkpt>
      <trkpt lat="43.77541" lon="3.52971">
        <ele>574.51953125</ele>
        <time>2020-10-29T10:35:55Z</time>
      </trkpt>
      <trkpt lat="43.77542" lon="3.52985">
        <ele>572.35546875</ele>
        <time>2020-10-29T10:36:06Z</time>
      </trkpt>
      <trkpt lat="43.77544" lon="3.52997">
        <ele>570.47265625</ele>
        <time>2020-10-29T10:36:17Z</time>
      </trkpt>
      <trkpt lat="43.77544" lon="3.53004">
        <ele>569.23828125</ele>
        <time>2020-10-29T10:36:25Z</time>
      </trkpt>
      <trkpt lat="43.77549" lon="3.53013">
        <ele>568.54296875</ele>
        <time>2020-10-29T10:36:33Z</time>
      </trkpt>
      <trkpt lat="43.77552" lon="3.53022">
        <ele>567.5078125</ele>
        <time>2020-10-29T10:36:42Z</time>
      </trkpt>
      <trkpt lat="43.77557" lon="3.53038">
        <ele>566.09375</ele>
        <time>2020-10-29T10:36:56Z</time>
      </trkpt>
      <trkpt lat="43.77558" lon="3.5305">
        <ele>564.515625</ele>
        <time>2020-10-29T10:37:08Z</time>
      </trkpt>
      <trkpt lat="43.77556" lon="3.53062">
        <ele>562.359375</ele>
        <time>2020-10-29T10:37:21Z</time>
      </trkpt>
      <trkpt lat="43.77555" lon="3.53066">
        <ele>561.78125</ele>
        <time>2020-10-29T10:37:27Z</time>
      </trkpt>
      <trkpt lat="43.77551" lon="3.53071">
        <ele>560.6875</ele>
        <time>2020-10-29T10:37:37Z</time>
      </trkpt>
      <trkpt lat="43.77549" lon="3.53073">
        <ele>560.34375</ele>
        <time>2020-10-29T10:37:43Z</time>
      </trkpt>
      <trkpt lat="43.77544" lon="3.53071">
        <ele>559.83984375</ele>
        <time>2020-10-29T10:37:52Z</time>
      </trkpt>
      <trkpt lat="43.77543" lon="3.5307">
        <ele>559.7421875</ele>
        <time>2020-10-29T10:37:58Z</time>
      </trkpt>
      <trkpt lat="43.77543" lon="3.53069">
        <ele>559.8125</ele>
        <time>2020-10-29T10:38:11Z</time>
      </trkpt>
      <trkpt lat="43.77542" lon="3.53068">
        <ele>559.890625</ele>
        <time>2020-10-29T10:38:25Z</time>
      </trkpt>
      <trkpt lat="43.77542" lon="3.53068">
        <ele>559.8828125</ele>
        <time>2020-10-29T10:38:31Z</time>
      </trkpt>
      <trkpt lat="43.77543" lon="3.53068">
        <ele>559.9296875</ele>
        <time>2020-10-29T10:38:36Z</time>
      </trkpt>
      <trkpt lat="43.77543" lon="3.53067">
        <ele>560.0546875</ele>
        <time>2020-10-29T10:38:49Z</time>
      </trkpt>
      <trkpt lat="43.77542" lon="3.53067">
        <ele>559.98046875</ele>
        <time>2020-10-29T10:39:07Z</time>
      </trkpt>
      <trkpt lat="43.77542" lon="3.53068">
        <ele>559.81640625</ele>
        <time>2020-10-29T10:39:33Z</time>
      </trkpt>
      <trkpt lat="43.77542" lon="3.53068">
        <ele>559.77734375</ele>
        <time>2020-10-29T10:39:59Z</time>
      </trkpt>
      <trkpt lat="43.77542" lon="3.53069">
        <ele>559.77734375</ele>
        <time>2020-10-29T10:40:11Z</time>
      </trkpt>
      <trkpt lat="43.77543" lon="3.53069">
        <ele>559.92578125</ele>
        <time>2020-10-29T10:40:23Z</time>
      </trkpt>
      <trkpt lat="43.77543" lon="3.53068">
        <ele>559.98046875</ele>
        <time>2020-10-29T10:40:37Z</time>
      </trkpt>
      <trkpt lat="43.77542" lon="3.53068">
        <ele>559.8359375</ele>
        <time>2020-10-29T10:40:45Z</time>
      </trkpt>
      <trkpt lat="43.77542" lon="3.53067">
        <ele>559.875</ele>
        <time>2020-10-29T10:41:01Z</time>
      </trkpt>
      <trkpt lat="43.77541" lon="3.53066">
        <ele>559.8828125</ele>
        <time>2020-10-29T10:41:37Z</time>
      </trkpt>
      <trkpt lat="43.7754" lon="3.53065">
        <ele>559.9140625</ele>
        <time>2020-10-29T10:42:19Z</time>
      </trkpt>
      <trkpt lat="43.7754" lon="3.53064">
        <ele>560.03515625</ele>
        <time>2020-10-29T10:42:53Z</time>
      </trkpt>
      <trkpt lat="43.7754" lon="3.5307">
        <ele>559.44921875</ele>
        <time>2020-10-29T10:43:20Z</time>
      </trkpt>
      <trkpt lat="43.77536" lon="3.53075">
        <ele>558.359375</ele>
        <time>2020-10-29T10:43:27Z</time>
      </trkpt>
      <trkpt lat="43.77534" lon="3.53075">
        <ele>558.125</ele>
        <time>2020-10-29T10:43:29Z</time>
      </trkpt>
      <trkpt lat="43.77532" lon="3.53073">
        <ele>558.0703125</ele>
        <time>2020-10-29T10:43:31Z</time>
      </trkpt>
      <trkpt lat="43.77518" lon="3.53072">
        <ele>556.24609375</ele>
        <time>2020-10-29T10:43:45Z</time>
      </trkpt>
      <trkpt lat="43.77516" lon="3.53074">
        <ele>555.76171875</ele>
        <time>2020-10-29T10:43:48Z</time>
      </trkpt>
      <trkpt lat="43.77504" lon="3.53081">
        <ele>553.3515625</ele>
        <time>2020-10-29T10:44:01Z</time>
      </trkpt>
      <trkpt lat="43.77497" lon="3.53084">
        <ele>551.95703125</ele>
        <time>2020-10-29T10:44:10Z</time>
      </trkpt>
      <trkpt lat="43.77497" lon="3.53084">
        <ele>551.76953125</ele>
        <time>2020-10-29T10:44:11Z</time>
      </trkpt>
      <trkpt lat="43.77486" lon="3.53092">
        <ele>548.91015625</ele>
        <time>2020-10-29T10:44:21Z</time>
      </trkpt>
      <trkpt lat="43.77475" lon="3.531">
        <ele>546.078125</ele>
        <time>2020-10-29T10:44:31Z</time>
      </trkpt>
      <trkpt lat="43.77471" lon="3.53117">
        <ele>543.58984375</ele>
        <time>2020-10-29T10:44:42Z</time>
      </trkpt>
      <trkpt lat="43.77465" lon="3.53133">
        <ele>541.55859375</ele>
        <time>2020-10-29T10:44:53Z</time>
      </trkpt>
      <trkpt lat="43.77453" lon="3.53147">
        <ele>538.8125</ele>
        <time>2020-10-29T10:45:06Z</time>
      </trkpt>
      <trkpt lat="43.77443" lon="3.53153">
        <ele>536.90234375</ele>
        <time>2020-10-29T10:45:17Z</time>
      </trkpt>
      <trkpt lat="43.77428" lon="3.53159">
        <ele>534.484375</ele>
        <time>2020-10-29T10:45:31Z</time>
      </trkpt>
      <trkpt lat="43.77416" lon="3.53162">
        <ele>532.51171875</ele>
        <time>2020-10-29T10:45:44Z</time>
      </trkpt>
      <trkpt lat="43.77411" lon="3.53165">
        <ele>531.59765625</ele>
        <time>2020-10-29T10:45:54Z</time>
      </trkpt>
      <trkpt lat="43.77399" lon="3.53169">
        <ele>529.66015625</ele>
        <time>2020-10-29T10:46:07Z</time>
      </trkpt>
      <trkpt lat="43.77388" lon="3.53172">
        <ele>528.05078125</ele>
        <time>2020-10-29T10:46:18Z</time>
      </trkpt>
      <trkpt lat="43.77379" lon="3.53173">
        <ele>526.62109375</ele>
        <time>2020-10-29T10:46:28Z</time>
      </trkpt>
      <trkpt lat="43.77376" lon="3.53173">
        <ele>526.23046875</ele>
        <time>2020-10-29T10:46:31Z</time>
      </trkpt>
      <trkpt lat="43.77365" lon="3.53174">
        <ele>524.5859375</ele>
        <time>2020-10-29T10:46:42Z</time>
      </trkpt>
      <trkpt lat="43.77352" lon="3.53171">
        <ele>522.9375</ele>
        <time>2020-10-29T10:46:54Z</time>
      </trkpt>
      <trkpt lat="43.7735" lon="3.53171">
        <ele>522.640625</ele>
        <time>2020-10-29T10:46:56Z</time>
      </trkpt>
      <trkpt lat="43.77338" lon="3.53173">
        <ele>520.7109375</ele>
        <time>2020-10-29T10:47:09Z</time>
      </trkpt>
      <trkpt lat="43.7733" lon="3.53177">
        <ele>519.62890625</ele>
        <time>2020-10-29T10:47:17Z</time>
      </trkpt>
      <trkpt lat="43.77319" lon="3.53185">
        <ele>518.1875</ele>
        <time>2020-10-29T10:47:29Z</time>
      </trkpt>
      <trkpt lat="43.77307" lon="3.53189">
        <ele>516.78125</ele>
        <time>2020-10-29T10:47:40Z</time>
      </trkpt>
      <trkpt lat="43.77291" lon="3.53189">
        <ele>514.984375</ele>
        <time>2020-10-29T10:47:54Z</time>
      </trkpt>
      <trkpt lat="43.77276" lon="3.53191">
        <ele>513.21484375</ele>
        <time>2020-10-29T10:48:07Z</time>
      </trkpt>
      <trkpt lat="43.77265" lon="3.53198">
        <ele>511.703125</ele>
        <time>2020-10-29T10:48:17Z</time>
      </trkpt>
      <trkpt lat="43.77255" lon="3.5321">
        <ele>510.1796875</ele>
        <time>2020-10-29T10:48:28Z</time>
      </trkpt>
      <trkpt lat="43.77244" lon="3.53204">
        <ele>509.06640625</ele>
        <time>2020-10-29T10:48:38Z</time>
      </trkpt>
      <trkpt lat="43.77236" lon="3.53199">
        <ele>508.23046875</ele>
        <time>2020-10-29T10:48:46Z</time>
      </trkpt>
      <trkpt lat="43.77227" lon="3.53203">
        <ele>507.015625</ele>
        <time>2020-10-29T10:48:56Z</time>
      </trkpt>
      <trkpt lat="43.77224" lon="3.53208">
        <ele>506.66015625</ele>
        <time>2020-10-29T10:49:02Z</time>
      </trkpt>
      <trkpt lat="43.7722" lon="3.53207">
        <ele>506.24609375</ele>
        <time>2020-10-29T10:49:10Z</time>
      </trkpt>
      <trkpt lat="43.77215" lon="3.53202">
        <ele>505.79296875</ele>
        <time>2020-10-29T10:49:18Z</time>
      </trkpt>
      <trkpt lat="43.77212" lon="3.53196">
        <ele>505.52734375</ele>
        <time>2020-10-29T10:49:26Z</time>
      </trkpt>
      <trkpt lat="43.77207" lon="3.53189">
        <ele>505.15234375</ele>
        <time>2020-10-29T10:49:36Z</time>
      </trkpt>
      <trkpt lat="43.77206" lon="3.53188">
        <ele>504.98828125</ele>
        <time>2020-10-29T10:49:51Z</time>
      </trkpt>
      <trkpt lat="43.77203" lon="3.53187">
        <ele>504.73828125</ele>
        <time>2020-10-29T10:50:08Z</time>
      </trkpt>
      <trkpt lat="43.77202" lon="3.53186">
        <ele>504.64453125</ele>
        <time>2020-10-29T10:50:09Z</time>
      </trkpt>
      <trkpt lat="43.77195" lon="3.53184">
        <ele>503.8515625</ele>
        <time>2020-10-29T10:50:18Z</time>
      </trkpt>
      <trkpt lat="43.77184" lon="3.53189">
        <ele>502.6015625</ele>
        <time>2020-10-29T10:50:30Z</time>
      </trkpt>
      <trkpt lat="43.77175" lon="3.53189">
        <ele>501.6328125</ele>
        <time>2020-10-29T10:50:39Z</time>
      </trkpt>
      <trkpt lat="43.77167" lon="3.53179">
        <ele>500.98046875</ele>
        <time>2020-10-29T10:50:50Z</time>
      </trkpt>
      <trkpt lat="43.77162" lon="3.53169">
        <ele>500.64453125</ele>
        <time>2020-10-29T10:51:00Z</time>
      </trkpt>
      <trkpt lat="43.77161" lon="3.53167">
        <ele>500.5546875</ele>
        <time>2020-10-29T10:51:02Z</time>
      </trkpt>
      <trkpt lat="43.77158" lon="3.53162">
        <ele>500.2890625</ele>
        <time>2020-10-29T10:51:06Z</time>
      </trkpt>
      <trkpt lat="43.77153" lon="3.53155">
        <ele>499.8203125</ele>
        <time>2020-10-29T10:51:13Z</time>
      </trkpt>
      <trkpt lat="43.77146" lon="3.53149">
        <ele>499.14453125</ele>
        <time>2020-10-29T10:51:22Z</time>
      </trkpt>
      <trkpt lat="43.77139" lon="3.53148">
        <ele>498.5625</ele>
        <time>2020-10-29T10:51:29Z</time>
      </trkpt>
      <trkpt lat="43.77138" lon="3.53148">
        <ele>498.46875</ele>
        <time>2020-10-29T10:51:36Z</time>
      </trkpt>
      <trkpt lat="43.77138" lon="3.53148">
        <ele>498.4375</ele>
        <time>2020-10-29T10:51:47Z</time>
      </trkpt>
      <trkpt lat="43.77137" lon="3.53148">
        <ele>498.359375</ele>
        <time>2020-10-29T10:51:57Z</time>
      </trkpt>
      <trkpt lat="43.77133" lon="3.53147">
        <ele>497.9765625</ele>
        <time>2020-10-29T10:52:09Z</time>
      </trkpt>
      <trkpt lat="43.77122" lon="3.53143">
        <ele>497.04296875</ele>
        <time>2020-10-29T10:52:21Z</time>
      </trkpt>
      <trkpt lat="43.77115" lon="3.5314">
        <ele>496.3359375</ele>
        <time>2020-10-29T10:52:30Z</time>
      </trkpt>
      <trkpt lat="43.77103" lon="3.53136">
        <ele>495.4765625</ele>
        <time>2020-10-29T10:52:42Z</time>
      </trkpt>
      <trkpt lat="43.77096" lon="3.53135">
        <ele>495.00390625</ele>
        <time>2020-10-29T10:52:50Z</time>
      </trkpt>
      <trkpt lat="43.77087" lon="3.53139">
        <ele>494.35546875</ele>
        <time>2020-10-29T10:52:59Z</time>
      </trkpt>
      <trkpt lat="43.77076" lon="3.53144">
        <ele>493.56640625</ele>
        <time>2020-10-29T10:53:10Z</time>
      </trkpt>
      <trkpt lat="43.77073" lon="3.53145">
        <ele>493.2890625</ele>
        <time>2020-10-29T10:53:20Z</time>
      </trkpt>
      <trkpt lat="43.77066" lon="3.53145">
        <ele>492.79296875</ele>
        <time>2020-10-29T10:53:29Z</time>
      </trkpt>
      <trkpt lat="43.77064" lon="3.5315">
        <ele>492.5390625</ele>
        <time>2020-10-29T10:53:36Z</time>
      </trkpt>
      <trkpt lat="43.77062" lon="3.53152">
        <ele>492.3203125</ele>
        <time>2020-10-29T10:53:43Z</time>
      </trkpt>
      <trkpt lat="43.7706" lon="3.53151">
        <ele>492.1953125</ele>
        <time>2020-10-29T10:53:51Z</time>
      </trkpt>
      <trkpt lat="43.7706" lon="3.53151">
        <ele>492.1875</ele>
        <time>2020-10-29T10:54:03Z</time>
      </trkpt>
      <trkpt lat="43.7706" lon="3.5315">
        <ele>492.203125</ele>
        <time>2020-10-29T10:54:12Z</time>
      </trkpt>
      <trkpt lat="43.77061" lon="3.5315">
        <ele>492.2734375</ele>
        <time>2020-10-29T10:54:28Z</time>
      </trkpt>
      <trkpt lat="43.77062" lon="3.53151">
        <ele>492.37109375</ele>
        <time>2020-10-29T10:54:46Z</time>
      </trkpt>
      <trkpt lat="43.77064" lon="3.53153">
        <ele>492.40234375</ele>
        <time>2020-10-29T10:55:03Z</time>
      </trkpt>
      <trkpt lat="43.77062" lon="3.53151">
        <ele>492.3203125</ele>
        <time>2020-10-29T10:55:22Z</time>
      </trkpt>
      <trkpt lat="43.77061" lon="3.53152">
        <ele>492.21875</ele>
        <time>2020-10-29T10:55:37Z</time>
      </trkpt>
      <trkpt lat="43.77061" lon="3.53153">
        <ele>492.1484375</ele>
        <time>2020-10-29T10:55:55Z</time>
      </trkpt>
      <trkpt lat="43.77061" lon="3.53153">
        <ele>492.16796875</ele>
        <time>2020-10-29T10:56:14Z</time>
      </trkpt>
      <trkpt lat="43.77062" lon="3.53153">
        <ele>492.2578125</ele>
        <time>2020-10-29T10:56:31Z</time>
      </trkpt>
      <trkpt lat="43.77062" lon="3.53151">
        <ele>492.2890625</ele>
        <time>2020-10-29T10:56:50Z</time>
      </trkpt>
      <trkpt lat="43.77063" lon="3.53152">
        <ele>492.3828125</ele>
        <time>2020-10-29T10:57:09Z</time>
      </trkpt>
      <trkpt lat="43.77063" lon="3.53156">
        <ele>492.234375</ele>
        <time>2020-10-29T10:57:26Z</time>
      </trkpt>
      <trkpt lat="43.77064" lon="3.53156">
        <ele>492.3125</ele>
        <time>2020-10-29T10:57:45Z</time>
      </trkpt>
      <trkpt lat="43.77064" lon="3.53155">
        <ele>492.31640625</ele>
        <time>2020-10-29T10:58:02Z</time>
      </trkpt>
      <trkpt lat="43.77063" lon="3.53155">
        <ele>492.23828125</ele>
        <time>2020-10-29T10:58:20Z</time>
      </trkpt>
      <trkpt lat="43.77063" lon="3.53155">
        <ele>492.25</ele>
        <time>2020-10-29T10:58:38Z</time>
      </trkpt>
      <trkpt lat="43.77063" lon="3.53155">
        <ele>492.2421875</ele>
        <time>2020-10-29T10:58:55Z</time>
      </trkpt>
      <trkpt lat="43.77063" lon="3.53153">
        <ele>492.35546875</ele>
        <time>2020-10-29T10:59:12Z</time>
      </trkpt>
      <trkpt lat="43.77064" lon="3.53152">
        <ele>492.41796875</ele>
        <time>2020-10-29T10:59:30Z</time>
      </trkpt>
      <trkpt lat="43.77061" lon="3.5315">
        <ele>492.2890625</ele>
        <time>2020-10-29T10:59:48Z</time>
      </trkpt>
      <trkpt lat="43.77058" lon="3.53149">
        <ele>492.12109375</ele>
        <time>2020-10-29T11:00:05Z</time>
      </trkpt>
      <trkpt lat="43.77059" lon="3.53151">
        <ele>492.1171875</ele>
        <time>2020-10-29T11:00:23Z</time>
      </trkpt>
      <trkpt lat="43.77061" lon="3.53153">
        <ele>492.14453125</ele>
        <time>2020-10-29T11:00:39Z</time>
      </trkpt>
      <trkpt lat="43.77061" lon="3.53154">
        <ele>492.17578125</ele>
        <time>2020-10-29T11:00:57Z</time>
      </trkpt>
      <trkpt lat="43.77063" lon="3.53154">
        <ele>492.296875</ele>
        <time>2020-10-29T11:01:03Z</time>
      </trkpt>
      <trkpt lat="43.77063" lon="3.53154">
        <ele>492.29296875</ele>
        <time>2020-10-29T11:01:23Z</time>
      </trkpt>
      <trkpt lat="43.77057" lon="3.53153">
        <ele>491.87109375</ele>
        <time>2020-10-29T11:01:41Z</time>
      </trkpt>
      <trkpt lat="43.77053" lon="3.53155">
        <ele>491.5703125</ele>
        <time>2020-10-29T11:01:59Z</time>
      </trkpt>
      <trkpt lat="43.77054" lon="3.53155">
        <ele>491.59375</ele>
        <time>2020-10-29T11:02:18Z</time>
      </trkpt>
      <trkpt lat="43.77051" lon="3.53155">
        <ele>491.47265625</ele>
        <time>2020-10-29T11:02:35Z</time>
      </trkpt>
      <trkpt lat="43.77052" lon="3.53153">
        <ele>491.53515625</ele>
        <time>2020-10-29T11:02:52Z</time>
      </trkpt>
      <trkpt lat="43.77051" lon="3.53153">
        <ele>491.484375</ele>
        <time>2020-10-29T11:03:08Z</time>
      </trkpt>
      <trkpt lat="43.77053" lon="3.53154">
        <ele>491.609375</ele>
        <time>2020-10-29T11:03:25Z</time>
      </trkpt>
      <trkpt lat="43.77053" lon="3.53154">
        <ele>491.6015625</ele>
        <time>2020-10-29T11:03:40Z</time>
      </trkpt>
      <trkpt lat="43.77054" lon="3.53153">
        <ele>491.671875</ele>
        <time>2020-10-29T11:04:00Z</time>
      </trkpt>
      <trkpt lat="43.77057" lon="3.53152">
        <ele>491.9140625</ele>
        <time>2020-10-29T11:04:18Z</time>
      </trkpt>
      <trkpt lat="43.77059" lon="3.53151">
        <ele>492.109375</ele>
        <time>2020-10-29T11:04:36Z</time>
      </trkpt>
      <trkpt lat="43.77061" lon="3.5315">
        <ele>492.2734375</ele>
        <time>2020-10-29T11:04:54Z</time>
      </trkpt>
      <trkpt lat="43.77064" lon="3.53149">
        <ele>492.54296875</ele>
        <time>2020-10-29T11:05:12Z</time>
      </trkpt>
      <trkpt lat="43.77064" lon="3.5315">
        <ele>492.5</ele>
        <time>2020-10-29T11:05:30Z</time>
      </trkpt>
      <trkpt lat="43.77064" lon="3.53149">
        <ele>492.5</ele>
        <time>2020-10-29T11:05:46Z</time>
      </trkpt>
      <trkpt lat="43.77062" lon="3.5315">
        <ele>492.35546875</ele>
        <time>2020-10-29T11:06:04Z</time>
      </trkpt>
      <trkpt lat="43.77056" lon="3.53151">
        <ele>491.859375</ele>
        <time>2020-10-29T11:06:22Z</time>
      </trkpt>
      <trkpt lat="43.77052" lon="3.53152">
        <ele>491.61328125</ele>
        <time>2020-10-29T11:06:38Z</time>
      </trkpt>
      <trkpt lat="43.77055" lon="3.53151">
        <ele>491.78515625</ele>
        <time>2020-10-29T11:06:54Z</time>
      </trkpt>
      <trkpt lat="43.77058" lon="3.53151">
        <ele>492.0234375</ele>
        <time>2020-10-29T11:07:11Z</time>
      </trkpt>
      <trkpt lat="43.77056" lon="3.5315">
        <ele>491.91796875</ele>
        <time>2020-10-29T11:07:29Z</time>
      </trkpt>
      <trkpt lat="43.7705" lon="3.53152">
        <ele>491.5</ele>
        <time>2020-10-29T11:07:46Z</time>
      </trkpt>
      <trkpt lat="43.77049" lon="3.53154">
        <ele>491.38671875</ele>
        <time>2020-10-29T11:08:03Z</time>
      </trkpt>
      <trkpt lat="43.7705" lon="3.53156">
        <ele>491.3359375</ele>
        <time>2020-10-29T11:08:23Z</time>
      </trkpt>
      <trkpt lat="43.77051" lon="3.53156">
        <ele>491.40234375</ele>
        <time>2020-10-29T11:08:52Z</time>
      </trkpt>
      <trkpt lat="43.77053" lon="3.53155">
        <ele>491.56640625</ele>
        <time>2020-10-29T11:09:07Z</time>
      </trkpt>
      <trkpt lat="43.77057" lon="3.53152">
        <ele>491.9375</ele>
        <time>2020-10-29T11:09:25Z</time>
      </trkpt>
      <trkpt lat="43.7706" lon="3.53149">
        <ele>492.1875</ele>
        <time>2020-10-29T11:09:42Z</time>
      </trkpt>
      <trkpt lat="43.77058" lon="3.5315">
        <ele>492.0390625</ele>
        <time>2020-10-29T11:09:57Z</time>
      </trkpt>
      <trkpt lat="43.77056" lon="3.53151">
        <ele>491.875</ele>
        <time>2020-10-29T11:10:14Z</time>
      </trkpt>
      <trkpt lat="43.77054" lon="3.53151">
        <ele>491.7265625</ele>
        <time>2020-10-29T11:10:31Z</time>
      </trkpt>
      <trkpt lat="43.77051" lon="3.53153">
        <ele>491.51953125</ele>
        <time>2020-10-29T11:10:53Z</time>
      </trkpt>
      <trkpt lat="43.77053" lon="3.53154">
        <ele>491.59375</ele>
        <time>2020-10-29T11:11:10Z</time>
      </trkpt>
      <trkpt lat="43.77055" lon="3.53153">
        <ele>491.75</ele>
        <time>2020-10-29T11:11:27Z</time>
      </trkpt>
      <trkpt lat="43.77056" lon="3.53153">
        <ele>491.8203125</ele>
        <time>2020-10-29T11:11:44Z</time>
      </trkpt>
      <trkpt lat="43.77057" lon="3.53152">
        <ele>491.9453125</ele>
        <time>2020-10-29T11:12:03Z</time>
      </trkpt>
      <trkpt lat="43.77055" lon="3.53152">
        <ele>491.76171875</ele>
        <time>2020-10-29T11:12:21Z</time>
      </trkpt>
      <trkpt lat="43.77054" lon="3.53151">
        <ele>491.76953125</ele>
        <time>2020-10-29T11:12:41Z</time>
      </trkpt>
      <trkpt lat="43.77055" lon="3.53151">
        <ele>491.76953125</ele>
        <time>2020-10-29T11:12:59Z</time>
      </trkpt>
      <trkpt lat="43.77055" lon="3.53152">
        <ele>491.78125</ele>
        <time>2020-10-29T11:13:17Z</time>
      </trkpt>
      <trkpt lat="43.77056" lon="3.53152">
        <ele>491.8203125</ele>
        <time>2020-10-29T11:13:36Z</time>
      </trkpt>
      <trkpt lat="43.77058" lon="3.53155">
        <ele>491.875</ele>
        <time>2020-10-29T11:13:58Z</time>
      </trkpt>
      <trkpt lat="43.77058" lon="3.53154">
        <ele>491.9140625</ele>
        <time>2020-10-29T11:14:15Z</time>
      </trkpt>
      <trkpt lat="43.77055" lon="3.53154">
        <ele>491.6796875</ele>
        <time>2020-10-29T11:14:31Z</time>
      </trkpt>
      <trkpt lat="43.77055" lon="3.53153">
        <ele>491.72265625</ele>
        <time>2020-10-29T11:14:46Z</time>
      </trkpt>
      <trkpt lat="43.77055" lon="3.53152">
        <ele>491.796875</ele>
        <time>2020-10-29T11:15:04Z</time>
      </trkpt>
      <trkpt lat="43.77056" lon="3.53152">
        <ele>491.83984375</ele>
        <time>2020-10-29T11:15:22Z</time>
      </trkpt>
      <trkpt lat="43.77057" lon="3.53152">
        <ele>491.88671875</ele>
        <time>2020-10-29T11:15:43Z</time>
      </trkpt>
      <trkpt lat="43.77056" lon="3.53151">
        <ele>491.88671875</ele>
        <time>2020-10-29T11:16:02Z</time>
      </trkpt>
      <trkpt lat="43.77055" lon="3.5315">
        <ele>491.8515625</ele>
        <time>2020-10-29T11:16:21Z</time>
      </trkpt>
      <trkpt lat="43.77054" lon="3.53152">
        <ele>491.69140625</ele>
        <time>2020-10-29T11:16:39Z</time>
      </trkpt>
      <trkpt lat="43.77055" lon="3.53152">
        <ele>491.765625</ele>
        <time>2020-10-29T11:16:57Z</time>
      </trkpt>
      <trkpt lat="43.77056" lon="3.53151">
        <ele>491.8515625</ele>
        <time>2020-10-29T11:17:15Z</time>
      </trkpt>
      <trkpt lat="43.7706" lon="3.5315">
        <ele>492.2265625</ele>
        <time>2020-10-29T11:17:33Z</time>
      </trkpt>
      <trkpt lat="43.77061" lon="3.53148">
        <ele>492.36328125</ele>
        <time>2020-10-29T11:17:52Z</time>
      </trkpt>
      <trkpt lat="43.7706" lon="3.53148">
        <ele>492.27734375</ele>
        <time>2020-10-29T11:18:07Z</time>
      </trkpt>
      <trkpt lat="43.77059" lon="3.53148">
        <ele>492.19921875</ele>
        <time>2020-10-29T11:18:24Z</time>
      </trkpt>
      <trkpt lat="43.7706" lon="3.53148">
        <ele>492.2890625</ele>
        <time>2020-10-29T11:18:42Z</time>
      </trkpt>
      <trkpt lat="43.77063" lon="3.53146">
        <ele>492.56640625</ele>
        <time>2020-10-29T11:19:01Z</time>
      </trkpt>
      <trkpt lat="43.77063" lon="3.53147">
        <ele>492.546875</ele>
        <time>2020-10-29T11:19:18Z</time>
      </trkpt>
      <trkpt lat="43.7706" lon="3.53149">
        <ele>492.203125</ele>
        <time>2020-10-29T11:19:31Z</time>
      </trkpt>
      <trkpt lat="43.77058" lon="3.53151">
        <ele>492.04296875</ele>
        <time>2020-10-29T11:19:47Z</time>
      </trkpt>
      <trkpt lat="43.77059" lon="3.53154">
        <ele>492.02734375</ele>
        <time>2020-10-29T11:20:02Z</time>
      </trkpt>
      <trkpt lat="43.7706" lon="3.53151">
        <ele>492.15234375</ele>
        <time>2020-10-29T11:20:19Z</time>
      </trkpt>
      <trkpt lat="43.7706" lon="3.5315">
        <ele>492.203125</ele>
        <time>2020-10-29T11:20:35Z</time>
      </trkpt>
      <trkpt lat="43.77061" lon="3.53146">
        <ele>492.421875</ele>
        <time>2020-10-29T11:20:51Z</time>
      </trkpt>
      <trkpt lat="43.77062" lon="3.53147">
        <ele>492.44921875</ele>
        <time>2020-10-29T11:21:09Z</time>
      </trkpt>
      <trkpt lat="43.77062" lon="3.53147">
        <ele>492.45703125</ele>
        <time>2020-10-29T11:21:27Z</time>
      </trkpt>
      <trkpt lat="43.7706" lon="3.53147">
        <ele>492.3046875</ele>
        <time>2020-10-29T11:21:45Z</time>
      </trkpt>
      <trkpt lat="43.77061" lon="3.53148">
        <ele>492.3203125</ele>
        <time>2020-10-29T11:22:02Z</time>
      </trkpt>
      <trkpt lat="43.77061" lon="3.53149">
        <ele>492.29296875</ele>
        <time>2020-10-29T11:22:16Z</time>
      </trkpt>
      <trkpt lat="43.7706" lon="3.5315">
        <ele>492.18359375</ele>
        <time>2020-10-29T11:22:32Z</time>
      </trkpt>
      <trkpt lat="43.77059" lon="3.53151">
        <ele>492.10546875</ele>
        <time>2020-10-29T11:22:51Z</time>
      </trkpt>
      <trkpt lat="43.77059" lon="3.53149">
        <ele>492.15234375</ele>
        <time>2020-10-29T11:23:09Z</time>
      </trkpt>
      <trkpt lat="43.77059" lon="3.5315">
        <ele>492.1015625</ele>
        <time>2020-10-29T11:23:27Z</time>
      </trkpt>
      <trkpt lat="43.77056" lon="3.53153">
        <ele>491.79296875</ele>
        <time>2020-10-29T11:23:50Z</time>
      </trkpt>
      <trkpt lat="43.77058" lon="3.53154">
        <ele>491.97265625</ele>
        <time>2020-10-29T11:24:05Z</time>
      </trkpt>
      <trkpt lat="43.77059" lon="3.53153">
        <ele>492.01953125</ele>
        <time>2020-10-29T11:24:25Z</time>
      </trkpt>
      <trkpt lat="43.77058" lon="3.53152">
        <ele>492.0078125</ele>
        <time>2020-10-29T11:24:43Z</time>
      </trkpt>
      <trkpt lat="43.77058" lon="3.53152">
        <ele>491.984375</ele>
        <time>2020-10-29T11:25:12Z</time>
      </trkpt>
      <trkpt lat="43.77058" lon="3.53152">
        <ele>492.00390625</ele>
        <time>2020-10-29T11:25:46Z</time>
      </trkpt>
      <trkpt lat="43.77058" lon="3.53152">
        <ele>492.01953125</ele>
        <time>2020-10-29T11:25:59Z</time>
      </trkpt>
      <trkpt lat="43.77057" lon="3.53153">
        <ele>491.89453125</ele>
        <time>2020-10-29T11:26:30Z</time>
      </trkpt>
      <trkpt lat="43.77056" lon="3.53154">
        <ele>491.7578125</ele>
        <time>2020-10-29T11:27:00Z</time>
      </trkpt>
      <trkpt lat="43.77054" lon="3.53154">
        <ele>491.671875</ele>
        <time>2020-10-29T11:27:18Z</time>
      </trkpt>
      <trkpt lat="43.77055" lon="3.53153">
        <ele>491.71875</ele>
        <time>2020-10-29T11:27:36Z</time>
      </trkpt>
      <trkpt lat="43.77055" lon="3.53153">
        <ele>491.71875</ele>
        <time>2020-10-29T11:27:54Z</time>
      </trkpt>
      <trkpt lat="43.77057" lon="3.53154">
        <ele>491.81640625</ele>
        <time>2020-10-29T11:28:19Z</time>
      </trkpt>
      <trkpt lat="43.77058" lon="3.53155">
        <ele>491.87890625</ele>
        <time>2020-10-29T11:28:49Z</time>
      </trkpt>
      <trkpt lat="43.77058" lon="3.53154">
        <ele>491.9375</ele>
        <time>2020-10-29T11:29:06Z</time>
      </trkpt>
      <trkpt lat="43.77058" lon="3.53153">
        <ele>491.96875</ele>
        <time>2020-10-29T11:29:21Z</time>
      </trkpt>
      <trkpt lat="43.77057" lon="3.53154">
        <ele>491.8671875</ele>
        <time>2020-10-29T11:29:39Z</time>
      </trkpt>
      <trkpt lat="43.77057" lon="3.53152">
        <ele>491.90625</ele>
        <time>2020-10-29T11:29:56Z</time>
      </trkpt>
      <trkpt lat="43.77057" lon="3.53151">
        <ele>491.91015625</ele>
        <time>2020-10-29T11:30:15Z</time>
      </trkpt>
      <trkpt lat="43.77057" lon="3.5315">
        <ele>491.9453125</ele>
        <time>2020-10-29T11:30:32Z</time>
      </trkpt>
      <trkpt lat="43.77057" lon="3.53152">
        <ele>491.8984375</ele>
        <time>2020-10-29T11:30:52Z</time>
      </trkpt>
      <trkpt lat="43.77056" lon="3.53154">
        <ele>491.73828125</ele>
        <time>2020-10-29T11:31:11Z</time>
      </trkpt>
      <trkpt lat="43.77054" lon="3.53155">
        <ele>491.63671875</ele>
        <time>2020-10-29T11:31:39Z</time>
      </trkpt>
      <trkpt lat="43.77054" lon="3.53155">
        <ele>491.59765625</ele>
        <time>2020-10-29T11:32:16Z</time>
      </trkpt>
      <trkpt lat="43.77055" lon="3.53154">
        <ele>491.65625</ele>
        <time>2020-10-29T11:32:40Z</time>
      </trkpt>
      <trkpt lat="43.77054" lon="3.53153">
        <ele>491.671875</ele>
        <time>2020-10-29T11:32:55Z</time>
      </trkpt>
      <trkpt lat="43.77056" lon="3.53151">
        <ele>491.82421875</ele>
        <time>2020-10-29T11:33:13Z</time>
      </trkpt>
      <trkpt lat="43.77056" lon="3.53151">
        <ele>491.859375</ele>
        <time>2020-10-29T11:33:21Z</time>
      </trkpt>
      <trkpt lat="43.77056" lon="3.53149">
        <ele>491.90625</ele>
        <time>2020-10-29T11:33:35Z</time>
      </trkpt>
      <trkpt lat="43.77055" lon="3.5315">
        <ele>491.80078125</ele>
        <time>2020-10-29T11:33:50Z</time>
      </trkpt>
      <trkpt lat="43.77055" lon="3.53151">
        <ele>491.80078125</ele>
        <time>2020-10-29T11:34:03Z</time>
      </trkpt>
      <trkpt lat="43.77057" lon="3.53151">
        <ele>491.91015625</ele>
        <time>2020-10-29T11:34:14Z</time>
      </trkpt>
      <trkpt lat="43.77059" lon="3.53152">
        <ele>492.06640625</ele>
        <time>2020-10-29T11:34:33Z</time>
      </trkpt>
      <trkpt lat="43.7706" lon="3.5315">
        <ele>492.19921875</ele>
        <time>2020-10-29T11:34:51Z</time>
      </trkpt>
      <trkpt lat="43.77059" lon="3.53151">
        <ele>492.0859375</ele>
        <time>2020-10-29T11:35:10Z</time>
      </trkpt>
      <trkpt lat="43.77062" lon="3.53152">
        <ele>492.26171875</ele>
        <time>2020-10-29T11:35:18Z</time>
      </trkpt>
      <trkpt lat="43.77061" lon="3.53151">
        <ele>492.26171875</ele>
        <time>2020-10-29T11:35:31Z</time>
      </trkpt>
      <trkpt lat="43.77061" lon="3.53149">
        <ele>492.3359375</ele>
        <time>2020-10-29T11:35:41Z</time>
      </trkpt>
      <trkpt lat="43.77061" lon="3.53146">
        <ele>492.41015625</ele>
        <time>2020-10-29T11:35:50Z</time>
      </trkpt>
      <trkpt lat="43.77053" lon="3.53151">
        <ele>491.6640625</ele>
        <time>2020-10-29T11:36:01Z</time>
      </trkpt>
      <trkpt lat="43.77046" lon="3.53154">
        <ele>491.21484375</ele>
        <time>2020-10-29T11:36:13Z</time>
      </trkpt>
      <trkpt lat="43.77041" lon="3.53154">
        <ele>490.91015625</ele>
        <time>2020-10-29T11:36:24Z</time>
      </trkpt>
      <trkpt lat="43.77039" lon="3.53154">
        <ele>490.81640625</ele>
        <time>2020-10-29T11:36:38Z</time>
      </trkpt>
      <trkpt lat="43.77038" lon="3.53154">
        <ele>490.78125</ele>
        <time>2020-10-29T11:36:58Z</time>
      </trkpt>
      <trkpt lat="43.77037" lon="3.53152">
        <ele>490.81640625</ele>
        <time>2020-10-29T11:37:09Z</time>
      </trkpt>
      <trkpt lat="43.77035" lon="3.53144">
        <ele>490.96875</ele>
        <time>2020-10-29T11:37:21Z</time>
      </trkpt>
      <trkpt lat="43.77028" lon="3.53127">
        <ele>491.21875</ele>
        <time>2020-10-29T11:37:35Z</time>
      </trkpt>
      <trkpt lat="43.77021" lon="3.53113">
        <ele>491.47265625</ele>
        <time>2020-10-29T11:37:50Z</time>
      </trkpt>
      <trkpt lat="43.77009" lon="3.531">
        <ele>491.4765625</ele>
        <time>2020-10-29T11:38:07Z</time>
      </trkpt>
      <trkpt lat="43.76995" lon="3.5309">
        <ele>491.1953125</ele>
        <time>2020-10-29T11:38:24Z</time>
      </trkpt>
      <trkpt lat="43.76982" lon="3.53081">
        <ele>490.8515625</ele>
        <time>2020-10-29T11:38:38Z</time>
      </trkpt>
      <trkpt lat="43.76972" lon="3.53071">
        <ele>490.65234375</ele>
        <time>2020-10-29T11:38:52Z</time>
      </trkpt>
      <trkpt lat="43.76968" lon="3.53068">
        <ele>490.46875</ele>
        <time>2020-10-29T11:39:03Z</time>
      </trkpt>
      <trkpt lat="43.76963" lon="3.53074">
        <ele>489.88671875</ele>
        <time>2020-10-29T11:39:13Z</time>
      </trkpt>
      <trkpt lat="43.76961" lon="3.53086">
        <ele>489.23828125</ele>
        <time>2020-10-29T11:39:25Z</time>
      </trkpt>
      <trkpt lat="43.76959" lon="3.53098">
        <ele>488.6015625</ele>
        <time>2020-10-29T11:39:36Z</time>
      </trkpt>
      <trkpt lat="43.76956" lon="3.5311">
        <ele>487.94921875</ele>
        <time>2020-10-29T11:39:47Z</time>
      </trkpt>
      <trkpt lat="43.76949" lon="3.53115">
        <ele>487.34375</ele>
        <time>2020-10-29T11:39:56Z</time>
      </trkpt>
      <trkpt lat="43.76942" lon="3.53117">
        <ele>486.91796875</ele>
        <time>2020-10-29T11:40:04Z</time>
      </trkpt>
      <trkpt lat="43.76934" lon="3.5312">
        <ele>486.37890625</ele>
        <time>2020-10-29T11:40:13Z</time>
      </trkpt>
      <trkpt lat="43.76933" lon="3.5312">
        <ele>486.328125</ele>
        <time>2020-10-29T11:40:14Z</time>
      </trkpt>
      <trkpt lat="43.76921" lon="3.53121">
        <ele>485.62890625</ele>
        <time>2020-10-29T11:40:27Z</time>
      </trkpt>
      <trkpt lat="43.7691" lon="3.53121">
        <ele>485.06640625</ele>
        <time>2020-10-29T11:40:38Z</time>
      </trkpt>
      <trkpt lat="43.76909" lon="3.53121">
        <ele>484.98828125</ele>
        <time>2020-10-29T11:40:39Z</time>
      </trkpt>
      <trkpt lat="43.76902" lon="3.53127">
        <ele>484.37890625</ele>
        <time>2020-10-29T11:40:47Z</time>
      </trkpt>
      <trkpt lat="43.76898" lon="3.53132">
        <ele>483.9765625</ele>
        <time>2020-10-29T11:40:52Z</time>
      </trkpt>
      <trkpt lat="43.76887" lon="3.53141">
        <ele>483.1015625</ele>
        <time>2020-10-29T11:41:04Z</time>
      </trkpt>
      <trkpt lat="43.7688" lon="3.53146">
        <ele>482.5234375</ele>
        <time>2020-10-29T11:41:14Z</time>
      </trkpt>
      <trkpt lat="43.76868" lon="3.53151">
        <ele>481.78125</ele>
        <time>2020-10-29T11:41:27Z</time>
      </trkpt>
      <trkpt lat="43.7686" lon="3.5316">
        <ele>481.21484375</ele>
        <time>2020-10-29T11:41:38Z</time>
      </trkpt>
      <trkpt lat="43.76853" lon="3.53165">
        <ele>480.82421875</ele>
        <time>2020-10-29T11:41:47Z</time>
      </trkpt>
      <trkpt lat="43.7685" lon="3.53165">
        <ele>480.69921875</ele>
        <time>2020-10-29T11:41:50Z</time>
      </trkpt>
      <trkpt lat="43.76839" lon="3.53163">
        <ele>480.265625</ele>
        <time>2020-10-29T11:42:02Z</time>
      </trkpt>
      <trkpt lat="43.76834" lon="3.53165">
        <ele>480.03125</ele>
        <time>2020-10-29T11:42:10Z</time>
      </trkpt>
      <trkpt lat="43.76827" lon="3.53169">
        <ele>479.55859375</ele>
        <time>2020-10-29T11:42:19Z</time>
      </trkpt>
      <trkpt lat="43.76818" lon="3.53178">
        <ele>479</ele>
        <time>2020-10-29T11:42:31Z</time>
      </trkpt>
      <trkpt lat="43.76814" lon="3.53188">
        <ele>478.99609375</ele>
        <time>2020-10-29T11:42:41Z</time>
      </trkpt>
      <trkpt lat="43.76814" lon="3.53193">
        <ele>479.09765625</ele>
        <time>2020-10-29T11:42:45Z</time>
      </trkpt>
      <trkpt lat="43.76814" lon="3.53204">
        <ele>479.35546875</ele>
        <time>2020-10-29T11:42:53Z</time>
      </trkpt>
      <trkpt lat="43.76808" lon="3.53214">
        <ele>479.48046875</ele>
        <time>2020-10-29T11:43:03Z</time>
      </trkpt>
      <trkpt lat="43.768" lon="3.53214">
        <ele>479.3515625</ele>
        <time>2020-10-29T11:43:14Z</time>
      </trkpt>
      <trkpt lat="43.76795" lon="3.53215">
        <ele>479.2734375</ele>
        <time>2020-10-29T11:43:19Z</time>
      </trkpt>
      <trkpt lat="43.76782" lon="3.53214">
        <ele>479</ele>
        <time>2020-10-29T11:43:32Z</time>
      </trkpt>
      <trkpt lat="43.76778" lon="3.53216">
        <ele>479.00390625</ele>
        <time>2020-10-29T11:43:37Z</time>
      </trkpt>
      <trkpt lat="43.76767" lon="3.53209">
        <ele>477.87890625</ele>
        <time>2020-10-29T11:43:49Z</time>
      </trkpt>
      <trkpt lat="43.76759" lon="3.53202">
        <ele>476.87109375</ele>
        <time>2020-10-29T11:44:00Z</time>
      </trkpt>
      <trkpt lat="43.7675" lon="3.53198">
        <ele>476.07421875</ele>
        <time>2020-10-29T11:44:10Z</time>
      </trkpt>
      <trkpt lat="43.76739" lon="3.532">
        <ele>475.44140625</ele>
        <time>2020-10-29T11:44:21Z</time>
      </trkpt>
      <trkpt lat="43.76728" lon="3.53201">
        <ele>474.8359375</ele>
        <time>2020-10-29T11:44:32Z</time>
      </trkpt>
      <trkpt lat="43.76718" lon="3.53204">
        <ele>474.41015625</ele>
        <time>2020-10-29T11:44:42Z</time>
      </trkpt>
      <trkpt lat="43.7671" lon="3.53213">
        <ele>474.34765625</ele>
        <time>2020-10-29T11:44:53Z</time>
      </trkpt>
      <trkpt lat="43.76703" lon="3.53223">
        <ele>474.31640625</ele>
        <time>2020-10-29T11:45:04Z</time>
      </trkpt>
      <trkpt lat="43.76698" lon="3.53228">
        <ele>474.18359375</ele>
        <time>2020-10-29T11:45:11Z</time>
      </trkpt>
      <trkpt lat="43.7669" lon="3.53238">
        <ele>474.09375</ele>
        <time>2020-10-29T11:45:22Z</time>
      </trkpt>
      <trkpt lat="43.76682" lon="3.53246">
        <ele>473.76953125</ele>
        <time>2020-10-29T11:45:32Z</time>
      </trkpt>
      <trkpt lat="43.76675" lon="3.53253">
        <ele>473.296875</ele>
        <time>2020-10-29T11:45:42Z</time>
      </trkpt>
      <trkpt lat="43.76668" lon="3.53259">
        <ele>472.640625</ele>
        <time>2020-10-29T11:45:52Z</time>
      </trkpt>
      <trkpt lat="43.7666" lon="3.53267">
        <ele>472.203125</ele>
        <time>2020-10-29T11:46:02Z</time>
      </trkpt>
      <trkpt lat="43.76654" lon="3.53272">
        <ele>471.890625</ele>
        <time>2020-10-29T11:46:10Z</time>
      </trkpt>
      <trkpt lat="43.76646" lon="3.5328">
        <ele>471.42578125</ele>
        <time>2020-10-29T11:46:20Z</time>
      </trkpt>
      <trkpt lat="43.76636" lon="3.53288">
        <ele>470.93359375</ele>
        <time>2020-10-29T11:46:31Z</time>
      </trkpt>
      <trkpt lat="43.76625" lon="3.53297">
        <ele>470.359375</ele>
        <time>2020-10-29T11:46:43Z</time>
      </trkpt>
      <trkpt lat="43.76618" lon="3.53305">
        <ele>469.95703125</ele>
        <time>2020-10-29T11:46:52Z</time>
      </trkpt>
      <trkpt lat="43.76608" lon="3.53315">
        <ele>469.3984375</ele>
        <time>2020-10-29T11:47:04Z</time>
      </trkpt>
      <trkpt lat="43.76597" lon="3.53325">
        <ele>469.17578125</ele>
        <time>2020-10-29T11:47:16Z</time>
      </trkpt>
      <trkpt lat="43.76591" lon="3.53331">
        <ele>469.04296875</ele>
        <time>2020-10-29T11:47:23Z</time>
      </trkpt>
      <trkpt lat="43.76584" lon="3.53336">
        <ele>468.9140625</ele>
        <time>2020-10-29T11:47:31Z</time>
      </trkpt>
      <trkpt lat="43.76574" lon="3.53342">
        <ele>468.75</ele>
        <time>2020-10-29T11:47:41Z</time>
      </trkpt>
      <trkpt lat="43.76567" lon="3.53346">
        <ele>468.67578125</ele>
        <time>2020-10-29T11:47:49Z</time>
      </trkpt>
      <trkpt lat="43.76557" lon="3.53347">
        <ele>468.3125</ele>
        <time>2020-10-29T11:47:59Z</time>
      </trkpt>
      <trkpt lat="43.76554" lon="3.53349">
        <ele>468.25</ele>
        <time>2020-10-29T11:48:02Z</time>
      </trkpt>
      <trkpt lat="43.76546" lon="3.53355">
        <ele>468.12890625</ele>
        <time>2020-10-29T11:48:11Z</time>
      </trkpt>
      <trkpt lat="43.76541" lon="3.53358">
        <ele>468.0390625</ele>
        <time>2020-10-29T11:48:17Z</time>
      </trkpt>
      <trkpt lat="43.76539" lon="3.53359">
        <ele>467.96875</ele>
        <time>2020-10-29T11:48:20Z</time>
      </trkpt>
      <trkpt lat="43.76535" lon="3.53365">
        <ele>467.97265625</ele>
        <time>2020-10-29T11:48:25Z</time>
      </trkpt>
      <trkpt lat="43.76532" lon="3.53367">
        <ele>467.93359375</ele>
        <time>2020-10-29T11:48:28Z</time>
      </trkpt>
      <trkpt lat="43.76527" lon="3.53369">
        <ele>467.7265625</ele>
        <time>2020-10-29T11:48:33Z</time>
      </trkpt>
      <trkpt lat="43.76522" lon="3.53374">
        <ele>467.6328125</ele>
        <time>2020-10-29T11:48:38Z</time>
      </trkpt>
      <trkpt lat="43.76517" lon="3.53379">
        <ele>467.5234375</ele>
        <time>2020-10-29T11:48:44Z</time>
      </trkpt>
      <trkpt lat="43.76508" lon="3.53383">
        <ele>467.13671875</ele>
        <time>2020-10-29T11:48:55Z</time>
      </trkpt>
      <trkpt lat="43.765" lon="3.53379">
        <ele>466.7109375</ele>
        <time>2020-10-29T11:49:04Z</time>
      </trkpt>
      <trkpt lat="43.76495" lon="3.53381">
        <ele>466.7109375</ele>
        <time>2020-10-29T11:49:10Z</time>
      </trkpt>
      <trkpt lat="43.76492" lon="3.53381">
        <ele>466.703125</ele>
        <time>2020-10-29T11:49:14Z</time>
      </trkpt>
      <trkpt lat="43.76481" lon="3.53389">
        <ele>466.65625</ele>
        <time>2020-10-29T11:49:25Z</time>
      </trkpt>
      <trkpt lat="43.76474" lon="3.53388">
        <ele>466.58203125</ele>
        <time>2020-10-29T11:49:31Z</time>
      </trkpt>
      <trkpt lat="43.76461" lon="3.53378">
        <ele>466.6484375</ele>
        <time>2020-10-29T11:49:45Z</time>
      </trkpt>
      <trkpt lat="43.76459" lon="3.5337">
        <ele>466.82421875</ele>
        <time>2020-10-29T11:49:53Z</time>
      </trkpt>
      <trkpt lat="43.76459" lon="3.53366">
        <ele>466.90625</ele>
        <time>2020-10-29T11:50:03Z</time>
      </trkpt>
      <trkpt lat="43.76462" lon="3.53371">
        <ele>466.7890625</ele>
        <time>2020-10-29T11:50:12Z</time>
      </trkpt>
      <trkpt lat="43.76467" lon="3.53387">
        <ele>466.52734375</ele>
        <time>2020-10-29T11:50:23Z</time>
      </trkpt>
      <trkpt lat="43.76469" lon="3.53399">
        <ele>466.45703125</ele>
        <time>2020-10-29T11:50:32Z</time>
      </trkpt>
      <trkpt lat="43.76468" lon="3.53408">
        <ele>466.46484375</ele>
        <time>2020-10-29T11:50:42Z</time>
      </trkpt>
      <trkpt lat="43.76466" lon="3.53416">
        <ele>466.4375</ele>
        <time>2020-10-29T11:50:53Z</time>
      </trkpt>
      <trkpt lat="43.76465" lon="3.53421">
        <ele>466.39453125</ele>
        <time>2020-10-29T11:50:57Z</time>
      </trkpt>
      <trkpt lat="43.76462" lon="3.53425">
        <ele>466.29296875</ele>
        <time>2020-10-29T11:51:01Z</time>
      </trkpt>
      <trkpt lat="43.76458" lon="3.53435">
        <ele>466.0390625</ele>
        <time>2020-10-29T11:51:10Z</time>
      </trkpt>
      <trkpt lat="43.76457" lon="3.53438">
        <ele>465.98046875</ele>
        <time>2020-10-29T11:51:12Z</time>
      </trkpt>
      <trkpt lat="43.76451" lon="3.53453">
        <ele>465.4453125</ele>
        <time>2020-10-29T11:51:22Z</time>
      </trkpt>
      <trkpt lat="43.76447" lon="3.53465">
        <ele>465.17578125</ele>
        <time>2020-10-29T11:51:32Z</time>
      </trkpt>
      <trkpt lat="43.76442" lon="3.53477">
        <ele>465.1015625</ele>
        <time>2020-10-29T11:51:41Z</time>
      </trkpt>
      <trkpt lat="43.76441" lon="3.53478">
        <ele>465.12890625</ele>
        <time>2020-10-29T11:51:42Z</time>
      </trkpt>
      <trkpt lat="43.76432" lon="3.53488">
        <ele>465.5390625</ele>
        <time>2020-10-29T11:51:51Z</time>
      </trkpt>
      <trkpt lat="43.76429" lon="3.53493">
        <ele>465.703125</ele>
        <time>2020-10-29T11:51:56Z</time>
      </trkpt>
      <trkpt lat="43.76417" lon="3.53501">
        <ele>466.359375</ele>
        <time>2020-10-29T11:52:06Z</time>
      </trkpt>
      <trkpt lat="43.76415" lon="3.53501">
        <ele>466.5</ele>
        <time>2020-10-29T11:52:08Z</time>
      </trkpt>
      <trkpt lat="43.76403" lon="3.53505">
        <ele>467.22265625</ele>
        <time>2020-10-29T11:52:19Z</time>
      </trkpt>
      <trkpt lat="43.76392" lon="3.53506">
        <ele>467.8203125</ele>
        <time>2020-10-29T11:52:29Z</time>
      </trkpt>
      <trkpt lat="43.76384" lon="3.53506">
        <ele>468.81640625</ele>
        <time>2020-10-29T11:52:36Z</time>
      </trkpt>
      <trkpt lat="43.76372" lon="3.53508">
        <ele>470.82421875</ele>
        <time>2020-10-29T11:52:46Z</time>
      </trkpt>
      <trkpt lat="43.76362" lon="3.53513">
        <ele>472.5546875</ele>
        <time>2020-10-29T11:52:56Z</time>
      </trkpt>
      <trkpt lat="43.76354" lon="3.53517">
        <ele>474.00390625</ele>
        <time>2020-10-29T11:53:04Z</time>
      </trkpt>
      <trkpt lat="43.76352" lon="3.53518">
        <ele>474.34765625</ele>
        <time>2020-10-29T11:53:06Z</time>
      </trkpt>
      <trkpt lat="43.76339" lon="3.53524">
        <ele>476.26953125</ele>
        <time>2020-10-29T11:53:18Z</time>
      </trkpt>
      <trkpt lat="43.76338" lon="3.53524">
        <ele>476.41015625</ele>
        <time>2020-10-29T11:53:19Z</time>
      </trkpt>
      <trkpt lat="43.76328" lon="3.53527">
        <ele>477.75390625</ele>
        <time>2020-10-29T11:53:28Z</time>
      </trkpt>
      <trkpt lat="43.76321" lon="3.53529">
        <ele>478.66015625</ele>
        <time>2020-10-29T11:53:35Z</time>
      </trkpt>
      <trkpt lat="43.76317" lon="3.53532">
        <ele>479.16796875</ele>
        <time>2020-10-29T11:53:39Z</time>
      </trkpt>
      <trkpt lat="43.76309" lon="3.53539">
        <ele>480.0234375</ele>
        <time>2020-10-29T11:53:47Z</time>
      </trkpt>
      <trkpt lat="43.76304" lon="3.53545">
        <ele>480.55078125</ele>
        <time>2020-10-29T11:53:56Z</time>
      </trkpt>
      <trkpt lat="43.76301" lon="3.53548">
        <ele>480.76953125</ele>
        <time>2020-10-29T11:54:00Z</time>
      </trkpt>
      <trkpt lat="43.76292" lon="3.53559">
        <ele>481.55859375</ele>
        <time>2020-10-29T11:54:13Z</time>
      </trkpt>
      <trkpt lat="43.76283" lon="3.53567">
        <ele>482.66796875</ele>
        <time>2020-10-29T11:54:24Z</time>
      </trkpt>
      <trkpt lat="43.76276" lon="3.53572">
        <ele>483.609375</ele>
        <time>2020-10-29T11:54:32Z</time>
      </trkpt>
      <trkpt lat="43.76269" lon="3.53575">
        <ele>484.62890625</ele>
        <time>2020-10-29T11:54:40Z</time>
      </trkpt>
      <trkpt lat="43.76261" lon="3.53568">
        <ele>485.38671875</ele>
        <time>2020-10-29T11:54:51Z</time>
      </trkpt>
      <trkpt lat="43.76263" lon="3.53561">
        <ele>484.94140625</ele>
        <time>2020-10-29T11:54:57Z</time>
      </trkpt>
      <trkpt lat="43.76266" lon="3.53555">
        <ele>484.67578125</ele>
        <time>2020-10-29T11:55:01Z</time>
      </trkpt>
      <trkpt lat="43.76273" lon="3.53546">
        <ele>484.1484375</ele>
        <time>2020-10-29T11:55:11Z</time>
      </trkpt>
      <trkpt lat="43.76277" lon="3.5354">
        <ele>483.8984375</ele>
        <time>2020-10-29T11:55:18Z</time>
      </trkpt>
      <trkpt lat="43.7628" lon="3.53534">
        <ele>483.8203125</ele>
        <time>2020-10-29T11:55:22Z</time>
      </trkpt>
      <trkpt lat="43.7628" lon="3.5353">
        <ele>483.91796875</ele>
        <time>2020-10-29T11:55:25Z</time>
      </trkpt>
      <trkpt lat="43.76279" lon="3.53515">
        <ele>484.59765625</ele>
        <time>2020-10-29T11:55:35Z</time>
      </trkpt>
      <trkpt lat="43.76278" lon="3.5351">
        <ele>484.91796875</ele>
        <time>2020-10-29T11:55:41Z</time>
      </trkpt>
      <trkpt lat="43.76277" lon="3.53508">
        <ele>485.0703125</ele>
        <time>2020-10-29T11:55:43Z</time>
      </trkpt>
      <trkpt lat="43.76273" lon="3.5349">
        <ele>486.33984375</ele>
        <time>2020-10-29T11:55:55Z</time>
      </trkpt>
      <trkpt lat="43.7627" lon="3.53477">
        <ele>487.3984375</ele>
        <time>2020-10-29T11:56:05Z</time>
      </trkpt>
      <trkpt lat="43.76268" lon="3.53464">
        <ele>488.421875</ele>
        <time>2020-10-29T11:56:14Z</time>
      </trkpt>
      <trkpt lat="43.76263" lon="3.53447">
        <ele>489.75</ele>
        <time>2020-10-29T11:56:27Z</time>
      </trkpt>
      <trkpt lat="43.7626" lon="3.53439">
        <ele>490.33984375</ele>
        <time>2020-10-29T11:56:35Z</time>
      </trkpt>
      <trkpt lat="43.76255" lon="3.53431">
        <ele>491.06640625</ele>
        <time>2020-10-29T11:56:43Z</time>
      </trkpt>
      <trkpt lat="43.76244" lon="3.53424">
        <ele>492.30859375</ele>
        <time>2020-10-29T11:56:54Z</time>
      </trkpt>
      <trkpt lat="43.76234" lon="3.53423">
        <ele>493.3828125</ele>
        <time>2020-10-29T11:57:05Z</time>
      </trkpt>
      <trkpt lat="43.76225" lon="3.53424">
        <ele>494.27734375</ele>
        <time>2020-10-29T11:57:15Z</time>
      </trkpt>
      <trkpt lat="43.76212" lon="3.53425">
        <ele>496.08203125</ele>
        <time>2020-10-29T11:57:28Z</time>
      </trkpt>
      <trkpt lat="43.76202" lon="3.53426">
        <ele>497.59765625</ele>
        <time>2020-10-29T11:57:38Z</time>
      </trkpt>
      <trkpt lat="43.76189" lon="3.53426">
        <ele>499.5859375</ele>
        <time>2020-10-29T11:57:51Z</time>
      </trkpt>
      <trkpt lat="43.76173" lon="3.53426">
        <ele>502.01171875</ele>
        <time>2020-10-29T11:58:06Z</time>
      </trkpt>
      <trkpt lat="43.76162" lon="3.53426">
        <ele>504.05859375</ele>
        <time>2020-10-29T11:58:17Z</time>
      </trkpt>
      <trkpt lat="43.76152" lon="3.53431">
        <ele>505.98046875</ele>
        <time>2020-10-29T11:58:27Z</time>
      </trkpt>
      <trkpt lat="43.76144" lon="3.53435">
        <ele>507.6484375</ele>
        <time>2020-10-29T11:58:36Z</time>
      </trkpt>
      <trkpt lat="43.76142" lon="3.53435">
        <ele>508.0546875</ele>
        <time>2020-10-29T11:58:38Z</time>
      </trkpt>
      <trkpt lat="43.76139" lon="3.53428">
        <ele>508.87890625</ele>
        <time>2020-10-29T11:58:46Z</time>
      </trkpt>
      <trkpt lat="43.76139" lon="3.53428">
        <ele>508.83203125</ele>
        <time>2020-10-29T11:58:56Z</time>
      </trkpt>
      <trkpt lat="43.7614" lon="3.53427">
        <ele>508.70703125</ele>
        <time>2020-10-29T11:59:07Z</time>
      </trkpt>
      <trkpt lat="43.76141" lon="3.53426">
        <ele>508.453125</ele>
        <time>2020-10-29T11:59:22Z</time>
      </trkpt>
      <trkpt lat="43.76142" lon="3.53426">
        <ele>508.3125</ele>
        <time>2020-10-29T11:59:25Z</time>
      </trkpt>
      <trkpt lat="43.76142" lon="3.53425">
        <ele>508.421875</ele>
        <time>2020-10-29T11:59:36Z</time>
      </trkpt>
      <trkpt lat="43.76142" lon="3.53426">
        <ele>508.40625</ele>
        <time>2020-10-29T11:59:49Z</time>
      </trkpt>
      <trkpt lat="43.76142" lon="3.53426">
        <ele>508.2421875</ele>
        <time>2020-10-29T12:00:07Z</time>
      </trkpt>
      <trkpt lat="43.76144" lon="3.53426">
        <ele>507.95703125</ele>
        <time>2020-10-29T12:00:17Z</time>
      </trkpt>
      <trkpt lat="43.76144" lon="3.53426">
        <ele>507.875</ele>
        <time>2020-10-29T12:00:33Z</time>
      </trkpt>
      <trkpt lat="43.76144" lon="3.53427">
        <ele>507.7578125</ele>
        <time>2020-10-29T12:00:57Z</time>
      </trkpt>
      <trkpt lat="43.76144" lon="3.53426">
        <ele>507.8046875</ele>
        <time>2020-10-29T12:01:22Z</time>
      </trkpt>
      <trkpt lat="43.76144" lon="3.53427">
        <ele>507.91796875</ele>
        <time>2020-10-29T12:01:38Z</time>
      </trkpt>
      <trkpt lat="43.76144" lon="3.53427">
        <ele>507.82421875</ele>
        <time>2020-10-29T12:02:06Z</time>
      </trkpt>
      <trkpt lat="43.7615" lon="3.53419">
        <ele>506.71875</ele>
        <time>2020-10-29T12:02:17Z</time>
      </trkpt>
      <trkpt lat="43.76152" lon="3.53418">
        <ele>506.46875</ele>
        <time>2020-10-29T12:02:19Z</time>
      </trkpt>
      <trkpt lat="43.76157" lon="3.53408">
        <ele>505.796875</ele>
        <time>2020-10-29T12:02:29Z</time>
      </trkpt>
      <trkpt lat="43.76157" lon="3.53397">
        <ele>506.06640625</ele>
        <time>2020-10-29T12:02:38Z</time>
      </trkpt>
      <trkpt lat="43.76156" lon="3.53387">
        <ele>505.0859375</ele>
        <time>2020-10-29T12:02:48Z</time>
      </trkpt>
      <trkpt lat="43.7615" lon="3.53376">
        <ele>504.58203125</ele>
        <time>2020-10-29T12:03:00Z</time>
      </trkpt>
      <trkpt lat="43.76142" lon="3.53367">
        <ele>504.67578125</ele>
        <time>2020-10-29T12:03:11Z</time>
      </trkpt>
      <trkpt lat="43.76136" lon="3.53358">
        <ele>504.5390625</ele>
        <time>2020-10-29T12:03:21Z</time>
      </trkpt>
      <trkpt lat="43.76128" lon="3.53349">
        <ele>504.53515625</ele>
        <time>2020-10-29T12:03:32Z</time>
      </trkpt>
      <trkpt lat="43.76119" lon="3.53339">
        <ele>504.2421875</ele>
        <time>2020-10-29T12:03:44Z</time>
      </trkpt>
      <trkpt lat="43.76115" lon="3.53332">
        <ele>503.51171875</ele>
        <time>2020-10-29T12:03:51Z</time>
      </trkpt>
      <trkpt lat="43.76109" lon="3.53319">
        <ele>500.9453125</ele>
        <time>2020-10-29T12:04:03Z</time>
      </trkpt>
      <trkpt lat="43.76109" lon="3.53318">
        <ele>500.66796875</ele>
        <time>2020-10-29T12:04:04Z</time>
      </trkpt>
      <trkpt lat="43.76106" lon="3.53306">
        <ele>497.64453125</ele>
        <time>2020-10-29T12:04:14Z</time>
      </trkpt>
      <trkpt lat="43.761" lon="3.53293">
        <ele>494.23828125</ele>
        <time>2020-10-29T12:04:25Z</time>
      </trkpt>
      <trkpt lat="43.76092" lon="3.53285">
        <ele>491.9375</ele>
        <time>2020-10-29T12:04:36Z</time>
      </trkpt>
      <trkpt lat="43.76083" lon="3.53278">
        <ele>490.26171875</ele>
        <time>2020-10-29T12:04:48Z</time>
      </trkpt>
      <trkpt lat="43.76076" lon="3.53273">
        <ele>488.98046875</ele>
        <time>2020-10-29T12:04:59Z</time>
      </trkpt>
      <trkpt lat="43.7607" lon="3.53269">
        <ele>488.13671875</ele>
        <time>2020-10-29T12:05:07Z</time>
      </trkpt>
      <trkpt lat="43.76062" lon="3.53264">
        <ele>487.1328125</ele>
        <time>2020-10-29T12:05:17Z</time>
      </trkpt>
      <trkpt lat="43.76057" lon="3.53261">
        <ele>486.51953125</ele>
        <time>2020-10-29T12:05:25Z</time>
      </trkpt>
      <trkpt lat="43.76051" lon="3.53257">
        <ele>485.3203125</ele>
        <time>2020-10-29T12:05:32Z</time>
      </trkpt>
      <trkpt lat="43.76036" lon="3.53248">
        <ele>482.81640625</ele>
        <time>2020-10-29T12:05:46Z</time>
      </trkpt>
      <trkpt lat="43.7603" lon="3.53243">
        <ele>481.7890625</ele>
        <time>2020-10-29T12:05:55Z</time>
      </trkpt>
      <trkpt lat="43.76021" lon="3.53233">
        <ele>480.3359375</ele>
        <time>2020-10-29T12:06:07Z</time>
      </trkpt>
      <trkpt lat="43.76014" lon="3.53223">
        <ele>479.30859375</ele>
        <time>2020-10-29T12:06:18Z</time>
      </trkpt>
      <trkpt lat="43.76005" lon="3.53211">
        <ele>478.21875</ele>
        <time>2020-10-29T12:06:30Z</time>
      </trkpt>
      <trkpt lat="43.75998" lon="3.53201">
        <ele>476.94140625</ele>
        <time>2020-10-29T12:06:41Z</time>
      </trkpt>
      <trkpt lat="43.75997" lon="3.532">
        <ele>476.73828125</ele>
        <time>2020-10-29T12:06:42Z</time>
      </trkpt>
      <trkpt lat="43.75989" lon="3.53188">
        <ele>474.44140625</ele>
        <time>2020-10-29T12:06:54Z</time>
      </trkpt>
      <trkpt lat="43.75983" lon="3.53173">
        <ele>472.4921875</ele>
        <time>2020-10-29T12:07:05Z</time>
      </trkpt>
      <trkpt lat="43.75977" lon="3.53154">
        <ele>470.05859375</ele>
        <time>2020-10-29T12:07:18Z</time>
      </trkpt>
      <trkpt lat="43.75973" lon="3.5314">
        <ele>468.3828125</ele>
        <time>2020-10-29T12:07:28Z</time>
      </trkpt>
      <trkpt lat="43.75968" lon="3.53127">
        <ele>466.72265625</ele>
        <time>2020-10-29T12:07:38Z</time>
      </trkpt>
      <trkpt lat="43.75964" lon="3.53114">
        <ele>465.30078125</ele>
        <time>2020-10-29T12:07:47Z</time>
      </trkpt>
      <trkpt lat="43.75964" lon="3.53111">
        <ele>465.11328125</ele>
        <time>2020-10-29T12:07:49Z</time>
      </trkpt>
      <trkpt lat="43.75961" lon="3.531">
        <ele>464.31640625</ele>
        <time>2020-10-29T12:07:57Z</time>
      </trkpt>
      <trkpt lat="43.7596" lon="3.53096">
        <ele>463.9296875</ele>
        <time>2020-10-29T12:08:00Z</time>
      </trkpt>
      <trkpt lat="43.75955" lon="3.53081">
        <ele>462.84765625</ele>
        <time>2020-10-29T12:08:12Z</time>
      </trkpt>
      <trkpt lat="43.75951" lon="3.53067">
        <ele>461.9375</ele>
        <time>2020-10-29T12:08:25Z</time>
      </trkpt>
      <trkpt lat="43.75948" lon="3.53055">
        <ele>460.78515625</ele>
        <time>2020-10-29T12:08:36Z</time>
      </trkpt>
      <trkpt lat="43.75947" lon="3.53051">
        <ele>460.41015625</ele>
        <time>2020-10-29T12:08:45Z</time>
      </trkpt>
      <trkpt lat="43.75944" lon="3.53038">
        <ele>458.87890625</ele>
        <time>2020-10-29T12:08:57Z</time>
      </trkpt>
      <trkpt lat="43.75942" lon="3.53023">
        <ele>457.49609375</ele>
        <time>2020-10-29T12:09:07Z</time>
      </trkpt>
      <trkpt lat="43.75938" lon="3.53015">
        <ele>455.828125</ele>
        <time>2020-10-29T12:09:13Z</time>
      </trkpt>
      <trkpt lat="43.75929" lon="3.53006">
        <ele>453.0703125</ele>
        <time>2020-10-29T12:09:24Z</time>
      </trkpt>
      <trkpt lat="43.75921" lon="3.53004">
        <ele>451.18359375</ele>
        <time>2020-10-29T12:09:31Z</time>
      </trkpt>
      <trkpt lat="43.75918" lon="3.53001">
        <ele>450.03125</ele>
        <time>2020-10-29T12:09:35Z</time>
      </trkpt>
      <trkpt lat="43.75914" lon="3.52996">
        <ele>448.5703125</ele>
        <time>2020-10-29T12:09:40Z</time>
      </trkpt>
      <trkpt lat="43.75915" lon="3.52979">
        <ele>446.6796875</ele>
        <time>2020-10-29T12:09:51Z</time>
      </trkpt>
      <trkpt lat="43.75922" lon="3.52969">
        <ele>447.1015625</ele>
        <time>2020-10-29T12:10:00Z</time>
      </trkpt>
      <trkpt lat="43.75935" lon="3.52968">
        <ele>449.46875</ele>
        <time>2020-10-29T12:10:11Z</time>
      </trkpt>
      <trkpt lat="43.75946" lon="3.5296">
        <ele>450.1484375</ele>
        <time>2020-10-29T12:10:23Z</time>
      </trkpt>
      <trkpt lat="43.75949" lon="3.52949">
        <ele>448.3046875</ele>
        <time>2020-10-29T12:10:31Z</time>
      </trkpt>
      <trkpt lat="43.7595" lon="3.52937">
        <ele>446.0390625</ele>
        <time>2020-10-29T12:10:43Z</time>
      </trkpt>
      <trkpt lat="43.75951" lon="3.52928">
        <ele>444.41796875</ele>
        <time>2020-10-29T12:10:55Z</time>
      </trkpt>
      <trkpt lat="43.7595" lon="3.5292">
        <ele>442.9140625</ele>
        <time>2020-10-29T12:11:06Z</time>
      </trkpt>
      <trkpt lat="43.75949" lon="3.52913">
        <ele>441.7265625</ele>
        <time>2020-10-29T12:11:15Z</time>
      </trkpt>
      <trkpt lat="43.75945" lon="3.52904">
        <ele>440.3359375</ele>
        <time>2020-10-29T12:11:27Z</time>
      </trkpt>
      <trkpt lat="43.75944" lon="3.52903">
        <ele>440.15625</ele>
        <time>2020-10-29T12:11:37Z</time>
      </trkpt>
      <trkpt lat="43.75942" lon="3.52898">
        <ele>439.046875</ele>
        <time>2020-10-29T12:11:51Z</time>
      </trkpt>
      <trkpt lat="43.75943" lon="3.52893">
        <ele>438.39453125</ele>
        <time>2020-10-29T12:11:57Z</time>
      </trkpt>
      <trkpt lat="43.75941" lon="3.52888">
        <ele>437.46875</ele>
        <time>2020-10-29T12:12:06Z</time>
      </trkpt>
      <trkpt lat="43.7594" lon="3.52884">
        <ele>436.8359375</ele>
        <time>2020-10-29T12:12:13Z</time>
      </trkpt>
      <trkpt lat="43.75939" lon="3.52884">
        <ele>436.72265625</ele>
        <time>2020-10-29T12:12:23Z</time>
      </trkpt>
      <trkpt lat="43.75935" lon="3.52883">
        <ele>436.4609375</ele>
        <time>2020-10-29T12:12:28Z</time>
      </trkpt>
      <trkpt lat="43.75921" lon="3.52885">
        <ele>435.58984375</ele>
        <time>2020-10-29T12:12:41Z</time>
      </trkpt>
      <trkpt lat="43.75907" lon="3.52891">
        <ele>435.07421875</ele>
        <time>2020-10-29T12:12:54Z</time>
      </trkpt>
      <trkpt lat="43.75905" lon="3.52901">
        <ele>435.98828125</ele>
        <time>2020-10-29T12:13:05Z</time>
      </trkpt>
      <trkpt lat="43.75902" lon="3.52912">
        <ele>436.94921875</ele>
        <time>2020-10-29T12:13:16Z</time>
      </trkpt>
      <trkpt lat="43.75897" lon="3.52925">
        <ele>437.609375</ele>
        <time>2020-10-29T12:13:29Z</time>
      </trkpt>
      <trkpt lat="43.75888" lon="3.52939">
        <ele>437.8828125</ele>
        <time>2020-10-29T12:13:41Z</time>
      </trkpt>
      <trkpt lat="43.7588" lon="3.52945">
        <ele>438.56640625</ele>
        <time>2020-10-29T12:13:49Z</time>
      </trkpt>
      <trkpt lat="43.7587" lon="3.5295">
        <ele>439.2109375</ele>
        <time>2020-10-29T12:13:59Z</time>
      </trkpt>
      <trkpt lat="43.75864" lon="3.52956">
        <ele>439.89453125</ele>
        <time>2020-10-29T12:14:08Z</time>
      </trkpt>
      <trkpt lat="43.75854" lon="3.52967">
        <ele>441.05859375</ele>
        <time>2020-10-29T12:14:22Z</time>
      </trkpt>
      <trkpt lat="43.75846" lon="3.52973">
        <ele>441.7421875</ele>
        <time>2020-10-29T12:14:31Z</time>
      </trkpt>
      <trkpt lat="43.75841" lon="3.52964">
        <ele>441.0234375</ele>
        <time>2020-10-29T12:14:40Z</time>
      </trkpt>
      <trkpt lat="43.75844" lon="3.52952">
        <ele>439.83984375</ele>
        <time>2020-10-29T12:14:48Z</time>
      </trkpt>
      <trkpt lat="43.7585" lon="3.52938">
        <ele>438.6796875</ele>
        <time>2020-10-29T12:14:58Z</time>
      </trkpt>
      <trkpt lat="43.75854" lon="3.5293">
        <ele>437.95703125</ele>
        <time>2020-10-29T12:15:06Z</time>
      </trkpt>
      <trkpt lat="43.75861" lon="3.5292">
        <ele>436.94140625</ele>
        <time>2020-10-29T12:15:18Z</time>
      </trkpt>
      <trkpt lat="43.75862" lon="3.52912">
        <ele>436.24609375</ele>
        <time>2020-10-29T12:15:24Z</time>
      </trkpt>
      <trkpt lat="43.75861" lon="3.52904">
        <ele>435.640625</ele>
        <time>2020-10-29T12:15:30Z</time>
      </trkpt>
      <trkpt lat="43.75859" lon="3.52899">
        <ele>435.375</ele>
        <time>2020-10-29T12:15:33Z</time>
      </trkpt>
      <trkpt lat="43.75849" lon="3.52895">
        <ele>435.37890625</ele>
        <time>2020-10-29T12:15:42Z</time>
      </trkpt>
      <trkpt lat="43.75842" lon="3.52886">
        <ele>434.80859375</ele>
        <time>2020-10-29T12:15:50Z</time>
      </trkpt>
      <trkpt lat="43.75838" lon="3.5287">
        <ele>433.51953125</ele>
        <time>2020-10-29T12:16:00Z</time>
      </trkpt>
      <trkpt lat="43.75836" lon="3.5286">
        <ele>432.69140625</ele>
        <time>2020-10-29T12:16:07Z</time>
      </trkpt>
      <trkpt lat="43.75836" lon="3.52845">
        <ele>431.33984375</ele>
        <time>2020-10-29T12:16:16Z</time>
      </trkpt>
      <trkpt lat="43.7584" lon="3.5283">
        <ele>430.35546875</ele>
        <time>2020-10-29T12:16:25Z</time>
      </trkpt>
      <trkpt lat="43.75844" lon="3.52814">
        <ele>429.48828125</ele>
        <time>2020-10-29T12:16:34Z</time>
      </trkpt>
      <trkpt lat="43.75845" lon="3.52799">
        <ele>428.7265625</ele>
        <time>2020-10-29T12:16:43Z</time>
      </trkpt>
      <trkpt lat="43.75844" lon="3.5279">
        <ele>428.23828125</ele>
        <time>2020-10-29T12:16:50Z</time>
      </trkpt>
      <trkpt lat="43.75841" lon="3.52778">
        <ele>427.94140625</ele>
        <time>2020-10-29T12:16:58Z</time>
      </trkpt>
      <trkpt lat="43.75841" lon="3.52775">
        <ele>427.90625</ele>
        <time>2020-10-29T12:17:00Z</time>
      </trkpt>
      <trkpt lat="43.7584" lon="3.52765">
        <ele>427.8046875</ele>
        <time>2020-10-29T12:17:08Z</time>
      </trkpt>
      <trkpt lat="43.75837" lon="3.52754">
        <ele>427.58984375</ele>
        <time>2020-10-29T12:17:17Z</time>
      </trkpt>
      <trkpt lat="43.75837" lon="3.52753">
        <ele>427.54296875</ele>
        <time>2020-10-29T12:17:18Z</time>
      </trkpt>
      <trkpt lat="43.75831" lon="3.52744">
        <ele>427.17578125</ele>
        <time>2020-10-29T12:17:25Z</time>
      </trkpt>
      <trkpt lat="43.75823" lon="3.5273">
        <ele>426.62109375</ele>
        <time>2020-10-29T12:17:36Z</time>
      </trkpt>
      <trkpt lat="43.75816" lon="3.5272">
        <ele>426.7421875</ele>
        <time>2020-10-29T12:17:45Z</time>
      </trkpt>
      <trkpt lat="43.75806" lon="3.52708">
        <ele>426.58203125</ele>
        <time>2020-10-29T12:17:57Z</time>
      </trkpt>
      <trkpt lat="43.75795" lon="3.52697">
        <ele>425.921875</ele>
        <time>2020-10-29T12:18:09Z</time>
      </trkpt>
      <trkpt lat="43.75787" lon="3.5269">
        <ele>425.109375</ele>
        <time>2020-10-29T12:18:19Z</time>
      </trkpt>
      <trkpt lat="43.75779" lon="3.52687">
        <ele>424.32421875</ele>
        <time>2020-10-29T12:18:28Z</time>
      </trkpt>
      <trkpt lat="43.75778" lon="3.52692">
        <ele>424.31640625</ele>
        <time>2020-10-29T12:18:36Z</time>
      </trkpt>
      <trkpt lat="43.75779" lon="3.52692">
        <ele>424.41015625</ele>
        <time>2020-10-29T12:18:50Z</time>
      </trkpt>
      <trkpt lat="43.7578" lon="3.52692">
        <ele>424.4375</ele>
        <time>2020-10-29T12:19:06Z</time>
      </trkpt>
      <trkpt lat="43.7578" lon="3.52691">
        <ele>424.51171875</ele>
        <time>2020-10-29T12:19:23Z</time>
      </trkpt>
      <trkpt lat="43.75778" lon="3.52682">
        <ele>424.13671875</ele>
        <time>2020-10-29T12:19:33Z</time>
      </trkpt>
      <trkpt lat="43.75773" lon="3.52673">
        <ele>423.890625</ele>
        <time>2020-10-29T12:19:43Z</time>
      </trkpt>
      <trkpt lat="43.75771" lon="3.5267">
        <ele>424.09765625</ele>
        <time>2020-10-29T12:19:52Z</time>
      </trkpt>
      <trkpt lat="43.7577" lon="3.52669">
        <ele>424.09375</ele>
        <time>2020-10-29T12:20:03Z</time>
      </trkpt>
      <trkpt lat="43.75771" lon="3.52669">
        <ele>424.09375</ele>
        <time>2020-10-29T12:20:20Z</time>
      </trkpt>
      <trkpt lat="43.75769" lon="3.52672">
        <ele>423.8359375</ele>
        <time>2020-10-29T12:20:41Z</time>
      </trkpt>
      <trkpt lat="43.75767" lon="3.52675">
        <ele>423.6171875</ele>
        <time>2020-10-29T12:20:55Z</time>
      </trkpt>
      <trkpt lat="43.75767" lon="3.52675">
        <ele>423.6171875</ele>
        <time>2020-10-29T12:21:05Z</time>
      </trkpt>
      <trkpt lat="43.75768" lon="3.52674">
        <ele>423.62109375</ele>
        <time>2020-10-29T12:21:20Z</time>
      </trkpt>
      <trkpt lat="43.75766" lon="3.52678">
        <ele>423.64453125</ele>
        <time>2020-10-29T12:21:25Z</time>
      </trkpt>
      <trkpt lat="43.75759" lon="3.52678">
        <ele>423.375</ele>
        <time>2020-10-29T12:21:31Z</time>
      </trkpt>
      <trkpt lat="43.75747" lon="3.52674">
        <ele>422.8984375</ele>
        <time>2020-10-29T12:21:41Z</time>
      </trkpt>
      <trkpt lat="43.75733" lon="3.52664">
        <ele>422.6953125</ele>
        <time>2020-10-29T12:21:54Z</time>
      </trkpt>
      <trkpt lat="43.75722" lon="3.52653">
        <ele>422.5078125</ele>
        <time>2020-10-29T12:22:05Z</time>
      </trkpt>
      <trkpt lat="43.75712" lon="3.52642">
        <ele>424.09765625</ele>
        <time>2020-10-29T12:22:16Z</time>
      </trkpt>
      <trkpt lat="43.75706" lon="3.52632">
        <ele>425.109375</ele>
        <time>2020-10-29T12:22:24Z</time>
      </trkpt>
      <trkpt lat="43.75702" lon="3.5262">
        <ele>425.98828125</ele>
        <time>2020-10-29T12:22:32Z</time>
      </trkpt>
      <trkpt lat="43.757" lon="3.52612">
        <ele>426.5703125</ele>
        <time>2020-10-29T12:22:38Z</time>
      </trkpt>
      <trkpt lat="43.75701" lon="3.52603">
        <ele>426.9609375</ele>
        <time>2020-10-29T12:22:43Z</time>
      </trkpt>
      <trkpt lat="43.75702" lon="3.52592">
        <ele>427.22265625</ele>
        <time>2020-10-29T12:22:52Z</time>
      </trkpt>
      <trkpt lat="43.75703" lon="3.52583">
        <ele>427.51171875</ele>
        <time>2020-10-29T12:23:00Z</time>
      </trkpt>
      <trkpt lat="43.75704" lon="3.52576">
        <ele>427.7109375</ele>
        <time>2020-10-29T12:23:04Z</time>
      </trkpt>
      <trkpt lat="43.75704" lon="3.52566">
        <ele>428.20703125</ele>
        <time>2020-10-29T12:23:10Z</time>
      </trkpt>
      <trkpt lat="43.75713" lon="3.52531">
        <ele>425.66796875</ele>
        <time>2020-10-29T12:23:33Z</time>
      </trkpt>
      <trkpt lat="43.7572" lon="3.52519">
        <ele>424.4921875</ele>
        <time>2020-10-29T12:23:45Z</time>
      </trkpt>
      <trkpt lat="43.75724" lon="3.5251">
        <ele>424.11328125</ele>
        <time>2020-10-29T12:23:55Z</time>
      </trkpt>
      <trkpt lat="43.75723" lon="3.52471">
        <ele>422.1015625</ele>
        <time>2020-10-29T12:24:19Z</time>
      </trkpt>
      <trkpt lat="43.75718" lon="3.52457">
        <ele>421.328125</ele>
        <time>2020-10-29T12:24:30Z</time>
      </trkpt>
      <trkpt lat="43.75716" lon="3.52455">
        <ele>421.1796875</ele>
        <time>2020-10-29T12:24:32Z</time>
      </trkpt>
      <trkpt lat="43.75711" lon="3.52444">
        <ele>421.44921875</ele>
        <time>2020-10-29T12:24:40Z</time>
      </trkpt>
      <trkpt lat="43.75706" lon="3.52437">
        <ele>421.7421875</ele>
        <time>2020-10-29T12:24:45Z</time>
      </trkpt>
      <trkpt lat="43.75704" lon="3.52434">
        <ele>421.83984375</ele>
        <time>2020-10-29T12:24:48Z</time>
      </trkpt>
      <trkpt lat="43.75701" lon="3.52429">
        <ele>422</ele>
        <time>2020-10-29T12:24:52Z</time>
      </trkpt>
      <trkpt lat="43.757" lon="3.52423">
        <ele>422.19921875</ele>
        <time>2020-10-29T12:24:56Z</time>
      </trkpt>
      <trkpt lat="43.75695" lon="3.5242">
        <ele>422.15625</ele>
        <time>2020-10-29T12:25:04Z</time>
      </trkpt>
      <trkpt lat="43.75688" lon="3.52418">
        <ele>421.9140625</ele>
        <time>2020-10-29T12:25:10Z</time>
      </trkpt>
      <trkpt lat="43.75672" lon="3.52413">
        <ele>421.24609375</ele>
        <time>2020-10-29T12:25:24Z</time>
      </trkpt>
      <trkpt lat="43.75657" lon="3.52412">
        <ele>420.65234375</ele>
        <time>2020-10-29T12:25:38Z</time>
      </trkpt>
      <trkpt lat="43.75649" lon="3.52412">
        <ele>420.390625</ele>
        <time>2020-10-29T12:25:45Z</time>
      </trkpt>
      <trkpt lat="43.75641" lon="3.5241">
        <ele>420.18359375</ele>
        <time>2020-10-29T12:25:52Z</time>
      </trkpt>
      <trkpt lat="43.75636" lon="3.52409">
        <ele>420.046875</ele>
        <time>2020-10-29T12:25:56Z</time>
      </trkpt>
      <trkpt lat="43.75621" lon="3.52407">
        <ele>419.71875</ele>
        <time>2020-10-29T12:26:10Z</time>
      </trkpt>
      <trkpt lat="43.75613" lon="3.52406">
        <ele>419.515625</ele>
        <time>2020-10-29T12:26:17Z</time>
      </trkpt>
      <trkpt lat="43.75596" lon="3.52403">
        <ele>419.0390625</ele>
        <time>2020-10-29T12:26:32Z</time>
      </trkpt>
      <trkpt lat="43.75591" lon="3.52402">
        <ele>418.90234375</ele>
        <time>2020-10-29T12:26:37Z</time>
      </trkpt>
      <trkpt lat="43.75587" lon="3.52402">
        <ele>418.7578125</ele>
        <time>2020-10-29T12:26:40Z</time>
      </trkpt>
      <trkpt lat="43.7558" lon="3.52403">
        <ele>418.45703125</ele>
        <time>2020-10-29T12:26:46Z</time>
      </trkpt>
      <trkpt lat="43.75564" lon="3.52404">
        <ele>417.7109375</ele>
        <time>2020-10-29T12:27:01Z</time>
      </trkpt>
      <trkpt lat="43.75547" lon="3.524">
        <ele>417</ele>
        <time>2020-10-29T12:27:17Z</time>
      </trkpt>
      <trkpt lat="43.75542" lon="3.52396">
        <ele>416.75390625</ele>
        <time>2020-10-29T12:27:22Z</time>
      </trkpt>
      <trkpt lat="43.75535" lon="3.52391">
        <ele>416.70703125</ele>
        <time>2020-10-29T12:27:29Z</time>
      </trkpt>
      <trkpt lat="43.75531" lon="3.52388">
        <ele>416.80859375</ele>
        <time>2020-10-29T12:27:32Z</time>
      </trkpt>
      <trkpt lat="43.75514" lon="3.52378">
        <ele>415.89453125</ele>
        <time>2020-10-29T12:27:48Z</time>
      </trkpt>
      <trkpt lat="43.75502" lon="3.52386">
        <ele>413.8359375</ele>
        <time>2020-10-29T12:28:01Z</time>
      </trkpt>
      <trkpt lat="43.75487" lon="3.52396">
        <ele>413.2734375</ele>
        <time>2020-10-29T12:28:14Z</time>
      </trkpt>
      <trkpt lat="43.75473" lon="3.52394">
        <ele>413.53515625</ele>
        <time>2020-10-29T12:28:27Z</time>
      </trkpt>
      <trkpt lat="43.75467" lon="3.52389">
        <ele>413.65625</ele>
        <time>2020-10-29T12:28:34Z</time>
      </trkpt>
      <trkpt lat="43.75463" lon="3.52386">
        <ele>413.6640625</ele>
        <time>2020-10-29T12:28:39Z</time>
      </trkpt>
      <trkpt lat="43.75452" lon="3.52377">
        <ele>413.4375</ele>
        <time>2020-10-29T12:28:51Z</time>
      </trkpt>
      <trkpt lat="43.75446" lon="3.52372">
        <ele>413.1171875</ele>
        <time>2020-10-29T12:28:59Z</time>
      </trkpt>
      <trkpt lat="43.75434" lon="3.52358">
        <ele>412.67578125</ele>
        <time>2020-10-29T12:29:13Z</time>
      </trkpt>
      <trkpt lat="43.75428" lon="3.52349">
        <ele>412.17578125</ele>
        <time>2020-10-29T12:29:21Z</time>
      </trkpt>
      <trkpt lat="43.75426" lon="3.52346">
        <ele>411.99609375</ele>
        <time>2020-10-29T12:29:23Z</time>
      </trkpt>
      <trkpt lat="43.75423" lon="3.5234">
        <ele>411.640625</ele>
        <time>2020-10-29T12:29:28Z</time>
      </trkpt>
      <trkpt lat="43.75422" lon="3.52332">
        <ele>412.21875</ele>
        <time>2020-10-29T12:29:34Z</time>
      </trkpt>
      <trkpt lat="43.75421" lon="3.52326">
        <ele>412.5390625</ele>
        <time>2020-10-29T12:29:38Z</time>
      </trkpt>
      <trkpt lat="43.75418" lon="3.52316">
        <ele>413.09375</ele>
        <time>2020-10-29T12:29:43Z</time>
      </trkpt>
      <trkpt lat="43.75414" lon="3.52309">
        <ele>413.33203125</ele>
        <time>2020-10-29T12:29:49Z</time>
      </trkpt>
      <trkpt lat="43.75411" lon="3.52306">
        <ele>413.3984375</ele>
        <time>2020-10-29T12:29:53Z</time>
      </trkpt>
      <trkpt lat="43.75409" lon="3.52301">
        <ele>413.515625</ele>
        <time>2020-10-29T12:29:58Z</time>
      </trkpt>
      <trkpt lat="43.75405" lon="3.52295">
        <ele>413.5859375</ele>
        <time>2020-10-29T12:30:04Z</time>
      </trkpt>
      <trkpt lat="43.754" lon="3.52294">
        <ele>413.34375</ele>
        <time>2020-10-29T12:30:10Z</time>
      </trkpt>
      <trkpt lat="43.75394" lon="3.52292">
        <ele>413.046875</ele>
        <time>2020-10-29T12:30:15Z</time>
      </trkpt>
      <trkpt lat="43.75385" lon="3.52286">
        <ele>412.796875</ele>
        <time>2020-10-29T12:30:24Z</time>
      </trkpt>
      <trkpt lat="43.7538" lon="3.52287">
        <ele>412.609375</ele>
        <time>2020-10-29T12:30:33Z</time>
      </trkpt>
      <trkpt lat="43.75374" lon="3.52285">
        <ele>412.515625</ele>
        <time>2020-10-29T12:30:46Z</time>
      </trkpt>
      <trkpt lat="43.75362" lon="3.52284">
        <ele>412.08984375</ele>
        <time>2020-10-29T12:30:59Z</time>
      </trkpt>
      <trkpt lat="43.75357" lon="3.52284">
        <ele>411.99609375</ele>
        <time>2020-10-29T12:31:04Z</time>
      </trkpt>
      <trkpt lat="43.75352" lon="3.52282">
        <ele>411.95703125</ele>
        <time>2020-10-29T12:31:08Z</time>
      </trkpt>
      <trkpt lat="43.75349" lon="3.52282">
        <ele>411.90625</ele>
        <time>2020-10-29T12:31:10Z</time>
      </trkpt>
      <trkpt lat="43.75341" lon="3.52284">
        <ele>411.390625</ele>
        <time>2020-10-29T12:31:17Z</time>
      </trkpt>
      <trkpt lat="43.75327" lon="3.52284">
        <ele>410.734375</ele>
        <time>2020-10-29T12:31:31Z</time>
      </trkpt>
      <trkpt lat="43.75319" lon="3.52289">
        <ele>410.171875</ele>
        <time>2020-10-29T12:31:39Z</time>
      </trkpt>
      <trkpt lat="43.75305" lon="3.52297">
        <ele>409.5234375</ele>
        <time>2020-10-29T12:31:54Z</time>
      </trkpt>
      <trkpt lat="43.75287" lon="3.52305">
        <ele>408.98828125</ele>
        <time>2020-10-29T12:32:11Z</time>
      </trkpt>
      <trkpt lat="43.75284" lon="3.52305">
        <ele>408.89453125</ele>
        <time>2020-10-29T12:32:13Z</time>
      </trkpt>
      <trkpt lat="43.75268" lon="3.52299">
        <ele>408.59765625</ele>
        <time>2020-10-29T12:32:27Z</time>
      </trkpt>
      <trkpt lat="43.7526" lon="3.52291">
        <ele>408.2890625</ele>
        <time>2020-10-29T12:32:36Z</time>
      </trkpt>
      <trkpt lat="43.75256" lon="3.52288">
        <ele>408.12890625</ele>
        <time>2020-10-29T12:32:39Z</time>
      </trkpt>
      <trkpt lat="43.75248" lon="3.52281">
        <ele>407.984375</ele>
        <time>2020-10-29T12:32:47Z</time>
      </trkpt>
      <trkpt lat="43.7524" lon="3.52272">
        <ele>407.82421875</ele>
        <time>2020-10-29T12:32:56Z</time>
      </trkpt>
      <trkpt lat="43.75232" lon="3.52262">
        <ele>407.4296875</ele>
        <time>2020-10-29T12:33:07Z</time>
      </trkpt>
      <trkpt lat="43.75231" lon="3.52256">
        <ele>407.23828125</ele>
        <time>2020-10-29T12:33:11Z</time>
      </trkpt>
      <trkpt lat="43.75227" lon="3.52246">
        <ele>406.80859375</ele>
        <time>2020-10-29T12:33:17Z</time>
      </trkpt>
      <trkpt lat="43.75227" lon="3.52245">
        <ele>406.7421875</ele>
        <time>2020-10-29T12:33:18Z</time>
      </trkpt>
      <trkpt lat="43.75225" lon="3.52241">
        <ele>406.52734375</ele>
        <time>2020-10-29T12:33:21Z</time>
      </trkpt>
      <trkpt lat="43.75224" lon="3.52237">
        <ele>406.30078125</ele>
        <time>2020-10-29T12:33:24Z</time>
      </trkpt>
      <trkpt lat="43.75222" lon="3.52227">
        <ele>406.3671875</ele>
        <time>2020-10-29T12:33:30Z</time>
      </trkpt>
      <trkpt lat="43.75219" lon="3.52218">
        <ele>407.0703125</ele>
        <time>2020-10-29T12:33:35Z</time>
      </trkpt>
      <trkpt lat="43.75217" lon="3.52209">
        <ele>407.58203125</ele>
        <time>2020-10-29T12:33:41Z</time>
      </trkpt>
      <trkpt lat="43.75216" lon="3.52203">
        <ele>407.86328125</ele>
        <time>2020-10-29T12:33:44Z</time>
      </trkpt>
      <trkpt lat="43.75214" lon="3.52199">
        <ele>408.12890625</ele>
        <time>2020-10-29T12:33:47Z</time>
      </trkpt>
      <trkpt lat="43.75212" lon="3.52194">
        <ele>408.359375</ele>
        <time>2020-10-29T12:33:50Z</time>
      </trkpt>
      <trkpt lat="43.75208" lon="3.52186">
        <ele>408.77734375</ele>
        <time>2020-10-29T12:33:58Z</time>
      </trkpt>
      <trkpt lat="43.75205" lon="3.5218">
        <ele>408.9921875</ele>
        <time>2020-10-29T12:34:05Z</time>
      </trkpt>
      <trkpt lat="43.75197" lon="3.52167">
        <ele>409.515625</ele>
        <time>2020-10-29T12:34:18Z</time>
      </trkpt>
      <trkpt lat="43.75193" lon="3.52162">
        <ele>409.65234375</ele>
        <time>2020-10-29T12:34:24Z</time>
      </trkpt>
      <trkpt lat="43.75192" lon="3.5216">
        <ele>409.6640625</ele>
        <time>2020-10-29T12:34:26Z</time>
      </trkpt>
      <trkpt lat="43.75188" lon="3.52154">
        <ele>409.63671875</ele>
        <time>2020-10-29T12:34:33Z</time>
      </trkpt>
      <trkpt lat="43.75183" lon="3.52148">
        <ele>409.4609375</ele>
        <time>2020-10-29T12:34:39Z</time>
      </trkpt>
      <trkpt lat="43.75178" lon="3.52141">
        <ele>409.08203125</ele>
        <time>2020-10-29T12:34:47Z</time>
      </trkpt>
      <trkpt lat="43.75174" lon="3.52133">
        <ele>408.45703125</ele>
        <time>2020-10-29T12:34:52Z</time>
      </trkpt>
      <trkpt lat="43.75172" lon="3.52131">
        <ele>408.18359375</ele>
        <time>2020-10-29T12:34:54Z</time>
      </trkpt>
      <trkpt lat="43.75168" lon="3.52125">
        <ele>407.484375</ele>
        <time>2020-10-29T12:35:01Z</time>
      </trkpt>
      <trkpt lat="43.75163" lon="3.52119">
        <ele>407.8203125</ele>
        <time>2020-10-29T12:35:07Z</time>
      </trkpt>
      <trkpt lat="43.75158" lon="3.52112">
        <ele>408.578125</ele>
        <time>2020-10-29T12:35:14Z</time>
      </trkpt>
      <trkpt lat="43.75155" lon="3.52102">
        <ele>408.7890625</ele>
        <time>2020-10-29T12:35:21Z</time>
      </trkpt>
      <trkpt lat="43.75154" lon="3.52099">
        <ele>408.8359375</ele>
        <time>2020-10-29T12:35:23Z</time>
      </trkpt>
      <trkpt lat="43.75152" lon="3.52095">
        <ele>408.8984375</ele>
        <time>2020-10-29T12:35:26Z</time>
      </trkpt>
      <trkpt lat="43.75149" lon="3.52088">
        <ele>409.0546875</ele>
        <time>2020-10-29T12:35:32Z</time>
      </trkpt>
      <trkpt lat="43.75149" lon="3.52076">
        <ele>408.3515625</ele>
        <time>2020-10-29T12:35:41Z</time>
      </trkpt>
      <trkpt lat="43.75149" lon="3.52074">
        <ele>408.19921875</ele>
        <time>2020-10-29T12:35:44Z</time>
      </trkpt>
      <trkpt lat="43.75148" lon="3.52068">
        <ele>407.98046875</ele>
        <time>2020-10-29T12:35:47Z</time>
      </trkpt>
      <trkpt lat="43.75148" lon="3.52058">
        <ele>407.5859375</ele>
        <time>2020-10-29T12:35:54Z</time>
      </trkpt>
      <trkpt lat="43.75146" lon="3.52052">
        <ele>407.47265625</ele>
        <time>2020-10-29T12:35:59Z</time>
      </trkpt>
      <trkpt lat="43.75143" lon="3.5204">
        <ele>407.01171875</ele>
        <time>2020-10-29T12:36:07Z</time>
      </trkpt>
      <trkpt lat="43.75142" lon="3.52033">
        <ele>406.63671875</ele>
        <time>2020-10-29T12:36:12Z</time>
      </trkpt>
      <trkpt lat="43.75141" lon="3.5203">
        <ele>406.4609375</ele>
        <time>2020-10-29T12:36:14Z</time>
      </trkpt>
      <trkpt lat="43.75138" lon="3.52022">
        <ele>405.765625</ele>
        <time>2020-10-29T12:36:22Z</time>
      </trkpt>
      <trkpt lat="43.7513" lon="3.52014">
        <ele>404.55859375</ele>
        <time>2020-10-29T12:36:32Z</time>
      </trkpt>
      <trkpt lat="43.75126" lon="3.5201">
        <ele>403.8046875</ele>
        <time>2020-10-29T12:36:38Z</time>
      </trkpt>
      <trkpt lat="43.75121" lon="3.52008">
        <ele>403.03515625</ele>
        <time>2020-10-29T12:36:46Z</time>
      </trkpt>
      <trkpt lat="43.75115" lon="3.52004">
        <ele>402.16796875</ele>
        <time>2020-10-29T12:36:56Z</time>
      </trkpt>
      <trkpt lat="43.75112" lon="3.52002">
        <ele>401.796875</ele>
        <time>2020-10-29T12:37:04Z</time>
      </trkpt>
      <trkpt lat="43.75111" lon="3.51999">
        <ele>401.671875</ele>
        <time>2020-10-29T12:37:14Z</time>
      </trkpt>
      <trkpt lat="43.75117" lon="3.52003">
        <ele>402.41015625</ele>
        <time>2020-10-29T12:37:39Z</time>
      </trkpt>
      <trkpt lat="43.75111" lon="3.52">
        <ele>401.6875</ele>
        <time>2020-10-29T12:37:57Z</time>
      </trkpt>
      <trkpt lat="43.75107" lon="3.51996">
        <ele>401.41015625</ele>
        <time>2020-10-29T12:38:09Z</time>
      </trkpt>
      <trkpt lat="43.75107" lon="3.51993">
        <ele>401.29296875</ele>
        <time>2020-10-29T12:38:17Z</time>
      </trkpt>
      <trkpt lat="43.75105" lon="3.51987">
        <ele>401.05078125</ele>
        <time>2020-10-29T12:38:27Z</time>
      </trkpt>
      <trkpt lat="43.75105" lon="3.51986">
        <ele>401</ele>
        <time>2020-10-29T12:38:38Z</time>
      </trkpt>
      <trkpt lat="43.75103" lon="3.51982">
        <ele>400.83203125</ele>
        <time>2020-10-29T12:38:49Z</time>
      </trkpt>
      <trkpt lat="43.75102" lon="3.51979">
        <ele>400.6953125</ele>
        <time>2020-10-29T12:38:59Z</time>
      </trkpt>
      <trkpt lat="43.75105" lon="3.51974">
        <ele>400.625</ele>
        <time>2020-10-29T12:39:08Z</time>
      </trkpt>
      <trkpt lat="43.75111" lon="3.51978">
        <ele>400.9296875</ele>
        <time>2020-10-29T12:39:20Z</time>
      </trkpt>
      <trkpt lat="43.75113" lon="3.51977">
        <ele>401.01953125</ele>
        <time>2020-10-29T12:39:37Z</time>
      </trkpt>
      <trkpt lat="43.75113" lon="3.51971">
        <ele>400.85546875</ele>
        <time>2020-10-29T12:39:46Z</time>
      </trkpt>
      <trkpt lat="43.75111" lon="3.51968">
        <ele>400.5234375</ele>
        <time>2020-10-29T12:39:58Z</time>
      </trkpt>
      <trkpt lat="43.7511" lon="3.51972">
        <ele>400.66796875</ele>
        <time>2020-10-29T12:40:15Z</time>
      </trkpt>
      <trkpt lat="43.7511" lon="3.51971">
        <ele>400.62109375</ele>
        <time>2020-10-29T12:40:32Z</time>
      </trkpt>
      <trkpt lat="43.7511" lon="3.5197">
        <ele>400.5859375</ele>
        <time>2020-10-29T12:40:51Z</time>
      </trkpt>
      <trkpt lat="43.75111" lon="3.51971">
        <ele>400.62890625</ele>
        <time>2020-10-29T12:41:05Z</time>
      </trkpt>
      <trkpt lat="43.75111" lon="3.51972">
        <ele>400.69140625</ele>
        <time>2020-10-29T12:41:21Z</time>
      </trkpt>
      <trkpt lat="43.75108" lon="3.51971">
        <ele>400.5703125</ele>
        <time>2020-10-29T12:41:37Z</time>
      </trkpt>
      <trkpt lat="43.75101" lon="3.51964">
        <ele>400.171875</ele>
        <time>2020-10-29T12:41:50Z</time>
      </trkpt>
      <trkpt lat="43.75102" lon="3.51957">
        <ele>399.953125</ele>
        <time>2020-10-29T12:41:59Z</time>
      </trkpt>
      <trkpt lat="43.75099" lon="3.5195">
        <ele>400.00390625</ele>
        <time>2020-10-29T12:42:08Z</time>
      </trkpt>
      <trkpt lat="43.75097" lon="3.51949">
        <ele>400.203125</ele>
        <time>2020-10-29T12:42:10Z</time>
      </trkpt>
      <trkpt lat="43.75094" lon="3.51944">
        <ele>400.73828125</ele>
        <time>2020-10-29T12:42:15Z</time>
      </trkpt>
      <trkpt lat="43.75089" lon="3.51942">
        <ele>401.0078125</ele>
        <time>2020-10-29T12:42:21Z</time>
      </trkpt>
      <trkpt lat="43.75077" lon="3.51944">
        <ele>400.5703125</ele>
        <time>2020-10-29T12:42:33Z</time>
      </trkpt>
      <trkpt lat="43.75065" lon="3.51944">
        <ele>400.48828125</ele>
        <time>2020-10-29T12:42:45Z</time>
      </trkpt>
      <trkpt lat="43.75056" lon="3.51944">
        <ele>400.421875</ele>
        <time>2020-10-29T12:42:54Z</time>
      </trkpt>
      <trkpt lat="43.75049" lon="3.51943">
        <ele>401.046875</ele>
        <time>2020-10-29T12:43:01Z</time>
      </trkpt>
      <trkpt lat="43.75038" lon="3.51945">
        <ele>401.078125</ele>
        <time>2020-10-29T12:43:11Z</time>
      </trkpt>
      <trkpt lat="43.7503" lon="3.51948">
        <ele>400.98046875</ele>
        <time>2020-10-29T12:43:19Z</time>
      </trkpt>
      <trkpt lat="43.75024" lon="3.51954">
        <ele>400.16015625</ele>
        <time>2020-10-29T12:43:29Z</time>
      </trkpt>
      <trkpt lat="43.75019" lon="3.51962">
        <ele>400.1640625</ele>
        <time>2020-10-29T12:43:40Z</time>
      </trkpt>
      <trkpt lat="43.75018" lon="3.51967">
        <ele>400.10546875</ele>
        <time>2020-10-29T12:43:51Z</time>
      </trkpt>
      <trkpt lat="43.75013" lon="3.51977">
        <ele>399.98046875</ele>
        <time>2020-10-29T12:44:03Z</time>
      </trkpt>
      <trkpt lat="43.7501" lon="3.51982">
        <ele>399.859375</ele>
        <time>2020-10-29T12:44:11Z</time>
      </trkpt>
      <trkpt lat="43.75" lon="3.51986">
        <ele>399.70703125</ele>
        <time>2020-10-29T12:44:23Z</time>
      </trkpt>
      <trkpt lat="43.74997" lon="3.51987">
        <ele>399.3203125</ele>
        <time>2020-10-29T12:44:34Z</time>
      </trkpt>
      <trkpt lat="43.74995" lon="3.51984">
        <ele>399.1328125</ele>
        <time>2020-10-29T12:44:49Z</time>
      </trkpt>
      <trkpt lat="43.74987" lon="3.5198">
        <ele>398.36328125</ele>
        <time>2020-10-29T12:44:59Z</time>
      </trkpt>
      <trkpt lat="43.74982" lon="3.51975">
        <ele>397.90625</ele>
        <time>2020-10-29T12:45:09Z</time>
      </trkpt>
      <trkpt lat="43.74979" lon="3.51973">
        <ele>397.47265625</ele>
        <time>2020-10-29T12:45:18Z</time>
      </trkpt>
      <trkpt lat="43.74972" lon="3.51975">
        <ele>396.68359375</ele>
        <time>2020-10-29T12:45:27Z</time>
      </trkpt>
      <trkpt lat="43.74969" lon="3.51974">
        <ele>396.234375</ele>
        <time>2020-10-29T12:45:35Z</time>
      </trkpt>
      <trkpt lat="43.74962" lon="3.51974">
        <ele>395.4375</ele>
        <time>2020-10-29T12:45:43Z</time>
      </trkpt>
      <trkpt lat="43.74957" lon="3.51978">
        <ele>394.8125</ele>
        <time>2020-10-29T12:45:51Z</time>
      </trkpt>
      <trkpt lat="43.74953" lon="3.51976">
        <ele>394.35546875</ele>
        <time>2020-10-29T12:45:58Z</time>
      </trkpt>
      <trkpt lat="43.74949" lon="3.51971">
        <ele>393.76953125</ele>
        <time>2020-10-29T12:46:08Z</time>
      </trkpt>
      <trkpt lat="43.74945" lon="3.51968">
        <ele>393.25390625</ele>
        <time>2020-10-29T12:46:15Z</time>
      </trkpt>
      <trkpt lat="43.74943" lon="3.5196">
        <ele>392.80859375</ele>
        <time>2020-10-29T12:46:25Z</time>
      </trkpt>
      <trkpt lat="43.74945" lon="3.51955">
        <ele>392.9375</ele>
        <time>2020-10-29T12:46:32Z</time>
      </trkpt>
      <trkpt lat="43.74941" lon="3.51955">
        <ele>392.33984375</ele>
        <time>2020-10-29T12:46:40Z</time>
      </trkpt>
      <trkpt lat="43.74937" lon="3.51957">
        <ele>391.6484375</ele>
        <time>2020-10-29T12:46:49Z</time>
      </trkpt>
      <trkpt lat="43.74928" lon="3.51953">
        <ele>390.1796875</ele>
        <time>2020-10-29T12:47:00Z</time>
      </trkpt>
      <trkpt lat="43.74925" lon="3.5195">
        <ele>390.09765625</ele>
        <time>2020-10-29T12:47:07Z</time>
      </trkpt>
      <trkpt lat="43.74922" lon="3.5195">
        <ele>389.81640625</ele>
        <time>2020-10-29T12:47:14Z</time>
      </trkpt>
      <trkpt lat="43.7492" lon="3.5195">
        <ele>389.4375</ele>
        <time>2020-10-29T12:47:19Z</time>
      </trkpt>
      <trkpt lat="43.74914" lon="3.51949">
        <ele>388.734375</ele>
        <time>2020-10-29T12:47:31Z</time>
      </trkpt>
      <trkpt lat="43.74911" lon="3.51951">
        <ele>387.62109375</ele>
        <time>2020-10-29T12:47:39Z</time>
      </trkpt>
      <trkpt lat="43.74905" lon="3.51951">
        <ele>386.75390625</ele>
        <time>2020-10-29T12:47:50Z</time>
      </trkpt>
      <trkpt lat="43.74902" lon="3.51949">
        <ele>386.47265625</ele>
        <time>2020-10-29T12:48:01Z</time>
      </trkpt>
      <trkpt lat="43.74902" lon="3.51951">
        <ele>386.15625</ele>
        <time>2020-10-29T12:48:06Z</time>
      </trkpt>
      <trkpt lat="43.74896" lon="3.51959">
        <ele>385.1484375</ele>
        <time>2020-10-29T12:48:18Z</time>
      </trkpt>
      <trkpt lat="43.74889" lon="3.51961">
        <ele>384.39453125</ele>
        <time>2020-10-29T12:48:27Z</time>
      </trkpt>
      <trkpt lat="43.74886" lon="3.51958">
        <ele>384.5625</ele>
        <time>2020-10-29T12:48:33Z</time>
      </trkpt>
      <trkpt lat="43.74884" lon="3.51957">
        <ele>384.71875</ele>
        <time>2020-10-29T12:48:43Z</time>
      </trkpt>
      <trkpt lat="43.74879" lon="3.51956">
        <ele>385.0078125</ele>
        <time>2020-10-29T12:48:53Z</time>
      </trkpt>
      <trkpt lat="43.74875" lon="3.51955">
        <ele>385.26953125</ele>
        <time>2020-10-29T12:49:01Z</time>
      </trkpt>
      <trkpt lat="43.74871" lon="3.51953">
        <ele>385.37890625</ele>
        <time>2020-10-29T12:49:07Z</time>
      </trkpt>
      <trkpt lat="43.7487" lon="3.51952">
        <ele>385.4375</ele>
        <time>2020-10-29T12:49:09Z</time>
      </trkpt>
      <trkpt lat="43.74863" lon="3.51955">
        <ele>386.2109375</ele>
        <time>2020-10-29T12:49:23Z</time>
      </trkpt>
      <trkpt lat="43.74862" lon="3.51955">
        <ele>386.37109375</ele>
        <time>2020-10-29T12:49:42Z</time>
      </trkpt>
      <trkpt lat="43.74862" lon="3.51954">
        <ele>386.2109375</ele>
        <time>2020-10-29T12:49:55Z</time>
      </trkpt>
      <trkpt lat="43.74861" lon="3.51952">
        <ele>386.1015625</ele>
        <time>2020-10-29T12:50:12Z</time>
      </trkpt>
      <trkpt lat="43.7486" lon="3.51952">
        <ele>386.16796875</ele>
        <time>2020-10-29T12:50:34Z</time>
      </trkpt>
      <trkpt lat="43.74859" lon="3.51953">
        <ele>386.24609375</ele>
        <time>2020-10-29T12:50:53Z</time>
      </trkpt>
      <trkpt lat="43.74861" lon="3.51952">
        <ele>386.0859375</ele>
        <time>2020-10-29T12:51:07Z</time>
      </trkpt>
      <trkpt lat="43.74863" lon="3.51955">
        <ele>386.32421875</ele>
        <time>2020-10-29T12:51:24Z</time>
      </trkpt>
      <trkpt lat="43.74861" lon="3.51956">
        <ele>386.44921875</ele>
        <time>2020-10-29T12:51:37Z</time>
      </trkpt>
      <trkpt lat="43.74861" lon="3.51956">
        <ele>386.46875</ele>
        <time>2020-10-29T12:51:55Z</time>
      </trkpt>
      <trkpt lat="43.74861" lon="3.51956">
        <ele>386.421875</ele>
        <time>2020-10-29T12:52:12Z</time>
      </trkpt>
      <trkpt lat="43.74857" lon="3.51949">
        <ele>386.16796875</ele>
        <time>2020-10-29T12:52:20Z</time>
      </trkpt>
      <trkpt lat="43.74852" lon="3.51938">
        <ele>385.4453125</ele>
        <time>2020-10-29T12:52:30Z</time>
      </trkpt>
      <trkpt lat="43.74849" lon="3.51933">
        <ele>384.86328125</ele>
        <time>2020-10-29T12:52:35Z</time>
      </trkpt>
      <trkpt lat="43.74842" lon="3.51918">
        <ele>382.1953125</ele>
        <time>2020-10-29T12:52:46Z</time>
      </trkpt>
      <trkpt lat="43.74836" lon="3.51906">
        <ele>379.1875</ele>
        <time>2020-10-29T12:52:55Z</time>
      </trkpt>
      <trkpt lat="43.7483" lon="3.51896">
        <ele>377.53125</ele>
        <time>2020-10-29T12:53:04Z</time>
      </trkpt>
      <trkpt lat="43.74823" lon="3.51884">
        <ele>379.1796875</ele>
        <time>2020-10-29T12:53:14Z</time>
      </trkpt>
      <trkpt lat="43.74818" lon="3.51876">
        <ele>379.88671875</ele>
        <time>2020-10-29T12:53:20Z</time>
      </trkpt>
      <trkpt lat="43.74814" lon="3.51873">
        <ele>380.0546875</ele>
        <time>2020-10-29T12:53:24Z</time>
      </trkpt>
      <trkpt lat="43.74807" lon="3.51865">
        <ele>380.078125</ele>
        <time>2020-10-29T12:53:33Z</time>
      </trkpt>
      <trkpt lat="43.74802" lon="3.5186">
        <ele>379.8046875</ele>
        <time>2020-10-29T12:53:38Z</time>
      </trkpt>
      <trkpt lat="43.74798" lon="3.51857">
        <ele>379.41796875</ele>
        <time>2020-10-29T12:53:43Z</time>
      </trkpt>
      <trkpt lat="43.74791" lon="3.51853">
        <ele>378.546875</ele>
        <time>2020-10-29T12:53:49Z</time>
      </trkpt>
      <trkpt lat="43.74788" lon="3.51852">
        <ele>378.1484375</ele>
        <time>2020-10-29T12:53:52Z</time>
      </trkpt>
      <trkpt lat="43.74778" lon="3.51848">
        <ele>376.82421875</ele>
        <time>2020-10-29T12:54:02Z</time>
      </trkpt>
      <trkpt lat="43.74768" lon="3.51842">
        <ele>376.8359375</ele>
        <time>2020-10-29T12:54:11Z</time>
      </trkpt>
      <trkpt lat="43.74764" lon="3.51835">
        <ele>377.5234375</ele>
        <time>2020-10-29T12:54:16Z</time>
      </trkpt>
      <trkpt lat="43.7476" lon="3.51829">
        <ele>377.98046875</ele>
        <time>2020-10-29T12:54:21Z</time>
      </trkpt>
      <trkpt lat="43.74752" lon="3.51822">
        <ele>377.88671875</ele>
        <time>2020-10-29T12:54:29Z</time>
      </trkpt>
      <trkpt lat="43.74746" lon="3.51816">
        <ele>377.1953125</ele>
        <time>2020-10-29T12:54:36Z</time>
      </trkpt>
      <trkpt lat="43.74741" lon="3.5181">
        <ele>376.19140625</ele>
        <time>2020-10-29T12:54:42Z</time>
      </trkpt>
      <trkpt lat="43.74736" lon="3.51804">
        <ele>374.91796875</ele>
        <time>2020-10-29T12:54:48Z</time>
      </trkpt>
      <trkpt lat="43.74734" lon="3.51803">
        <ele>374.5390625</ele>
        <time>2020-10-29T12:54:49Z</time>
      </trkpt>
      <trkpt lat="43.74731" lon="3.51801">
        <ele>373.5625</ele>
        <time>2020-10-29T12:54:52Z</time>
      </trkpt>
      <trkpt lat="43.74727" lon="3.51797">
        <ele>372.078125</ele>
        <time>2020-10-29T12:54:57Z</time>
      </trkpt>
      <trkpt lat="43.74721" lon="3.51789">
        <ele>369.8515625</ele>
        <time>2020-10-29T12:55:04Z</time>
      </trkpt>
      <trkpt lat="43.74704" lon="3.51774">
        <ele>371.77734375</ele>
        <time>2020-10-29T12:55:22Z</time>
      </trkpt>
      <trkpt lat="43.74696" lon="3.51768">
        <ele>372.4453125</ele>
        <time>2020-10-29T12:55:30Z</time>
      </trkpt>
      <trkpt lat="43.74696" lon="3.51767">
        <ele>372.51953125</ele>
        <time>2020-10-29T12:55:32Z</time>
      </trkpt>
      <trkpt lat="43.74689" lon="3.51766">
        <ele>372.1796875</ele>
        <time>2020-10-29T12:55:37Z</time>
      </trkpt>
      <trkpt lat="43.74684" lon="3.51763">
        <ele>372.05859375</ele>
        <time>2020-10-29T12:55:41Z</time>
      </trkpt>
      <trkpt lat="43.74682" lon="3.51758">
        <ele>372.08203125</ele>
        <time>2020-10-29T12:55:46Z</time>
      </trkpt>
      <trkpt lat="43.74677" lon="3.51753">
        <ele>371.66015625</ele>
        <time>2020-10-29T12:55:51Z</time>
      </trkpt>
      <trkpt lat="43.74671" lon="3.5175">
        <ele>370.78515625</ele>
        <time>2020-10-29T12:55:57Z</time>
      </trkpt>
      <trkpt lat="43.74666" lon="3.51748">
        <ele>370.1640625</ele>
        <time>2020-10-29T12:56:02Z</time>
      </trkpt>
      <trkpt lat="43.74659" lon="3.51743">
        <ele>369.140625</ele>
        <time>2020-10-29T12:56:09Z</time>
      </trkpt>
      <trkpt lat="43.74655" lon="3.51739">
        <ele>368.21484375</ele>
        <time>2020-10-29T12:56:12Z</time>
      </trkpt>
      <trkpt lat="43.74649" lon="3.51736">
        <ele>367.09765625</ele>
        <time>2020-10-29T12:56:18Z</time>
      </trkpt>
      <trkpt lat="43.74639" lon="3.51729">
        <ele>364.44140625</ele>
        <time>2020-10-29T12:56:27Z</time>
      </trkpt>
      <trkpt lat="43.74634" lon="3.51725">
        <ele>364.49609375</ele>
        <time>2020-10-29T12:56:32Z</time>
      </trkpt>
      <trkpt lat="43.74629" lon="3.5172">
        <ele>364.46875</ele>
        <time>2020-10-29T12:56:37Z</time>
      </trkpt>
      <trkpt lat="43.74622" lon="3.51712">
        <ele>364.75</ele>
        <time>2020-10-29T12:56:44Z</time>
      </trkpt>
      <trkpt lat="43.74621" lon="3.51709">
        <ele>365.09375</ele>
        <time>2020-10-29T12:56:46Z</time>
      </trkpt>
      <trkpt lat="43.74619" lon="3.51705">
        <ele>365.3515625</ele>
        <time>2020-10-29T12:56:49Z</time>
      </trkpt>
      <trkpt lat="43.74613" lon="3.51703">
        <ele>364.453125</ele>
        <time>2020-10-29T12:56:55Z</time>
      </trkpt>
      <trkpt lat="43.74611" lon="3.51702">
        <ele>364.5703125</ele>
        <time>2020-10-29T12:56:56Z</time>
      </trkpt>
      <trkpt lat="43.74609" lon="3.517">
        <ele>364.8125</ele>
        <time>2020-10-29T12:56:58Z</time>
      </trkpt>
      <trkpt lat="43.74606" lon="3.51697">
        <ele>365.22265625</ele>
        <time>2020-10-29T12:57:01Z</time>
      </trkpt>
      <trkpt lat="43.746" lon="3.51694">
        <ele>365.703125</ele>
        <time>2020-10-29T12:57:07Z</time>
      </trkpt>
      <trkpt lat="43.74593" lon="3.51688">
        <ele>366.61328125</ele>
        <time>2020-10-29T12:57:14Z</time>
      </trkpt>
      <trkpt lat="43.74588" lon="3.51687">
        <ele>366.7890625</ele>
        <time>2020-10-29T12:57:19Z</time>
      </trkpt>
      <trkpt lat="43.74586" lon="3.51688">
        <ele>366.37109375</ele>
        <time>2020-10-29T12:57:21Z</time>
      </trkpt>
      <trkpt lat="43.7458" lon="3.51693">
        <ele>365.0625</ele>
        <time>2020-10-29T12:57:30Z</time>
      </trkpt>
      <trkpt lat="43.74569" lon="3.51698">
        <ele>363.27734375</ele>
        <time>2020-10-29T12:57:39Z</time>
      </trkpt>
      <trkpt lat="43.74557" lon="3.517">
        <ele>362.05859375</ele>
        <time>2020-10-29T12:57:48Z</time>
      </trkpt>
      <trkpt lat="43.74554" lon="3.51701">
        <ele>361.66015625</ele>
        <time>2020-10-29T12:57:50Z</time>
      </trkpt>
      <trkpt lat="43.74551" lon="3.517">
        <ele>361.48046875</ele>
        <time>2020-10-29T12:57:53Z</time>
      </trkpt>
      <trkpt lat="43.74543" lon="3.51702">
        <ele>360.16015625</ele>
        <time>2020-10-29T12:58:00Z</time>
      </trkpt>
      <trkpt lat="43.74536" lon="3.51701">
        <ele>359.51953125</ele>
        <time>2020-10-29T12:58:06Z</time>
      </trkpt>
      <trkpt lat="43.74531" lon="3.51702">
        <ele>358.7890625</ele>
        <time>2020-10-29T12:58:11Z</time>
      </trkpt>
      <trkpt lat="43.74524" lon="3.51702">
        <ele>358.09765625</ele>
        <time>2020-10-29T12:58:16Z</time>
      </trkpt>
      <trkpt lat="43.74519" lon="3.517">
        <ele>357.99609375</ele>
        <time>2020-10-29T12:58:20Z</time>
      </trkpt>
      <trkpt lat="43.74515" lon="3.517">
        <ele>357.5</ele>
        <time>2020-10-29T12:58:24Z</time>
      </trkpt>
      <trkpt lat="43.74508" lon="3.517">
        <ele>356.76953125</ele>
        <time>2020-10-29T12:58:29Z</time>
      </trkpt>
      <trkpt lat="43.74497" lon="3.51698">
        <ele>355.95703125</ele>
        <time>2020-10-29T12:58:38Z</time>
      </trkpt>
      <trkpt lat="43.74489" lon="3.51693">
        <ele>356.05078125</ele>
        <time>2020-10-29T12:58:47Z</time>
      </trkpt>
      <trkpt lat="43.74478" lon="3.51686">
        <ele>355.75390625</ele>
        <time>2020-10-29T12:58:57Z</time>
      </trkpt>
      <trkpt lat="43.74468" lon="3.51681">
        <ele>354.87890625</ele>
        <time>2020-10-29T12:59:07Z</time>
      </trkpt>
      <trkpt lat="43.74457" lon="3.5168">
        <ele>353.40625</ele>
        <time>2020-10-29T12:59:17Z</time>
      </trkpt>
      <trkpt lat="43.74451" lon="3.5168">
        <ele>352.625</ele>
        <time>2020-10-29T12:59:22Z</time>
      </trkpt>
      <trkpt lat="43.74444" lon="3.51682">
        <ele>351.5234375</ele>
        <time>2020-10-29T12:59:30Z</time>
      </trkpt>
      <trkpt lat="43.74431" lon="3.51681">
        <ele>350.29296875</ele>
        <time>2020-10-29T12:59:40Z</time>
      </trkpt>
      <trkpt lat="43.74429" lon="3.51681">
        <ele>350.03125</ele>
        <time>2020-10-29T12:59:42Z</time>
      </trkpt>
      <trkpt lat="43.74416" lon="3.51676">
        <ele>348.796875</ele>
        <time>2020-10-29T12:59:53Z</time>
      </trkpt>
      <trkpt lat="43.74406" lon="3.51672">
        <ele>348.49609375</ele>
        <time>2020-10-29T13:00:02Z</time>
      </trkpt>
      <trkpt lat="43.74396" lon="3.51668">
        <ele>348.1484375</ele>
        <time>2020-10-29T13:00:13Z</time>
      </trkpt>
      <trkpt lat="43.74384" lon="3.51664">
        <ele>347.515625</ele>
        <time>2020-10-29T13:00:23Z</time>
      </trkpt>
      <trkpt lat="43.7437" lon="3.51659">
        <ele>346.6640625</ele>
        <time>2020-10-29T13:00:35Z</time>
      </trkpt>
      <trkpt lat="43.7436" lon="3.51654">
        <ele>345.703125</ele>
        <time>2020-10-29T13:00:45Z</time>
      </trkpt>
      <trkpt lat="43.74352" lon="3.51649">
        <ele>344.71875</ele>
        <time>2020-10-29T13:00:53Z</time>
      </trkpt>
      <trkpt lat="43.74345" lon="3.51643">
        <ele>343.515625</ele>
        <time>2020-10-29T13:01:02Z</time>
      </trkpt>
      <trkpt lat="43.74336" lon="3.51631">
        <ele>341.57421875</ele>
        <time>2020-10-29T13:01:14Z</time>
      </trkpt>
      <trkpt lat="43.7433" lon="3.51625">
        <ele>340.65625</ele>
        <time>2020-10-29T13:01:23Z</time>
      </trkpt>
      <trkpt lat="43.74324" lon="3.51619">
        <ele>339.703125</ele>
        <time>2020-10-29T13:01:31Z</time>
      </trkpt>
      <trkpt lat="43.74318" lon="3.51617">
        <ele>339.421875</ele>
        <time>2020-10-29T13:01:39Z</time>
      </trkpt>
      <trkpt lat="43.74312" lon="3.51617">
        <ele>338.71484375</ele>
        <time>2020-10-29T13:01:45Z</time>
      </trkpt>
      <trkpt lat="43.74299" lon="3.51615">
        <ele>337.171875</ele>
        <time>2020-10-29T13:01:56Z</time>
      </trkpt>
      <trkpt lat="43.74287" lon="3.51604">
        <ele>337.56640625</ele>
        <time>2020-10-29T13:02:07Z</time>
      </trkpt>
      <trkpt lat="43.74277" lon="3.51595">
        <ele>337.58984375</ele>
        <time>2020-10-29T13:02:17Z</time>
      </trkpt>
      <trkpt lat="43.74266" lon="3.51586">
        <ele>337.64453125</ele>
        <time>2020-10-29T13:02:28Z</time>
      </trkpt>
      <trkpt lat="43.74255" lon="3.51577">
        <ele>337.34375</ele>
        <time>2020-10-29T13:02:39Z</time>
      </trkpt>
      <trkpt lat="43.7425" lon="3.51576">
        <ele>337</ele>
        <time>2020-10-29T13:02:43Z</time>
      </trkpt>
      <trkpt lat="43.74244" lon="3.51573">
        <ele>336.4140625</ele>
        <time>2020-10-29T13:02:49Z</time>
      </trkpt>
      <trkpt lat="43.74232" lon="3.5157">
        <ele>335.32421875</ele>
        <time>2020-10-29T13:02:59Z</time>
      </trkpt>
      <trkpt lat="43.74225" lon="3.51568">
        <ele>334.52734375</ele>
        <time>2020-10-29T13:03:05Z</time>
      </trkpt>
      <trkpt lat="43.74215" lon="3.51563">
        <ele>335.23828125</ele>
        <time>2020-10-29T13:03:14Z</time>
      </trkpt>
      <trkpt lat="43.74208" lon="3.5156">
        <ele>335.8203125</ele>
        <time>2020-10-29T13:03:22Z</time>
      </trkpt>
      <trkpt lat="43.74196" lon="3.51553">
        <ele>337.0546875</ele>
        <time>2020-10-29T13:03:32Z</time>
      </trkpt>
      <trkpt lat="43.74189" lon="3.51538">
        <ele>339.46484375</ele>
        <time>2020-10-29T13:03:43Z</time>
      </trkpt>
      <trkpt lat="43.74188" lon="3.51526">
        <ele>341.30859375</ele>
        <time>2020-10-29T13:03:52Z</time>
      </trkpt>
      <trkpt lat="43.74188" lon="3.51512">
        <ele>343.3828125</ele>
        <time>2020-10-29T13:04:02Z</time>
      </trkpt>
      <trkpt lat="43.74189" lon="3.51504">
        <ele>344.734375</ele>
        <time>2020-10-29T13:04:08Z</time>
      </trkpt>
      <trkpt lat="43.74193" lon="3.51491">
        <ele>347.140625</ele>
        <time>2020-10-29T13:04:18Z</time>
      </trkpt>
      <trkpt lat="43.74201" lon="3.51476">
        <ele>348.8828125</ele>
        <time>2020-10-29T13:04:32Z</time>
      </trkpt>
      <trkpt lat="43.74207" lon="3.51464">
        <ele>349.78515625</ele>
        <time>2020-10-29T13:04:44Z</time>
      </trkpt>
      <trkpt lat="43.74213" lon="3.51455">
        <ele>349.83203125</ele>
        <time>2020-10-29T13:04:54Z</time>
      </trkpt>
      <trkpt lat="43.74216" lon="3.51448">
        <ele>350.1171875</ele>
        <time>2020-10-29T13:05:01Z</time>
      </trkpt>
      <trkpt lat="43.74217" lon="3.51437">
        <ele>350.84765625</ele>
        <time>2020-10-29T13:05:10Z</time>
      </trkpt>
      <trkpt lat="43.74217" lon="3.51432">
        <ele>351.37890625</ele>
        <time>2020-10-29T13:05:15Z</time>
      </trkpt>
      <trkpt lat="43.74216" lon="3.51416">
        <ele>353.421875</ele>
        <time>2020-10-29T13:05:27Z</time>
      </trkpt>
      <trkpt lat="43.74213" lon="3.514">
        <ele>355.80078125</ele>
        <time>2020-10-29T13:05:38Z</time>
      </trkpt>
      <trkpt lat="43.7421" lon="3.5138">
        <ele>357.73046875</ele>
        <time>2020-10-29T13:05:52Z</time>
      </trkpt>
      <trkpt lat="43.74209" lon="3.51362">
        <ele>358.51953125</ele>
        <time>2020-10-29T13:06:04Z</time>
      </trkpt>
      <trkpt lat="43.74211" lon="3.51341">
        <ele>358.79296875</ele>
        <time>2020-10-29T13:06:17Z</time>
      </trkpt>
      <trkpt lat="43.74212" lon="3.51335">
        <ele>359.23828125</ele>
        <time>2020-10-29T13:06:21Z</time>
      </trkpt>
      <trkpt lat="43.74215" lon="3.51323">
        <ele>360.12890625</ele>
        <time>2020-10-29T13:06:30Z</time>
      </trkpt>
      <trkpt lat="43.74221" lon="3.51309">
        <ele>361.0859375</ele>
        <time>2020-10-29T13:06:41Z</time>
      </trkpt>
      <trkpt lat="43.74229" lon="3.51298">
        <ele>362.859375</ele>
        <time>2020-10-29T13:06:52Z</time>
      </trkpt>
      <trkpt lat="43.74231" lon="3.51295">
        <ele>363.375</ele>
        <time>2020-10-29T13:06:55Z</time>
      </trkpt>
      <trkpt lat="43.74235" lon="3.51285">
        <ele>364.83984375</ele>
        <time>2020-10-29T13:07:03Z</time>
      </trkpt>
      <trkpt lat="43.74244" lon="3.51271">
        <ele>367.6328125</ele>
        <time>2020-10-29T13:07:15Z</time>
      </trkpt>
      <trkpt lat="43.74248" lon="3.51257">
        <ele>369.59375</ele>
        <time>2020-10-29T13:07:24Z</time>
      </trkpt>
      <trkpt lat="43.74255" lon="3.51245">
        <ele>370.62109375</ele>
        <time>2020-10-29T13:07:33Z</time>
      </trkpt>
      <trkpt lat="43.74266" lon="3.51238">
        <ele>369.8046875</ele>
        <time>2020-10-29T13:07:44Z</time>
      </trkpt>
      <trkpt lat="43.74279" lon="3.51227">
        <ele>368.609375</ele>
        <time>2020-10-29T13:07:56Z</time>
      </trkpt>
      <trkpt lat="43.74288" lon="3.51207">
        <ele>371.453125</ele>
        <time>2020-10-29T13:08:10Z</time>
      </trkpt>
      <trkpt lat="43.74294" lon="3.5119">
        <ele>372.96875</ele>
        <time>2020-10-29T13:08:22Z</time>
      </trkpt>
      <trkpt lat="43.74304" lon="3.51173">
        <ele>373.46484375</ele>
        <time>2020-10-29T13:08:36Z</time>
      </trkpt>
      <trkpt lat="43.74311" lon="3.51158">
        <ele>373.42578125</ele>
        <time>2020-10-29T13:08:47Z</time>
      </trkpt>
      <trkpt lat="43.74316" lon="3.51136">
        <ele>373.6328125</ele>
        <time>2020-10-29T13:09:02Z</time>
      </trkpt>
      <trkpt lat="43.74324" lon="3.51123">
        <ele>372.7734375</ele>
        <time>2020-10-29T13:09:13Z</time>
      </trkpt>
      <trkpt lat="43.74329" lon="3.51117">
        <ele>372.203125</ele>
        <time>2020-10-29T13:09:18Z</time>
      </trkpt>
      <trkpt lat="43.74331" lon="3.51113">
        <ele>372.01953125</ele>
        <time>2020-10-29T13:09:21Z</time>
      </trkpt>
      <trkpt lat="43.74332" lon="3.51092">
        <ele>373.046875</ele>
        <time>2020-10-29T13:09:34Z</time>
      </trkpt>
      <trkpt lat="43.74324" lon="3.51072">
        <ele>375.50390625</ele>
        <time>2020-10-29T13:09:49Z</time>
      </trkpt>
      <trkpt lat="43.74318" lon="3.51055">
        <ele>377.58984375</ele>
        <time>2020-10-29T13:10:02Z</time>
      </trkpt>
      <trkpt lat="43.74317" lon="3.51036">
        <ele>378.76953125</ele>
        <time>2020-10-29T13:10:15Z</time>
      </trkpt>
      <trkpt lat="43.74315" lon="3.51018">
        <ele>379.9375</ele>
        <time>2020-10-29T13:10:27Z</time>
      </trkpt>
      <trkpt lat="43.74312" lon="3.51012">
        <ele>380.828125</ele>
        <time>2020-10-29T13:10:34Z</time>
      </trkpt>
      <trkpt lat="43.74312" lon="3.51006">
        <ele>381.09375</ele>
        <time>2020-10-29T13:10:41Z</time>
      </trkpt>
      <trkpt lat="43.74312" lon="3.51003">
        <ele>381.11328125</ele>
        <time>2020-10-29T13:11:00Z</time>
      </trkpt>
      <trkpt lat="43.74312" lon="3.51003">
        <ele>381.0546875</ele>
        <time>2020-10-29T13:11:10Z</time>
      </trkpt>
      <trkpt lat="43.74313" lon="3.51003">
        <ele>381.01953125</ele>
        <time>2020-10-29T13:11:24Z</time>
      </trkpt>
      <trkpt lat="43.74313" lon="3.51002">
        <ele>380.9921875</ele>
        <time>2020-10-29T13:11:54Z</time>
      </trkpt>
      <trkpt lat="43.74312" lon="3.51">
        <ele>381.06640625</ele>
        <time>2020-10-29T13:12:08Z</time>
      </trkpt>
      <trkpt lat="43.74313" lon="3.50997">
        <ele>381.01953125</ele>
        <time>2020-10-29T13:12:17Z</time>
      </trkpt>
      <trkpt lat="43.74312" lon="3.50998">
        <ele>381.0703125</ele>
        <time>2020-10-29T13:12:34Z</time>
      </trkpt>
      <trkpt lat="43.74312" lon="3.50998">
        <ele>381.0859375</ele>
        <time>2020-10-29T13:12:55Z</time>
      </trkpt>
      <trkpt lat="43.74311" lon="3.50998">
        <ele>381.3515625</ele>
        <time>2020-10-29T13:13:23Z</time>
      </trkpt>
      <trkpt lat="43.74308" lon="3.50998">
        <ele>381.8515625</ele>
        <time>2020-10-29T13:13:41Z</time>
      </trkpt>
      <trkpt lat="43.74307" lon="3.50997">
        <ele>382.0625</ele>
        <time>2020-10-29T13:14:00Z</time>
      </trkpt>
      <trkpt lat="43.74307" lon="3.50997">
        <ele>381.91796875</ele>
        <time>2020-10-29T13:14:15Z</time>
      </trkpt>
      <trkpt lat="43.74308" lon="3.50997">
        <ele>381.859375</ele>
        <time>2020-10-29T13:14:26Z</time>
      </trkpt>
      <trkpt lat="43.74308" lon="3.50997">
        <ele>381.8828125</ele>
        <time>2020-10-29T13:14:44Z</time>
      </trkpt>
      <trkpt lat="43.74307" lon="3.50996">
        <ele>381.9296875</ele>
        <time>2020-10-29T13:15:01Z</time>
      </trkpt>
      <trkpt lat="43.7431" lon="3.5099">
        <ele>381.49609375</ele>
        <time>2020-10-29T13:15:07Z</time>
      </trkpt>
      <trkpt lat="43.74309" lon="3.50977">
        <ele>381.7265625</ele>
        <time>2020-10-29T13:15:17Z</time>
      </trkpt>
      <trkpt lat="43.74305" lon="3.50968">
        <ele>382.234375</ele>
        <time>2020-10-29T13:15:26Z</time>
      </trkpt>
      <trkpt lat="43.74293" lon="3.50951">
        <ele>384.0390625</ele>
        <time>2020-10-29T13:15:42Z</time>
      </trkpt>
      <trkpt lat="43.74292" lon="3.5095">
        <ele>384.1328125</ele>
        <time>2020-10-29T13:15:43Z</time>
      </trkpt>
      <trkpt lat="43.74289" lon="3.50931">
        <ele>384.59375</ele>
        <time>2020-10-29T13:15:56Z</time>
      </trkpt>
      <trkpt lat="43.74288" lon="3.50914">
        <ele>384.7265625</ele>
        <time>2020-10-29T13:16:07Z</time>
      </trkpt>
      <trkpt lat="43.74283" lon="3.50897">
        <ele>384.875</ele>
        <time>2020-10-29T13:16:19Z</time>
      </trkpt>
      <trkpt lat="43.7428" lon="3.50878">
        <ele>386.69140625</ele>
        <time>2020-10-29T13:16:31Z</time>
      </trkpt>
      <trkpt lat="43.7428" lon="3.50859">
        <ele>388.3984375</ele>
        <time>2020-10-29T13:16:43Z</time>
      </trkpt>
      <trkpt lat="43.74277" lon="3.50843">
        <ele>390.91796875</ele>
        <time>2020-10-29T13:16:53Z</time>
      </trkpt>
      <trkpt lat="43.74276" lon="3.50828">
        <ele>392.66796875</ele>
        <time>2020-10-29T13:17:03Z</time>
      </trkpt>
      <trkpt lat="43.74273" lon="3.50818">
        <ele>394.5390625</ele>
        <time>2020-10-29T13:17:12Z</time>
      </trkpt>
      <trkpt lat="43.7427" lon="3.50809">
        <ele>396.53125</ele>
        <time>2020-10-29T13:17:20Z</time>
      </trkpt>
      <trkpt lat="43.74269" lon="3.508">
        <ele>397.64453125</ele>
        <time>2020-10-29T13:17:27Z</time>
      </trkpt>
      <trkpt lat="43.74269" lon="3.50798">
        <ele>397.7890625</ele>
        <time>2020-10-29T13:17:29Z</time>
      </trkpt>
      <trkpt lat="43.7427" lon="3.50793">
        <ele>397.73046875</ele>
        <time>2020-10-29T13:17:33Z</time>
      </trkpt>
      <trkpt lat="43.7427" lon="3.50777">
        <ele>399.07421875</ele>
        <time>2020-10-29T13:17:44Z</time>
      </trkpt>
      <trkpt lat="43.74268" lon="3.50769">
        <ele>400.25390625</ele>
        <time>2020-10-29T13:17:49Z</time>
      </trkpt>
      <trkpt lat="43.74269" lon="3.50762">
        <ele>400.2265625</ele>
        <time>2020-10-29T13:17:54Z</time>
      </trkpt>
      <trkpt lat="43.74268" lon="3.50748">
        <ele>401.72265625</ele>
        <time>2020-10-29T13:18:04Z</time>
      </trkpt>
      <trkpt lat="43.74269" lon="3.5074">
        <ele>402</ele>
        <time>2020-10-29T13:18:11Z</time>
      </trkpt>
      <trkpt lat="43.7427" lon="3.50731">
        <ele>402.01171875</ele>
        <time>2020-10-29T13:18:19Z</time>
      </trkpt>
      <trkpt lat="43.74273" lon="3.50718">
        <ele>401.33203125</ele>
        <time>2020-10-29T13:18:30Z</time>
      </trkpt>
      <trkpt lat="43.74273" lon="3.50708">
        <ele>401.69921875</ele>
        <time>2020-10-29T13:18:39Z</time>
      </trkpt>
      <trkpt lat="43.74272" lon="3.50695">
        <ele>402.578125</ele>
        <time>2020-10-29T13:18:50Z</time>
      </trkpt>
      <trkpt lat="43.74269" lon="3.5069">
        <ele>403.55859375</ele>
        <time>2020-10-29T13:18:55Z</time>
      </trkpt>
      <trkpt lat="43.74267" lon="3.50684">
        <ele>404.6171875</ele>
        <time>2020-10-29T13:19:00Z</time>
      </trkpt>
      <trkpt lat="43.7426" lon="3.50667">
        <ele>408.03125</ele>
        <time>2020-10-29T13:19:13Z</time>
      </trkpt>
      <trkpt lat="43.74257" lon="3.50652">
        <ele>410.88671875</ele>
        <time>2020-10-29T13:19:24Z</time>
      </trkpt>
      <trkpt lat="43.74256" lon="3.50651">
        <ele>411.1484375</ele>
        <time>2020-10-29T13:19:25Z</time>
      </trkpt>
      <trkpt lat="43.74254" lon="3.50648">
        <ele>412.07421875</ele>
        <time>2020-10-29T13:19:28Z</time>
      </trkpt>
      <trkpt lat="43.74246" lon="3.50643">
        <ele>414.58203125</ele>
        <time>2020-10-29T13:19:37Z</time>
      </trkpt>
      <trkpt lat="43.74244" lon="3.50637">
        <ele>415.57421875</ele>
        <time>2020-10-29T13:19:42Z</time>
      </trkpt>
      <trkpt lat="43.74251" lon="3.50628">
        <ele>415.16796875</ele>
        <time>2020-10-29T13:19:53Z</time>
      </trkpt>
      <trkpt lat="43.74256" lon="3.50619">
        <ele>415.26171875</ele>
        <time>2020-10-29T13:20:03Z</time>
      </trkpt>
      <trkpt lat="43.74261" lon="3.50611">
        <ele>415.6328125</ele>
        <time>2020-10-29T13:20:13Z</time>
      </trkpt>
      <trkpt lat="43.74265" lon="3.50603">
        <ele>416.23046875</ele>
        <time>2020-10-29T13:20:22Z</time>
      </trkpt>
      <trkpt lat="43.74266" lon="3.50591">
        <ele>417.73046875</ele>
        <time>2020-10-29T13:20:33Z</time>
      </trkpt>
      <trkpt lat="43.74267" lon="3.50582">
        <ele>419.01953125</ele>
        <time>2020-10-29T13:20:47Z</time>
      </trkpt>
      <trkpt lat="43.74266" lon="3.5058">
        <ele>419.4296875</ele>
        <time>2020-10-29T13:21:02Z</time>
      </trkpt>
      <trkpt lat="43.74269" lon="3.50573">
        <ele>420.11328125</ele>
        <time>2020-10-29T13:21:12Z</time>
      </trkpt>
      <trkpt lat="43.74271" lon="3.50566">
        <ele>420.90625</ele>
        <time>2020-10-29T13:21:24Z</time>
      </trkpt>
      <trkpt lat="43.74274" lon="3.50558">
        <ele>421.69921875</ele>
        <time>2020-10-29T13:21:35Z</time>
      </trkpt>
      <trkpt lat="43.74276" lon="3.50555">
        <ele>421.92578125</ele>
        <time>2020-10-29T13:21:39Z</time>
      </trkpt>
      <trkpt lat="43.74278" lon="3.50543">
        <ele>423.6015625</ele>
        <time>2020-10-29T13:21:50Z</time>
      </trkpt>
      <trkpt lat="43.74275" lon="3.50532">
        <ele>425.65234375</ele>
        <time>2020-10-29T13:22:01Z</time>
      </trkpt>
      <trkpt lat="43.7427" lon="3.50521">
        <ele>427.96484375</ele>
        <time>2020-10-29T13:22:13Z</time>
      </trkpt>
      <trkpt lat="43.74266" lon="3.5051">
        <ele>430.22265625</ele>
        <time>2020-10-29T13:22:24Z</time>
      </trkpt>
      <trkpt lat="43.7426" lon="3.50503">
        <ele>432.125</ele>
        <time>2020-10-29T13:22:35Z</time>
      </trkpt>
      <trkpt lat="43.74251" lon="3.50497">
        <ele>434.09375</ele>
        <time>2020-10-29T13:22:48Z</time>
      </trkpt>
      <trkpt lat="43.74242" lon="3.50492">
        <ele>435.6328125</ele>
        <time>2020-10-29T13:22:59Z</time>
      </trkpt>
      <trkpt lat="43.74233" lon="3.5049">
        <ele>436.5859375</ele>
        <time>2020-10-29T13:23:15Z</time>
      </trkpt>
      <trkpt lat="43.74228" lon="3.50491">
        <ele>436.91796875</ele>
        <time>2020-10-29T13:23:25Z</time>
      </trkpt>
      <trkpt lat="43.74223" lon="3.50493">
        <ele>436.98046875</ele>
        <time>2020-10-29T13:23:35Z</time>
      </trkpt>
      <trkpt lat="43.74215" lon="3.50497">
        <ele>436.9453125</ele>
        <time>2020-10-29T13:23:47Z</time>
      </trkpt>
      <trkpt lat="43.74214" lon="3.50495">
        <ele>437.29296875</ele>
        <time>2020-10-29T13:23:50Z</time>
      </trkpt>
      <trkpt lat="43.74208" lon="3.50488">
        <ele>438.421875</ele>
        <time>2020-10-29T13:24:00Z</time>
      </trkpt>
      <trkpt lat="43.74205" lon="3.50486">
        <ele>438.828125</ele>
        <time>2020-10-29T13:24:04Z</time>
      </trkpt>
      <trkpt lat="43.74201" lon="3.50484">
        <ele>439.328125</ele>
        <time>2020-10-29T13:24:09Z</time>
      </trkpt>
      <trkpt lat="43.74197" lon="3.50484">
        <ele>439.5078125</ele>
        <time>2020-10-29T13:24:13Z</time>
      </trkpt>
      <trkpt lat="43.74188" lon="3.50493">
        <ele>438.90625</ele>
        <time>2020-10-29T13:24:25Z</time>
      </trkpt>
      <trkpt lat="43.74182" lon="3.50503">
        <ele>437.91796875</ele>
        <time>2020-10-29T13:24:37Z</time>
      </trkpt>
      <trkpt lat="43.7418" lon="3.50505">
        <ele>437.77734375</ele>
        <time>2020-10-29T13:24:45Z</time>
      </trkpt>
      <trkpt lat="43.74179" lon="3.50504">
        <ele>437.92578125</ele>
        <time>2020-10-29T13:25:05Z</time>
      </trkpt>
      <trkpt lat="43.74179" lon="3.50506">
        <ele>437.8046875</ele>
        <time>2020-10-29T13:25:13Z</time>
      </trkpt>
      <trkpt lat="43.74176" lon="3.50507">
        <ele>437.79296875</ele>
        <time>2020-10-29T13:25:27Z</time>
      </trkpt>
      <trkpt lat="43.74169" lon="3.50507">
        <ele>438.16015625</ele>
        <time>2020-10-29T13:25:37Z</time>
      </trkpt>
      <trkpt lat="43.74159" lon="3.5051">
        <ele>438.04296875</ele>
        <time>2020-10-29T13:25:50Z</time>
      </trkpt>
      <trkpt lat="43.74149" lon="3.50515">
        <ele>437.6484375</ele>
        <time>2020-10-29T13:26:01Z</time>
      </trkpt>
      <trkpt lat="43.74137" lon="3.50524">
        <ele>437.24609375</ele>
        <time>2020-10-29T13:26:14Z</time>
      </trkpt>
      <trkpt lat="43.74128" lon="3.5053">
        <ele>437.1328125</ele>
        <time>2020-10-29T13:26:24Z</time>
      </trkpt>
      <trkpt lat="43.7412" lon="3.50534">
        <ele>437.2578125</ele>
        <time>2020-10-29T13:26:31Z</time>
      </trkpt>
      <trkpt lat="43.74112" lon="3.50522">
        <ele>438.2578125</ele>
        <time>2020-10-29T13:26:42Z</time>
      </trkpt>
      <trkpt lat="43.74107" lon="3.50516">
        <ele>438.40625</ele>
        <time>2020-10-29T13:26:51Z</time>
      </trkpt>
      <trkpt lat="43.74106" lon="3.50513">
        <ele>438.5078125</ele>
        <time>2020-10-29T13:26:54Z</time>
      </trkpt>
      <trkpt lat="43.741" lon="3.50506">
        <ele>438.671875</ele>
        <time>2020-10-29T13:27:05Z</time>
      </trkpt>
      <trkpt lat="43.74099" lon="3.50499">
        <ele>438.89453125</ele>
        <time>2020-10-29T13:27:14Z</time>
      </trkpt>
      <trkpt lat="43.74097" lon="3.50482">
        <ele>439.45703125</ele>
        <time>2020-10-29T13:27:27Z</time>
      </trkpt>
      <trkpt lat="43.74096" lon="3.50467">
        <ele>439.9375</ele>
        <time>2020-10-29T13:27:38Z</time>
      </trkpt>
      <trkpt lat="43.74095" lon="3.50447">
        <ele>440.11328125</ele>
        <time>2020-10-29T13:27:52Z</time>
      </trkpt>
      <trkpt lat="43.74097" lon="3.50431">
        <ele>439.8125</ele>
        <time>2020-10-29T13:28:04Z</time>
      </trkpt>
      <trkpt lat="43.74103" lon="3.50416">
        <ele>440.37890625</ele>
        <time>2020-10-29T13:28:16Z</time>
      </trkpt>
      <trkpt lat="43.74111" lon="3.50399">
        <ele>441.625</ele>
        <time>2020-10-29T13:28:29Z</time>
      </trkpt>
      <trkpt lat="43.74117" lon="3.50383">
        <ele>443.30859375</ele>
        <time>2020-10-29T13:28:42Z</time>
      </trkpt>
      <trkpt lat="43.74118" lon="3.50367">
        <ele>444.17578125</ele>
        <time>2020-10-29T13:28:53Z</time>
      </trkpt>
      <trkpt lat="43.74121" lon="3.50351">
        <ele>445.29296875</ele>
        <time>2020-10-29T13:29:04Z</time>
      </trkpt>
      <trkpt lat="43.74122" lon="3.50335">
        <ele>446.2734375</ele>
        <time>2020-10-29T13:29:15Z</time>
      </trkpt>
      <trkpt lat="43.74123" lon="3.5032">
        <ele>447.03125</ele>
        <time>2020-10-29T13:29:26Z</time>
      </trkpt>
      <trkpt lat="43.74123" lon="3.50299">
        <ele>447.94140625</ele>
        <time>2020-10-29T13:29:40Z</time>
      </trkpt>
      <trkpt lat="43.74124" lon="3.50281">
        <ele>448.8046875</ele>
        <time>2020-10-29T13:29:53Z</time>
      </trkpt>
      <trkpt lat="43.74128" lon="3.50266">
        <ele>449.9140625</ele>
        <time>2020-10-29T13:30:04Z</time>
      </trkpt>
      <trkpt lat="43.74131" lon="3.50251">
        <ele>451.1796875</ele>
        <time>2020-10-29T13:30:15Z</time>
      </trkpt>
      <trkpt lat="43.74134" lon="3.50236">
        <ele>452.515625</ele>
        <time>2020-10-29T13:30:26Z</time>
      </trkpt>
      <trkpt lat="43.74136" lon="3.50226">
        <ele>454</ele>
        <time>2020-10-29T13:30:38Z</time>
      </trkpt>
      <trkpt lat="43.74138" lon="3.5022">
        <ele>455.20703125</ele>
        <time>2020-10-29T13:30:47Z</time>
      </trkpt>
      <trkpt lat="43.74139" lon="3.5022">
        <ele>455.578125</ele>
        <time>2020-10-29T13:30:57Z</time>
      </trkpt>
      <trkpt lat="43.74137" lon="3.5022">
        <ele>455.23828125</ele>
        <time>2020-10-29T13:31:07Z</time>
      </trkpt>
      <trkpt lat="43.74136" lon="3.50222">
        <ele>454.55859375</ele>
        <time>2020-10-29T13:31:23Z</time>
      </trkpt>
      <trkpt lat="43.74136" lon="3.5022">
        <ele>454.92578125</ele>
        <time>2020-10-29T13:31:35Z</time>
      </trkpt>
    </trkseg>
  </trk>
</gpx>